     2              OBSERVATION DATA    GPS                 RINEX VERSION / TYPE
srx/v1.8.1.4 seismo 97/06/23 15:59:48                       PGM / RUN BY / DATE
                                                            COMMENT
sig: 9 8 7 6 5 4 1 0                                        COMMENT
sig: 9 8 7 6 5 4 1 0                                        COMMENT
sig: 9 8 7 6 5 4 1 0                                        COMMENT
Original Marker Name: CALI                                  COMMENT
Campaign Name: Harvey Mudd 1997-1999                        COMMENT
4-Character Station Name: CALI                              COMMENT
6-Character Antenna Code: DMRCHT                            COMMENT
Vertical Measurement Point: BCR                             COMMENT
Vertical Offset to Rinex Ref. Point: 0.0348                 COMMENT
Radial Measurement Point: ECF                               COMMENT
Radial Offset to Rinex Ref. Point: 0.1897                   COMMENT
Antenna Height from Field Measurement: 1.4200 m             COMMENT
Additional Antenna Identification Info.:                    COMMENT
Turborogue and Ashtech Choke Ring                           COMMENT
Original XYZ: -2454971.5856 -4685768.6827 3551641.2261      COMMENT
New XYZ position is based on association with SCEC monument COMMENT
E1D0Q6K9+0011. Position of that monument is believed to be  COMMENT
valid to within 1 m horizontally; vertical accuracy         COMMENT
should be no worse than 3-times this value.                 COMMENT
                                                            COMMENT
Revised Rinex header created by UCSD GPS archive for        COMMENT
GSAC on 09-Nov-2004 (2004:314) 22:03:53 GMT                 COMMENT
For assistance contact dagnew@ucsd.edu                      COMMENT
or anderson@python.ucsd.edu                                 COMMENT
                                                            COMMENT
CALID 1976                                                  MARKER NAME
CALI                                                        MARKER NUMBER
D&M HARVEY MUDD COLLEGE                                     OBSERVER / AGENCY
T263 TURBOROGUE SNR-8000 95.03.08                           REC # / TYPE / VERS
329 DORNE-MARGOL. TYPE T                                    ANT # / TYPE
 -2455009.0000 -4685861.0000  3551697.0000                  APPROX POSITION XYZ
        1.3725        0.0000        0.0000                  ANTENNA: DELTA H/E/N
     1     1     0                                          WAVELENGTH FACT L1/2
     5    L1    L2    P1    P2    C1                        # / TYPES OF OBSERV
    30                                                      INTERVAL
  1997     6    19    15    38   30.000000                  TIME OF FIRST OBS
  1997     6    19    23    41    0.000000                  TIME OF LAST OBS
    19                                                      # OF SATELLITES
          01    21    21     0    21    21                  PRN / # OF OBS
          02   155   155     0   155   155                  PRN / # OF OBS
          03   100   100     0   100   100                  PRN / # OF OBS
          04   474   474     0   474   474                  PRN / # OF OBS
          05   591   591     0   591   591                  PRN / # OF OBS
          06   569   569     0   569   569                  PRN / # OF OBS
          07   285   285     0   285   285                  PRN / # OF OBS
          09   437   437     0   437   437                  PRN / # OF OBS
          10   596   596     0   596   596                  PRN / # OF OBS
          16   156   156     0   156   156                  PRN / # OF OBS
          17   417   417     0   417   417                  PRN / # OF OBS
          21   206   206     0   206   206                  PRN / # OF OBS
          22   238   238     0   238   238                  PRN / # OF OBS
          23   395   395     0   395   395                  PRN / # OF OBS
          24   616   616     0   616   616                  PRN / # OF OBS
          25    24    24     0    24    24                  PRN / # OF OBS
          26   459   459     0   459   459                  PRN / # OF OBS
          27    12    12     0    12    12                  PRN / # OF OBS
                                                            END OF HEADER
 97 06 19 15 38 30.0000000  0  5 02 04 24 26 27
        -0.32758        -0.15556         0.00051  22237780.92256  22237777.26758
        -0.72359         0.54756         0.00051  21257913.31156  21257912.04059
        -0.32758        -0.07755         0.00051  22884623.19155  22884620.09558
        -0.53858         0.21754         0.00051  24270811.24154  24270810.59858
        -1.08158        -0.03454         0.00051  24706274.54654  24706272.44858
 97 06 19 15 39 00.0000000  0  6 02 04 07 24 26 27
     57121.16448     44510.08546         0.00041  22248651.72746  22248648.69748
    -57694.28649    -44955.45546         0.00041  21246935.12646  21246933.51249
        -0.18358         0.74856         0.00051  21061571.08856  21061568.87458
    -94091.74848    -73318.01945         0.00041  22866718.33045  22866714.94248
     79705.33247         0.00041         0.00041         0.00041  24285979.88847
    127237.07448         0.00041         0.00041         0.00041  24730483.88248
 97 06 19 15 39 30.0000000  0  5 02 04 07 24 27
    105743.75448     82397.77746         0.00041  22257903.61446  22257900.90948
   -123646.01849    -96346.39846         0.00041  21234384.72246  21234382.98249
     50495.28848     39347.86246         0.00041  21071180.65446  21071177.81248
   -196723.28848   -153290.62645         0.00041  22847189.06945  22847185.05348
    245818.17547         0.00041         0.00041         0.00041  24753047.10147
 97 06 19 15 40 00.0000000  0  5 02 04 07 24 27
    150926.01348    117604.69045         0.00041  22266501.23545  22266498.02648
   -192783.44149   -150219.69946         0.00041  21221228.25646  21221226.51049
     97534.08748     76001.48046         0.00041  21080131.54846  21080128.45848
   -302819.36348   -235962.85845         0.00041  22826999.51645  22826994.77548
    360806.34248    281148.41941         0.00041         0.00041  24774931.44348
 97 06 19 15 40 30.0000000  0  8 02 04 05 07 09 24 26 27
    196882.70148    153415.05645         0.00041  22275247.22645  22275244.26348
   -260884.64849   -203285.56446         0.00041  21208268.86146  21208266.71949
        -0.49658         0.00051         0.00051         0.00051  24334613.06258
    145328.64848    113243.98546         0.00041  21089226.67546  21089224.00948
         0.05557         0.00051         0.00051         0.00051  21787546.90257
   -408165.73148   -318050.88745         0.00041  22806953.97645  22806947.71448
         0.01757         1.30751         0.00051         0.00051  24325331.82857
    476399.90348    371221.22141         0.00041         0.00041  24796930.96748
 97 06 19 15 41 00.0000000  0  7 02 04 05 07 09 24 27
    243642.77648    189851.44745         0.00041  22284144.39045  22284142.14048
   -327904.00249   -255508.42846         0.00041  21195516.07146  21195513.38349
    -84700.03347         0.00041         0.00041         0.00041  24318492.77447
    193911.98948    151101.13346         0.00041  21098471.97246  21098468.89748
    -60544.25247         0.00041         0.00041         0.00041  21776023.16647
   -512734.80548   -399533.25845         0.00041  22787055.27745  22787048.41248
    592619.21448    461781.55441         0.00041         0.00041  24819045.40848
 97 06 19 15 41 30.0000000  0  7 02 04 05 07 09 24 27
    291147.25848    226867.89545         0.00041  22293183.74245  22293182.04448
   -393924.85949   -306953.24446         0.00041  21182952.76746  21182950.48249
   -168920.07147         0.00041         0.00041         0.00041  24302467.43347
    243205.75748    189511.87246         0.00041  21107852.58646  21107849.64548
   -120124.86347    -93603.40941         0.00041         0.00041  21764684.66447
   -616603.67148   -480470.00845         0.00041  22767289.19245  22767282.51048
    709376.12448         0.00041         0.00041         0.00041  24841263.69148
 97 06 19 15 42 00.0000000  0  7 02 04 05 07 09 24 27
    339361.34048    264437.30045         0.00041  22302358.92145  22302356.29648
   -458995.70349   -357657.78446         0.00041  21170570.57746  21170568.47549
   -252731.55647         0.00041         0.00041         0.00041  24286520.49047
    293140.64048    228422.15446         0.00041  21117354.04246  21117352.18948
   -178797.40448   -139322.32544         0.00041  21753518.15444  21753517.24348
   -719831.11248   -560906.96145         0.00041  22747646.63745  22747639.30348
    826625.32048         0.00041         0.00041         0.00041  24863574.11248
 97 06 19 15 42 30.0000000  0  8 02 04 05 07 09 24 26 27
    388271.12948    302548.82246         0.00041  22311666.94046  22311663.77248
   -523132.36749   -407634.39446         0.00041  21158365.80046  21158363.22049
   -336156.22947         0.00041         0.00041         0.00041  24270642.55747
    343689.28448    267810.70146         0.00041  21126973.32346  21126970.46348
   -236578.86548   -184346.85041         0.00041         0.00041  21742522.45448
   -822436.00248   -640858.84645         0.00041  22728118.93545  22728115.22448
        -0.62758         0.08454         0.00051  24378417.35754  24378413.11358
    944337.22648         0.00041         0.00041         0.00041  24885974.56848
 97 06 19 15 43 00.0000000  0  8 02 04 05 07 09 24 26 27
    437794.20748    341138.21246         0.00041  22321091.12846  22321087.34148
   -586420.52749   -456949.83646         0.00041  21146322.68346  21146319.65049
   -419258.70647         0.00041         0.00041         0.00041  24254831.33047
    394781.60448    307622.90546         0.00041  21136697.41846  21136693.28048
   -293565.08948   -228751.70244         0.00041  21731681.13944  21731678.21848
   -924487.01448   -720379.09945         0.00041  22708697.71045  22708695.80548
     70993.10848     55319.89544         0.00041  24391926.97144  24391923.38348
   1062423.40247         0.00041         0.00041         0.00041  24908445.46547
 97 06 19 15 43 30.0000000  0  7 02 04 05 07 09 24 26
    487960.60948    380228.91346         0.00041  22330637.27046  22330634.19648
   -648848.17849   -505594.75346         0.00041  21134443.26446  21134440.18849
   -502021.81647         0.00041         0.00041         0.00041  24239083.75647
    446435.25148    347872.49046         0.00041  21146525.78446  21146522.25448
   -349753.86148   -272535.21741         0.00041         0.00041  21720986.89148
  -1025972.76548   -799458.86445         0.00041  22689384.72345  22689384.59348
    142405.91348    110966.22044         0.00041  24405518.98844  24405512.31148
 97 06 19 15 44 00.0000000  0  7 02 04 07 09 24 26 27
    538498.83048    419609.32346         0.00041  22340255.76146  22340252.28448
   -710658.40849   -553758.55946         0.00041  21122681.11146  21122678.46449
    498389.96148    388356.66446         0.00041  21156412.40346  21156409.60648
   -405387.53448         0.00041         0.00041         0.00041  21710398.46448
  -1127155.49648   -878302.52246         0.00041  22670132.17446  22670130.56748
    213968.89248    166729.57144         0.00041  24419133.07244  24419130.24448
         0.05157         0.00051         0.00051         0.00051  24953566.95557
 97 06 19 15 44 30.0000000  0  7 02 04 07 09 24 26 27
    589249.82848    459155.54246         0.00041  22349911.95346  22349909.80548
   -772011.05749   -601565.80446         0.00041  21111006.15746  21111003.34149
    550501.28348    428962.85946         0.00041  21166328.17446  21166326.05348
   -460597.72747         0.00041         0.00041         0.00041  21699891.51147
  -1228180.68048   -957023.40446         0.00041  22650908.63846  22650905.10448
    285537.90048    222497.61244         0.00041  24432754.69044  24432751.34148
    118601.88347         0.00041         0.00041         0.00041  24976137.84547
 97 06 19 15 45 00.0000000  0  7 02 04 05 07 09 24 26
    640284.38848    498922.69346         0.00041  22359624.13846  22359621.19348
   -832837.05649   -648962.67046         0.00041  21099430.83746  21099428.06949
        -1.06657         0.00051         0.00051         0.00051  24191879.23357
    602848.75748    469753.07146         0.00041  21176290.71846  21176287.51448
   -515310.13448         0.00041         0.00041         0.00041  21689481.24748
  -1328977.82148  -1035566.58046         0.00041  22631728.02146  22631723.64348
    357202.08048    278339.80344         0.00041  24446391.67344  24446387.56948
 97 06 19 15 45 30.0000000  0  7 02 04 05 07 09 24 26
    691886.19748    539131.84546         0.00041  22369442.85646  22369440.71648
   -892839.90049   -695718.11746         0.00041  21088012.67146  21088010.06949
    -82361.82547         0.00041         0.00041         0.00041  24176205.43847
    655704.05248    510939.00646         0.00041  21186348.82646  21186345.75148
   -569225.75448   -443552.20341         0.00041         0.00041  21679223.39148
  -1429252.77548  -1113702.87746         0.00041  22612646.85146  22612642.12548
    429268.41448    334495.39941         0.00041         0.00041  24460100.86548
 97 06 19 15 46 00.0000000  0  7 02 04 05 07 09 24 26
    744028.83848    579762.45045         0.00041  22379365.46845  22379362.67648
   -952048.63449   -741854.77146         0.00041  21076745.11746  21076742.78749
   -164449.36947         0.00041         0.00041         0.00041  24160582.80947
    709037.16848    552497.26046         0.00041  21196496.89546  21196494.13048
   -622373.47648   -484965.96344         0.00041  21669109.77544  21669108.06048
  -1529007.17548  -1191433.53146         0.00041  22593664.59046  22593658.50448
    501736.66248         0.00041         0.00041         0.00041  24473891.85648
 97 06 19 15 46 30.0000000  0  6 02 04 05 07 09 24
    796576.09248    620708.33345         0.00041  22389364.34645  22389362.10148
  -1010626.06049   -787499.50346         0.00041  21065598.82646  21065596.06049
   -246423.99948         0.00041         0.00041         0.00041  24144984.00548
    762701.66248    594313.72446         0.00041  21206709.55746  21206706.50348
   -674914.16748   -525906.74444         0.00041  21659115.02144  21659109.11148
  -1628374.75148  -1268862.77246         0.00041  22574755.52646  22574749.50748
 97 06 19 15 47 00.0000000  0  6 02 04 05 07 09 24
    849277.78248    661774.56245         0.00041  22399393.91545  22399391.14548
  -1068817.17449   -832843.22346         0.00041  21054525.41346  21054522.72949
   -328558.49448         0.00041         0.00041         0.00041  24129353.70948
    816434.13448    636183.16946         0.00041  21216934.23546  21216931.74548
   -727118.84948   -566585.72644         0.00041  21649180.78244  21649175.18848
  -1727600.74148  -1346181.69946         0.00041  22555873.05346  22555867.87948
 97 06 19 15 47 30.0000000  0  7 02 04 05 07 09 24 26
    902162.98848    702983.80145         0.00041  22409457.77345  22409454.85948
  -1126591.37949   -877862.07546         0.00041  21043531.14446  21043528.69349
   -410823.00148         0.00041         0.00041         0.00041  24113700.94448
    870247.61448    678115.73346         0.00041  21227174.94546  21227172.47448
   -778960.56148   -606981.81844         0.00041  21639314.92344  21639309.82448
  -1826650.21148  -1423363.08346         0.00041  22537024.18046  22537019.23848
        -0.83058         0.00051         0.00051         0.00051  24515396.21558
 97 06 19 15 48 00.0000000  0  7 02 04 05 07 09 24 26
    955298.53648    744388.09545         0.00041  22419567.15645  22419565.85948
  -1183882.22349   -922504.29046         0.00041  21032628.94946  21032626.60349
   -493144.66848         0.00041         0.00041         0.00041  24098034.33548
    924211.87048    720165.78446         0.00041  21237443.97146  21237441.23548
   -830372.16748   -647042.82844         0.00041  21629531.76444  21629527.62048
  -1925463.29748  -1500360.25646         0.00041  22518219.89646  22518216.19148
     72704.42348         0.00041         0.00041         0.00041  24529230.89148
 97 06 19 15 48 30.0000000  0  7 02 04 05 07 09 24 26
   1008681.12848    785984.88445         0.00041  22429725.98445  22429724.23948
  -1240665.35449   -966750.87546         0.00041  21021823.51446  21021821.35949
   -575493.09848         0.00041         0.00041         0.00041  24082363.40748
    978333.15548    762338.20046         0.00041  21247742.97546  21247739.98248
   -881318.73748   -686741.44644         0.00041  21619836.56944  21619834.21148
  -2024038.56348  -1577172.14046         0.00041  22499461.34446  22499457.95048
    145413.76248         0.00041         0.00041         0.00041  24543069.26048
 97 06 19 15 49 00.0000000  0  7 02 04 05 07 09 24 26
   1062108.89048    827616.85245         0.00041  22439895.63645  22439891.28148
  -1297130.81949  -1010749.92146         0.00041  21011077.96846  21011076.23249
   -658063.13348         0.00041         0.00041         0.00041  24066651.85748
   1032411.06048    804476.81546         0.00041  21258032.31746  21258029.99648
   -931979.95748   -726217.70644         0.00041  21610195.56944  21610192.40648
  -2122580.84448  -1653958.32145         0.00041  22480708.81645  22480704.74148
    217926.57548    169813.20444         0.00041  24556870.16844  24556867.29748
 97 06 19 15 49 30.0000000  0  7 02 04 05 07 09 24 26
   1115764.66148    869426.51245         0.00041  22450105.15845  22450102.11248
  -1353102.71149  -1054364.36846         0.00041  21000426.91146  21000425.22049
   -740665.34248   -577140.96541         0.00041         0.00041  24050932.56348
   1086630.75748    846725.92446         0.00041  21268351.08046  21268347.42548
   -982160.33748   -765319.25541         0.00041         0.00041  21600641.40448
  -2220914.70748  -1730582.09746         0.00041  22461997.95746  22461992.36648
    290434.68948    226312.96544         0.00041  24570669.36644  24570666.31248
 97 06 19 15 50 00.0000000  0  7 02 04 05 07 09 24 26
   1169792.86148    911526.41945         0.00041  22460385.81745  22460382.83948
  -1408436.02549  -1097481.21246         0.00041  20989897.05146  20989895.30149
   -823164.97848   -641426.42844         0.00041  24035231.00844  24035233.75548
   1141141.66648    889201.94546         0.00041  21278725.03546  21278721.27648
  -1031711.76348         0.00041         0.00041         0.00041  21591213.23448
  -2318908.07048  -1806940.55046         0.00041  22443349.71446  22443345.85048
    363092.71948    282929.56844         0.00041  24584495.35644  24584492.96948
 97 06 19 15 50 30.0000000  0  7 02 04 05 07 09 24 26
   1224140.32348    953875.06345         0.00041  22470726.64545  22470724.53748
  -1463188.86649  -1140145.73746         0.00041  20979478.62446  20979476.31949
   -905610.70848   -705669.93644         0.00041  24019545.38844  24019544.74048
   1195882.64548    931857.25746         0.00041  21289141.76146  21289138.86748
  -1080690.31648         0.00041         0.00041         0.00041  21581892.95048
  -2416617.68448  -1883077.89946         0.00041  22424755.48846  22424753.13048
    435862.10547    339632.96941         0.00041         0.00041  24598336.09147
 97 06 19 15 51 00.0000000  0  6 02 04 05 07 09 24
   1278789.55448    996458.86745         0.00041  22481128.42045  22481123.92848
  -1517394.06149  -1182383.53646         0.00041  20969163.80946  20969161.29949
   -988032.06848   -769894.32844         0.00041  24003863.85744  24003860.68848
   1250825.63948    974669.98446         0.00041  21299596.88746  21299594.10948
  -1129150.43148         0.00041         0.00041         0.00041  21572670.41248
  -2514074.45748  -1959018.22246         0.00041  22406209.76546  22406207.19048
 97 06 19 15 51 30.0000000  0  6 02 04 05 07 09 24
   1333719.22948   1039261.16745         0.00041  22491579.19945  22491576.69248
  -1571057.29149  -1224199.03746         0.00041  20958952.45846  20958949.56649
  -1070441.49648   -834109.51841         0.00041         0.00041  23988179.25348
   1305951.00048   1017624.81346         0.00041  21310086.14646  21310082.97248
  -1177136.81348         0.00041         0.00041         0.00041  21563539.91848
  -2611288.70148  -2034769.56246         0.00041  22387711.86646  22387707.47448
 97 06 19 15 52 00.0000000  0  5 02 04 07 09 24
   1388887.43848   1082249.31245         0.00041  22502076.49545  22502074.84748
  -1624205.93849  -1265613.56847         0.00041  20948839.07247  20948836.09749
   1361223.25748   1060694.09046         0.00041  21320604.48246  21320601.34148
  -1224699.56448   -954311.11141         0.00041         0.00041  21554490.12448
  -2708280.75048  -2110347.76946         0.00041  22369255.83646  22369249.08848
 97 06 19 15 52 30.0000000  0  6 02 04 07 09 24 26
   1444303.09848   1125430.34945         0.00041  22512623.48445  22512620.84048
  -1676822.89149  -1306613.78547         0.00041  20938826.51947  20938823.43249
   1416651.95348   1103885.27146         0.00041  21331152.47746  21331148.94048
  -1271838.56948   -991042.84244         0.00041  21545518.02744  21545519.37848
  -2805019.82548  -2185728.85346         0.00041  22350846.80846  22350840.39148
         0.09058         0.93551         0.00051         0.00051  24653837.40458
 97 06 19 15 53 00.0000000  0  6 02 04 07 09 24 26
   1499958.72048   1168798.34845         0.00041  22523213.06345  22523212.38148
  -1728912.86549  -1347203.37147         0.00041  20928913.65347  20928910.93949
   1472223.25448   1147187.56245         0.00041  21341727.22245  21341723.55648
  -1318562.57048         0.00041         0.00041         0.00041  21536632.10748
  -2901503.20348  -2260910.68146         0.00041  22332486.32646  22332480.71948
     72940.32548     56837.45944         0.00041  24667720.98844  24667718.33848
 97 06 19 15 53 30.0000000  0  7 02 04 05 07 09 24 26
   1556018.88948   1212481.56845         0.00041  22533881.78445  22533880.19548
  -1780305.86949  -1387249.85447         0.00041  20919133.85247  20919131.62449
         0.06258         0.91551         0.00051         0.00051  23925465.31058
   1528101.69148   1190729.17345         0.00041  21352359.46245  21352358.05948
  -1364679.87648         0.00041         0.00041         0.00041  21527855.55848
  -2997547.36148  -2335750.26446         0.00041  22314208.73646  22314204.95148
    146048.56648    113804.89444         0.00041  24681633.07644  24681630.66348
 97 06 19 15 54 00.0000000  0  7 02 04 05 07 09 24 26
   1612339.47048   1256367.68245         0.00041  22544599.65045  22544596.55948
  -1831160.13249  -1426876.54347         0.00041  20909456.10747  20909453.89149
    -82272.33348    -64107.51244         0.00041  23909813.36444  23909809.57148
   1584137.73748   1234393.61145         0.00041  21363024.66045  21363020.13648
  -1410302.23447         0.00041         0.00041         0.00041  21519174.56547
  -3093299.71148  -2410362.46746         0.00041  22295987.41646  22295983.88148
    219178.59348    170789.30244         0.00041  24695548.77944  24695546.91548
 97 06 19 15 54 30.0000000  0  6 02 04 05 07 24 26
   1668873.09648   1300419.82045         0.00041  22555358.05745  22555354.98348
  -1881530.87049  -1466126.46647         0.00041  20899870.75147  20899868.14949
   -164594.38648   -128254.57044         0.00041  23894147.32144  23894143.11348
   1640275.77948   1278137.56445         0.00041  21373705.57945  21373702.21448
  -3188821.31348  -2484794.85646         0.00041  22277810.11746  22277806.58048
    292286.87748    227756.73844         0.00041  24709463.25944  24709461.09348
 97 06 19 15 55 00.0000000  0  7 02 04 05 07 16 24 26
   1725581.11148   1344607.84345         0.00041  22566148.47545  22566145.41548
  -1931464.88949  -1505036.09046         0.00041  20890368.75446  20890366.10849
   -247018.12448   -192480.85344         0.00041  23878464.98144  23878459.26548
   1696470.72548   1321925.81344         0.00041  21384397.91744  21384396.39048
        -0.66058        19.16756         0.00051  25250893.39256  25250890.64358
  -3284159.03348  -2559083.96146         0.00041  22259668.22746  22259664.95548
    365332.70248    284675.48444         0.00041  24723362.23744  24723359.40848
 97 06 19 15 55 30.0000000  0  7 02 04 05 07 16 24 26
   1782528.85248   1388982.68345         0.00041  22576985.96745  22576982.10848
  -1980892.01949  -1543550.72846         0.00041  20880963.30946  20880960.61649
   -329462.36848   -256723.09944         0.00041  23862771.06544  23862767.54748
   1752805.73248   1365823.19545         0.00041  21395119.74145  21395117.27848
    -49325.52348    -38398.75246         0.00041  25241507.40046  25241504.78248
  -3379253.95148  -2633183.89046         0.00041  22241572.00046  22241568.20148
    438378.91348    341594.56744         0.00041  24737262.98344  24737256.83148
 97 06 19 15 56 00.0000000  0  8 02 04 05 07 09 16 24 26
   1839805.27548   1433613.65045         0.00041  22587886.20345  22587881.77948
  -2029723.35349  -1581601.12046         0.00041  20871670.66646  20871668.02949
   -411846.29348         0.00041         0.00041         0.00041  23847092.16448
   1809375.13748   1409903.23045         0.00041  21405885.28945  21405881.98348
        -0.52757         0.00051         0.00051         0.00051  21485357.52057
    -98330.17348    -76607.36746         0.00041  25232181.60046  25232179.04148
  -3474032.23948  -2707037.07446         0.00041  22223536.59746  22223532.23348
    511513.50648    398582.53744         0.00041  24751180.04344  24751174.40648
 97 06 19 15 56 30.0000000  0  8 02 04 05 07 09 16 24 26
   1897372.70148   1478471.38845         0.00041  22598840.31845  22598837.22948
  -2077985.40749  -1619207.91946         0.00041  20862486.92246  20862483.58449
   -494224.91648   -385109.45741         0.00041         0.00041  23831418.91448
   1866140.13948   1454135.70445         0.00041  21416686.50745  21416684.26048
    -43060.31147         0.00041         0.00041         0.00041  21477164.55447
   -147051.79848   -114583.90445         0.00041  25222909.50645  25222907.37248
  -3568527.74648  -2780669.90846         0.00041  22205555.43146  22205550.61648
    584701.96548    455612.44344         0.00041  24765106.45144  24765102.50448
 97 06 19 15 57 00.0000000  0  8 02 04 05 07 09 16 24 26
   1955166.94748   1523505.86145         0.00041  22609838.87845  22609834.71448
  -2125736.85349  -1656416.84446         0.00041  20853400.06546  20853396.89749
   -576659.73648         0.00041         0.00041         0.00041  23815729.14848
   1923035.78748   1498469.94345         0.00041  21427512.88345  21427509.66848
    -85641.41348    -66734.16541         0.00041         0.00041  21469060.75448
   -195565.76548   -152390.61945         0.00041  25213678.12545  25213675.23748
  -3662800.29648  -2854129.00546         0.00041  22187615.77346  22187611.84948
    657873.21348    512628.94345         0.00041  24779032.96045  24779030.13448
 97 06 19 15 57 30.0000000  0  8 02 04 05 07 09 16 24 26
   2013178.68848   1568709.80045         0.00041  22620879.77145  22620874.09748
  -2172987.22649  -1693235.31147         0.00041  20844408.57647  20844405.96149
   -659143.47648         0.00041         0.00041         0.00041  23800031.92248
   1980055.01348   1542900.50545         0.00041  21438364.32145  21438361.05248
   -127760.37948    -99554.12941         0.00041         0.00041  21461047.17748
   -243859.29648   -190021.59845         0.00041  25204487.82045  25204485.73348
  -3756845.67149  -2927411.08646         0.00041  22169719.54146  22169716.14749
    731031.63148    569635.42744         0.00041  24792952.73844  24792951.98448
 97 06 19 15 58 00.0000000  0  8 02 04 05 07 09 16 24 26
   2071425.72348   1614097.06145         0.00041  22631962.66845  22631958.64948
  -2219727.12549  -1729656.00547         0.00041  20835514.61247  20835511.92249
   -741658.92348   -577915.02844         0.00041  23784333.27444  23784330.16448
   2037190.11248   1587421.33645         0.00041  21449236.74345  21449234.16948
   -169405.03848         0.00041         0.00041         0.00041  21453122.36448
   -291908.34148   -227460.94244         0.00041  25195345.74844  25195342.57748
  -3850628.46049  -3000488.55746         0.00041  22151873.50646  22151869.58549
    804193.17348    626644.35644         0.00041  24806877.07744  24806870.95348
 97 06 19 15 58 30.0000000  0  8 02 04 05 07 09 16 24 26
   2129939.42548   1659692.09445         0.00041  22643095.55045  22643093.21648
  -2265923.50349  -1765653.17247         0.00041  20826723.54247  20826721.17849
   -824164.69248   -642205.15344         0.00041  23768637.56144  23768630.81148
   2094458.25348   1632045.85145         0.00041  21460134.26945  21460131.89248
   -210546.80848         0.00041         0.00041         0.00041  21445293.71248
   -339675.16947   -264679.12544         0.00041  25186254.41344  25186251.98547
  -3944102.46249  -3073325.41646         0.00041  22134085.50446  22134081.87449
    877379.21348    683672.44444         0.00041  24820803.15744  24820798.88648
 97 06 19 15 59 00.0000000  0  8 02 04 05 07 09 16 24 26
   2188723.93748   1705498.15945         0.00041  22654282.23145  22654279.91948
  -2311579.19949  -1801229.02746         0.00041  20818035.33646  20818033.05549
   -906635.44748   -706468.03744         0.00041  23752938.07444  23752937.36948
   2151860.33348   1676774.72045         0.00041  21471056.54345  21471055.79848
   -251186.45747         0.00041         0.00041         0.00041  21437558.57647
   -387140.54247   -301662.53244         0.00041  25177219.26844  25177220.57847
  -4037259.42048  -3145915.23646         0.00041  22116358.03046  22116355.04948
    950584.24048    740715.28244         0.00041  24834732.93744  24834730.72348
 97 06 19 15 59 30.0000000  0  8 02 04 05 07 09 16 24 26
   2247739.24448   1751484.06045         0.00041  22665511.05045  22665508.98248
  -2356724.92949  -1836407.50746         0.00041  20809443.86846  20809441.63849
   -989107.09048   -770731.59444         0.00041  23737246.73744  23737242.64348
   2209346.62548   1721569.23445         0.00041  21481995.35045  21481994.91848
   -291363.85647         0.00041         0.00041         0.00041  21429911.53947
   -434335.22747   -338435.78541         0.00041         0.00041  25168240.31747
  -4130140.67948  -3218290.20446         0.00041  22098681.58246  22098680.50348
   1023757.33248    797733.22744         0.00041  24848656.01244  24848652.93348
 97 06 19 16 00 00.0000000  0  8 02 04 05 07 09 16 24 26
   2306976.81348   1797643.13445         0.00041  22676784.81345  22676781.76048
  -2401345.74949  -1871176.96446         0.00041  20800952.65446  20800950.65349
  -1071611.80048   -835020.94545         0.00041  23721545.16145  23721542.96748
   2266916.23948   1766428.67645         0.00041  21492952.21345  21492949.79548
   -331073.48747         0.00041         0.00041         0.00041  21422354.88247
   -481291.30847         0.00041         0.00041         0.00041  25159303.50347
  -4222760.28748  -3290461.29646         0.00041  22081056.17546  22081054.39648
   1096868.92048    854703.26444         0.00041  24862567.83144  24862566.17148
 97 06 19 16 00 30.0000000  0  8 02 04 05 07 09 16 24 26
   2366432.84948   1843972.43245         0.00041  22688099.63945  22688095.33248
  -2445435.88949  -1905532.90246         0.00041  20792562.41946  20792561.05949
  -1154164.22848   -899347.48445         0.00041  23705837.14945  23705833.82148
   2324572.73248   1811355.80245         0.00041  21503923.83745  21503921.18748
   -370304.38648         0.00041         0.00041         0.00041  21414892.50348
   -528007.24548   -411424.82641         0.00041         0.00041  25150411.99948
  -4315129.71648  -3362437.43646         0.00041  22063480.33046  22063476.34048
   1169902.50248    911612.53041         0.00041         0.00041  24876464.15848
 97 06 19 16 01 00.0000000  0  7 02 04 05 07 09 24 26
   2426150.46748   1890505.59646         0.00041  22699465.57446  22699460.16548
  -2488952.01949  -1939441.55346         0.00041  20784282.19746  20784280.69849
  -1236724.00948   -963679.75945         0.00041  23690126.48745  23690122.71948
   2382365.26548   1856388.92845         0.00041  21514920.92445  21514918.01048
   -409006.20448         0.00041         0.00041         0.00041  21407525.75648
  -4407208.29748  -3434186.95346         0.00041  22045959.41946  22045953.16548
   1242890.75948         0.00041         0.00041         0.00041  24890352.90548
 97 06 19 16 01 30.0000000  0  8 02 04 05 07 09 16 24 26
   2486185.09448   1937285.81646         0.00041  22710889.36346  22710883.94148
  -2531839.65949  -1972860.47846         0.00041  20776121.01246  20776119.08349
  -1319258.31148  -1027992.17445         0.00041  23674422.08445  23674416.66148
   2440349.16448   1901571.17745         0.00041  21525955.89845  21525952.37448
   -447121.72747         0.00041         0.00041         0.00041  21400270.76447
        -0.38358         0.49154         0.00051  25132803.58654  25132799.41858
  -4498937.66548  -3505664.36746         0.00041  22028504.01646  22028497.55548
   1315881.78448         0.00041         0.00041         0.00041  24904242.30048
 97 06 19 16 02 00.0000000  0  8 02 04 05 07 09 16 24 26
   2546536.30348   1984312.70546         0.00041  22722372.70746  22722367.60648
  -2574114.42149  -2005801.83746         0.00041  20768075.80346  20768074.54149
  -1401766.91948  -1092284.55245         0.00041  23658720.21645  23658716.00048
   2498525.87648   1946903.66045         0.00041  21537026.49645  21537021.68448
   -484664.15248         0.00041         0.00041         0.00041  21393128.12948
    -45799.04848    -35686.79944         0.00041  25124088.98144  25124084.54148
  -4590312.48548  -3576865.50846         0.00041  22011115.09446  22011111.93348
   1388875.28648         0.00041         0.00041         0.00041  24918133.21948
 97 06 19 16 02 30.0000000  0  8 02 04 05 07 09 16 24 26
   2607224.71048   2031602.35846         0.00041  22733920.56146  22733915.80948
  -2615759.18449  -2038252.28846         0.00041  20760151.10246  20760150.12849
  -1484202.58748  -1156520.13944         0.00041  23643033.16544  23643029.95548
   2556913.62348   1992400.57745         0.00041  21548138.38145  21548133.06848
   -521630.12748   -406465.62441         0.00041         0.00041  21386096.49048
    -91212.53548    -71073.92544         0.00041  25115450.85044  25115442.41148
  -4681305.11749  -3647768.83346         0.00041  21993799.11846  21993797.36449
   1461894.49748         0.00041         0.00041         0.00041  24932028.40248
 97 06 19 16 03 00.0000000  0  8 02 04 05 07 09 16 24 26
   2668192.47848   2079109.70345         0.00041  22745523.65945  22745519.12548
  -2656825.95549  -2070252.35546         0.00041  20752336.31246  20752335.25849
  -1566612.80548  -1220735.86944         0.00041  23627349.09644  23627347.84948
   2615468.00848   2038027.32945         0.00041  21559280.23845  21559276.26848
   -558092.41348         0.00041         0.00041         0.00041  21379156.01148
   -136286.53448   -106196.48344         0.00041  25106871.71244  25106865.06048
  -4771976.00949  -3718421.43646         0.00041  21976545.31946  21976543.73549
   1534882.84248         0.00041         0.00041         0.00041  24945915.10948
 97 06 19 16 03 30.0000000  0  8 02 04 05 07 09 16 24 26
   2729483.14848   2126868.64445         0.00041  22757187.22645  22757183.40048
  -2697264.57149  -2101762.95646         0.00041  20744641.45846  20744640.16149
  -1648953.18748  -1284897.23344         0.00041  23611680.27044  23611677.28548
   2674225.83848   2083812.61945         0.00041  21570460.96445  21570458.13348
   -593997.49848         0.00041         0.00041         0.00041  21372322.81748
   -180966.58348         0.00041         0.00041         0.00041  25098363.63848
  -4862284.56949  -3788791.70246         0.00041  21959361.16146  21959358.40949
   1607887.45048         0.00041         0.00041         0.00041  24959807.67748
 97 06 19 16 04 00.0000000  0  8 02 04 05 07 09 16 24 26
   2790911.81248   2174735.10946         0.00041  22768877.25946  22768872.43948
  -2737254.69349  -2132924.08547         0.00041  20737031.83447  20737030.38149
  -1731387.89948  -1349132.05444         0.00041  23595995.56044  23595990.26048
   2733012.53748   2129620.45045         0.00041  21581648.45945  21581645.15048
   -629513.31348   -490530.35844         0.00041  21365563.31244  21365566.50348
   -225420.39648         0.00041         0.00041         0.00041  25089903.25648
  -4952419.61849  -3859026.77146         0.00041  21942209.09046  21942205.74749
   1680731.65148         0.00041         0.00041         0.00041  24973670.11748
 97 06 19 16 04 30.0000000  0  8 02 04 05 07 09 16 24 26
   2852515.28448   2222737.77245         0.00041  22780600.27845  22780594.88248
  -2776752.34149  -2163701.47547         0.00041  20729515.75347  20729513.75949
  -1813880.99447  -1413412.36841         0.00041         0.00041  23580293.49247
   2791867.31748   2175481.30744         0.00041  21592849.31544  21592845.00048
   -664586.10848   -517859.84144         0.00041  21358891.72544  21358892.15448
   -269619.13548         0.00041         0.00041         0.00041  25081493.19548
  -5042333.13549  -3929089.22746         0.00041  21925099.14446  21925094.96349
   1753458.63348         0.00041         0.00041         0.00041  24987510.20048
 97 06 19 16 05 00.0000000  0  6 02 04 07 09 24 26
   2914321.65248   2270898.51845         0.00041  22792360.68345  22792356.38148
  -2815749.97749  -2194089.23647         0.00041  20722094.44547  20722092.17949
   2850795.28648   2221399.22944         0.00041  21604059.45244  21604058.83048
   -699172.71548   -544810.44144         0.00041  21352314.34944  21352310.85248
  -5131995.35648  -3998955.86446         0.00041  21908036.14146  21908032.25048
   1826106.30048   1422940.24941         0.00041         0.00041  25001336.00348
 97 06 19 16 05 30.0000000  0  6 02 04 07 09 24 26
   2976309.42048   2319200.63745         0.00041  22804155.33045  22804152.17248
  -2854281.10749  -2224113.48447         0.00041  20714762.25347  20714760.35449
   2909762.05948   2267347.35044         0.00041  21615281.97344  21615278.17648
   -733290.36748   -571395.60644         0.00041  21345826.16444  21345816.98048
  -5221400.55548  -4068622.22246         0.00041  21891022.42946  21891019.17448
   1898666.00648         0.00041         0.00041         0.00041  25015144.31448
 97 06 19 16 06 00.0000000  0  7 02 04 07 09 16 24 26
   3038590.39048   2367731.26845         0.00041  22816006.04345  22816003.17048
  -2892224.67949  -2253679.88847         0.00041  20707541.68147  20707540.02449
   2968895.47348   2313425.30144         0.00041  21626536.30244  21626531.37448
   -766835.91448   -597534.97044         0.00041  21339436.43244  21339431.97348
        -0.33657         0.00051         0.00051         0.00051  25056550.50857
  -5310406.07248  -4137977.13646         0.00041  21874084.99046  21874081.61748
   1971259.36648   1536046.35144         0.00041  25028961.52044  25028956.29848
 97 06 19 16 06 30.0000000  0  7 02 04 07 09 16 24 26
   3101138.55648   2416470.08045         0.00041  22827908.43145  22827906.38648
  -2929587.66449  -2282793.88747         0.00041  20700431.84347  20700430.17049
   3028159.33148   2359604.87744         0.00041  21637813.96044  21637810.63748
   -799838.37448   -623251.15444         0.00041  21333154.97844  21333151.24348
    -43078.78248         0.00041         0.00041         0.00041  25048353.88348
  -5399015.92348  -4207023.75946         0.00041  21857224.23646  21857219.72748
   2043852.45648   1592612.33041         0.00041         0.00041  25042770.99448
 97 06 19 16 07 00.0000000  0  7 02 04 05 07 09 24 26
   3164094.11048   2465526.31945         0.00041  22839888.82145  22839887.28448
  -2966219.52749  -2311338.18547         0.00041  20693461.14947  20693459.30849
        -0.59958         0.00051         0.00051         0.00051  23501777.82158
   3087690.56448   2405992.84444         0.00041  21649140.64044  21649136.35248
   -832166.52048   -648441.92644         0.00041  21327006.98344  21326999.90548
  -5487103.06748  -4275663.08646         0.00041  21840462.02146  21840456.42348
   2116571.76648   1649276.67144         0.00041  25056612.55844  25056610.91748
 97 06 19 16 07 30.0000000  0  7 02 04 05 07 09 24 26
   3227256.12648   2514743.41045         0.00041  22851907.86545  22851906.52648
  -3002296.74249  -2339450.29947         0.00041  20686595.95247  20686593.77449
    -82391.82648         0.00041         0.00041         0.00041  23486099.60848
   3147298.24448   2452440.39944         0.00041  21660482.80044  21660479.60648
   -864029.99848   -673270.58544         0.00041  21320941.23444  21320937.52848
  -5574878.12648  -4344059.23546         0.00041  21823759.33346  21823753.33748
   2189195.44048   1705866.40244         0.00041  25070430.08044  25070431.71348
 97 06 19 16 08 00.0000000  0  7 02 04 05 07 09 24 26
   3290595.58548   2564098.77545         0.00041  22863961.48745  22863959.60148
  -3037834.67649  -2367142.20247         0.00041  20679833.37347  20679830.75449
   -164836.72048   -128443.38641         0.00041         0.00041  23470407.86148
   3206938.74748   2498913.50844         0.00041  21671832.31444  21671829.61648
   -895457.94048   -697759.90444         0.00041  21314961.62644  21314956.39048
  -5662407.87648  -4412264.23446         0.00041  21807103.58446  21807097.30148
   2261667.93647   1762338.38841         0.00041         0.00041  25084222.93947
 97 06 19 16 08 30.0000000  0  6 02 04 05 07 09 24
   3354216.99248   2613673.84045         0.00041  22876067.81245  22876066.36048
  -3072735.80449  -2394337.89247         0.00041  20673191.81547  20673189.37949
   -247257.21848         0.00041         0.00041         0.00041  23454724.68748
   3266689.24648   2545472.31744         0.00041  21683203.04344  21683201.03148
   -926343.97748   -721826.99644         0.00041  21309079.60744  21309080.52348
  -5749619.28348  -4480221.16046         0.00041  21790507.25346  21790501.82348
 97 06 19 16 09 00.0000000  0  7 02 04 05 07 09 16 24
   3418143.56448   2663486.71146         0.00041  22888233.32346  22888230.97948
  -3106999.56449  -2421036.92947         0.00041  20666671.51047  20666669.14149
   -329653.41948         0.00041         0.00041         0.00041  23439046.31948
   3326571.83248   2592134.05245         0.00041  21694600.22745  21694597.17348
   -956670.39448   -745458.00844         0.00041  21303310.91144  21303310.33248
        -0.70757         0.00051         0.00051         0.00051  25008360.15057
  -5836498.97149  -4547919.59546         0.00041  21773973.62446  21773969.58449
 97 06 19 16 09 30.0000000  0  7 02 04 05 07 09 16 24
   3482387.84848   2713547.14446         0.00041  22900458.87246  22900456.25848
  -3140619.96649  -2447234.64347         0.00041  20660273.67647  20660271.44549
   -412007.31748   -321043.78341         0.00041         0.00041  23423373.45948
   3386603.81948   2638912.20745         0.00041  21706022.84145  21706020.33148
   -986404.11948   -768627.21144         0.00041  21297652.38644  21297651.34748
    -41789.36347         0.00041         0.00041         0.00041  25000535.64947
  -5923013.77749  -4615333.68446         0.00041  21757510.16246  21757507.49449
 97 06 19 16 10 00.0000000  0  6 02 04 05 07 09 24
   3546976.78748   2763876.14446         0.00041  22912750.79646  22912747.43648
  -3173588.87249  -2472924.68847         0.00041  20653999.65447  20653997.63349
   -494296.46248   -385165.13744         0.00041  23407716.06744  23407712.41848
   3446817.49848   2685831.93045         0.00041  21717480.75945  21717477.03348
  -1015509.49248   -791306.78044         0.00041  21292112.58444  21292112.23748
  -6009115.44649  -4682425.86146         0.00041  21741124.82746  21741122.75649
 97 06 19 16 10 30.0000000  0  7 02 04 05 07 09 16 24
   3611918.45848   2814479.99546         0.00041  22925108.51846  22925105.17048
  -3205902.68049  -2498104.27247         0.00041  20647850.60947  20647848.48549
   -576491.62748   -449213.28444         0.00041  23392074.73744  23392073.87348
   3507241.66448   2732915.68545         0.00041  21728980.75845  21728976.49748
  -1043970.27048   -813483.98344         0.00041  21286698.93244  21286696.88248
        -1.15058         0.00051         0.00051         0.00051  24985150.22158
  -6094755.40249  -4749158.26146         0.00041  21724828.61346  21724825.67149
 97 06 19 16 11 00.0000000  0  8 02 04 05 07 09 16 24 26
   3677199.48648   2865348.28446         0.00041  22937530.95646  22937527.75548
  -3237586.65449  -2522793.07347         0.00041  20641821.13647  20641819.17249
   -658579.55848   -513177.86344         0.00041  23376455.42544  23376452.60548
   3567875.74448   2780162.99445         0.00041  21740518.41145  21740514.69848
  -1071803.21848   -835172.02345         0.00041  21281402.72645  21281401.08048
    -39822.05148         0.00041         0.00041         0.00041  24977573.80148
  -6179942.94749  -4815538.13346         0.00041  21708617.55146  21708614.30749
        -0.33257         0.00051         0.00051         0.00051  25166836.52457
 97 06 19 16 11 30.0000000  0  8 02 04 05 07 09 16 24 26
   3742737.69348   2916416.94445         0.00041  22950001.89745  22949998.48848
  -3268727.80249  -2547058.89846         0.00041  20635895.64846  20635893.51849
   -740628.13948   -577111.81444         0.00041  23360842.08744  23360838.36748
   3628623.86948   2827499.17345         0.00041  21752076.56045  21752074.26648
  -1099091.70548   -856435.79945         0.00041  21276211.94945  21276208.22348
    -79317.20648         0.00041         0.00041         0.00041  24970057.35648
  -6264775.36549  -4881641.29246         0.00041  21692474.13346  21692470.76749
     72227.17947         0.00041         0.00041         0.00041  25180585.19347
 97 06 19 16 12 00.0000000  0  8 02 04 05 07 09 16 24 26
   3808470.84348   2967637.52845         0.00041  22962512.10245  22962506.86648
  -3299387.12949  -2570949.28146         0.00041  20630061.42346  20630059.37249
   -822688.94048   -641055.27445         0.00041  23345226.90445  23345223.78948
   3689423.90548   2874875.79546         0.00041  21763648.22746  21763643.95048
  -1125912.30548   -877334.97945         0.00041  21271106.55945  21271104.84748
   -118539.91948         0.00041         0.00041         0.00041  24962592.34148
  -6349322.62849  -4947522.24746         0.00041  21676385.92046  21676381.78049
    144298.24147         0.00041         0.00041         0.00041  25194299.43947
 97 06 19 16 12 30.0000000  0  8 02 04 05 07 09 16 24 26
   3874408.79548   3019017.69545         0.00041  22975060.29545  22975053.60248
  -3329541.37649  -2594446.08946         0.00041  20624323.02746  20624321.23849
   -904735.63448   -704987.73745         0.00041  23329613.36745  23329609.72648
   3750284.79448   2922299.83046         0.00041  21775229.78146  21775225.42648
  -1152252.36848   -897859.68745         0.00041  21266095.38445  21266092.17748
   -157454.93448   -122691.58844         0.00041  24955195.25144  24955188.28148
  -6433591.57448  -5013186.34246         0.00041  21660350.49546  21660345.64148
    216243.71548         0.00041         0.00041         0.00041  25207985.12348
 97 06 19 16 13 00.0000000  0  7 02 04 05 07 09 16 24
   3940567.10248   3070569.58845         0.00041  22987648.83245  22987642.77948
  -3359175.55749  -2617537.64846         0.00041  20618683.74546  20618681.77549
   -986778.48948   -768917.18645         0.00041  23314001.25545  23313996.72248
   3811215.69748   2969778.41446         0.00041  21786822.98846  21786820.66248
  -1178098.26548   -917999.30745         0.00041  21261177.08245  21261170.92748
   -196054.14848   -152768.86144         0.00041  24947847.58444  24947840.09248
  -6517585.70448  -5078636.30046         0.00041  21644366.96346  21644362.30848
 97 06 19 16 13 30.0000000  0  7 02 04 05 07 09 16 24
   4006898.82948   3122256.60045         0.00041  23000271.06145  23000265.93348
  -3388321.98649  -2640249.14146         0.00041  20613137.64946  20613135.46849
  -1068872.32848   -832886.39045         0.00041  23298379.58145  23298375.52548
   3872169.16948   3017274.61046         0.00041  21798422.97746  21798419.84148
  -1203489.35848   -937784.51644         0.00041  21256344.56544  21256339.55048
   -234377.31948   -182631.06344         0.00041  24940557.50044  24940549.74848
  -6601326.92949  -5143889.20046         0.00041  21628432.23546  21628427.45049
 97 06 19 16 14 00.0000000  0  8 02 04 05 07 09 16 24 26
   4073462.86948   3174124.64245         0.00041  23012938.32745  23012933.89748
  -3416895.86849  -2662514.50546         0.00041  20607700.63446  20607697.58049
  -1150954.22848   -896846.27545         0.00041  23282760.59145  23282756.62548
   3933216.80448   3064844.16946         0.00041  21810039.22446  21810036.74448
  -1228364.46848   -957167.69645         0.00041  21251610.18245  21251607.66348
   -272350.77248   -212220.75744         0.00041  24933330.75844  24933323.34848
  -6684733.06249  -5208880.98346         0.00041  21612560.22646  21612555.48249
        -0.27558         0.00051         0.00051         0.00051  25248927.92958
 97 06 19 16 14 30.0000000  0  8 02 04 05 07 09 16 24 26
   4140288.79448   3226196.75845         0.00041  23025654.07245  23025650.58748
  -3444862.96449  -2684307.05547         0.00041  20602378.73647  20602375.47249
  -1233013.99848   -960788.90944         0.00041  23267143.86944  23267140.74048
   3994377.35748   3112501.70546         0.00041  21821678.43946  21821676.01848
  -1252690.24748   -976122.84445         0.00041  21246981.57345  21246979.67248
   -309955.13148   -241522.85344         0.00041  24926171.59444  24926168.54948
  -6767773.31749  -5273587.66846         0.00041  21596757.81246  21596754.05549
     71564.17048         0.00041         0.00041         0.00041  25262545.28448
 97 06 19 16 15 00.0000000  0  8 02 04 05 07 09 16 24 26
   4207319.71248   3278428.60245         0.00041  23038409.46645  23038405.74948
  -3472292.44749  -2705680.68547         0.00041  20597159.26547  20597156.28249
  -1315129.13048  -1024774.62744         0.00041  23251516.56044  23251515.14248
   4055579.35548   3160191.56846         0.00041  21833323.99746  21833321.37448
  -1276535.90148   -994703.85145         0.00041  21242444.67745  21242440.58848
   -347271.15648   -270600.26844         0.00041  24919071.77544  24919066.66948
  -6850490.79749  -5338042.83646         0.00041  21581017.19646  21581013.58049
    142974.47648         0.00041         0.00041         0.00041  25276134.86848
 97 06 19 16 15 30.0000000  0  8 02 04 05 07 09 16 24 26
   4274564.91148   3330827.43345         0.00041  23051205.03545  23051201.81948
  -3499168.39949  -2726622.98547         0.00041  20592044.31347  20592041.98149
  -1397279.31948  -1088785.73046         0.00041  23235885.75746  23235882.29248
   4116825.39848   3207915.73346         0.00041  21844978.58046  21844976.29548
  -1299893.30948  -1012904.41144         0.00041  21237996.81244  21237994.69948
   -384275.02648   -299434.38944         0.00041  24912028.17044  24912024.94348
  -6932853.60749  -5402221.63246         0.00041  21565344.38946  21565340.96249
    214237.37648         0.00041         0.00041         0.00041  25289695.72748
 97 06 19 16 16 00.0000000  0  7 02 04 05 07 09 24 26
   4342274.67948   3383588.24545         0.00041  23064090.54945  23064087.05448
  -3525240.80649  -2746939.13947         0.00041  20587082.10947  20587080.60749
  -1479219.71748  -1152642.35245         0.00041  23220293.71245  23220289.51648
   4178370.87248   3255873.21546         0.00041  21856690.33246  21856688.01648
  -1322509.32848  -1030527.31044         0.00041  21233694.09244  21233692.56848
  -7014618.55949  -5465934.55946         0.00041  21549784.38146  21549781.10949
    285598.76848         0.00041         0.00041         0.00041  25303273.49648
 97 06 19 16 16 30.0000000  0  7 02 04 05 07 09 24 26
   4410206.51448   3436522.07645         0.00041  23077018.51045  23077015.33948
  -3550775.61749  -2766836.38146         0.00041  20582223.09346  20582221.81049
  -1561200.29148         0.00041         0.00041         0.00041  23204688.55548
   4239970.13848   3303872.64446         0.00041  21868412.85146  21868409.79848
  -1344624.36148  -1047759.83145         0.00041  21229485.39145  21229484.89548
  -7096026.66949  -5529369.42646         0.00041  21534293.54846  21534290.05849
    356798.95548         0.00041         0.00041         0.00041  25316822.03748
 97 06 19 16 17 00.0000000  0  8 02 04 05 07 09 16 24 26
   4478375.65548   3489640.79245         0.00041  23089990.15745  23089988.16748
  -3575758.55349  -2786303.58646         0.00041  20577468.97346  20577467.39249
  -1643201.36748         0.00041         0.00041         0.00041  23189085.99748
   4301635.35048   3351923.45046         0.00041  21880147.91246  21880144.79248
  -1366224.03048  -1064590.78045         0.00041  21225375.84545  21225373.02448
        -0.55758        -0.22254         0.00051  24891421.62554  24891418.49058
  -7177052.43649  -5592506.36346         0.00041  21518874.39946  21518871.18849
    427859.53948         0.00041         0.00041         0.00041  25330344.69148
 97 06 19 16 17 30.0000000  0  7 02 04 07 09 16 24 26
   4546803.18648   3542960.87045         0.00041  23103010.97245  23103009.24648
  -3600148.77349  -2805308.93646         0.00041  20572827.89946  20572826.03549
   4363394.67848   3400047.59846         0.00041  21891899.88146  21891897.43448
  -1387267.40748  -1080988.18745         0.00041  21221373.75945  21221369.67548
    -35391.54848    -27577.61344         0.00041  24884687.06944  24884682.68748
  -7257679.50349  -5655332.61746         0.00041  21503531.58346  21503528.38049
    498823.62748    388693.84041         0.00041         0.00041  25343849.48548
 97 06 19 16 18 00.0000000  0  7 02 04 07 09 16 24 26
   4615461.83448   3596461.04546         0.00041  23116077.86146  23116074.57348
  -3623976.94849  -2823876.33047         0.00041  20568293.88047  20568291.81849
   4425216.77948   3448220.64546         0.00041  21903664.19246  21903660.47548
  -1407774.29948  -1096967.57245         0.00041  21217470.44845  21217468.45248
    -70452.33948    -54897.66744         0.00041  24878016.61944  24878010.98148
  -7337954.52449  -5717884.55246         0.00041  21488255.86046  21488251.85649
    569642.39548    443877.33741         0.00041         0.00041  25357326.53048
 97 06 19 16 18 30.0000000  0  8 02 04 05 07 09 16 24 26
   4682601.38448   3648777.51246         0.00041  23128854.14846  23128850.26048
  -3648986.17749  -2843364.02847         0.00041  20563534.83247  20563532.63549
        -1.11557         0.00051         0.00051         0.00051  23141953.11257
   4485341.39048   3495070.98445         0.00041  21915105.02545  21915101.95348
  -1429500.31948  -1113896.93344         0.00041  21213334.47044  21213332.53848
   -106955.58048    -83341.67744         0.00041  24871068.62344  24871064.41648
  -7419623.12749  -5781522.42046         0.00041  21472715.57546  21472710.27149
    638548.15447         0.00041         0.00041         0.00041  25370439.10047
 97 06 19 16 19 00.0000000  0  8 02 04 05 07 09 16 24 26
   4749026.42548   3700537.23245         0.00041  23141495.43245  23141489.93148
  -3674350.40549  -2863128.34947         0.00041  20558708.24047  20558705.64749
    -84642.81748    -65954.85944         0.00041  23125853.05844  23125847.26248
   4544567.47448   3541221.16445         0.00041  21926376.20445  21926372.19748
  -1451637.55548  -1131146.74344         0.00041  21209120.85644  21209120.51648
   -144088.99448   -112276.81144         0.00041  24864001.38644  24863998.90448
  -7501893.42149  -5845629.14146         0.00041  21457060.03246  21457054.95149
    706353.88747         0.00041         0.00041         0.00041  25383340.08347
 97 06 19 16 19 30.0000000  0  8 02 04 05 07 09 16 24 26
   4816537.44448   3753143.17645         0.00041  23154342.49145  23154336.07348
  -3698269.87449  -2881766.88947         0.00041  20554156.58047  20554153.89649
   -168399.83048   -131220.08144         0.00041  23109910.51944  23109910.68748
   4604721.73348   3588094.57445         0.00041  21937823.29745  21937820.23448
  -1472372.49648  -1147303.86144         0.00041  21205177.87344  21205174.70248
   -180021.17948   -140275.93144         0.00041  24857163.18344  24857159.16848
  -7582967.61949  -5908803.83546         0.00041  21441631.62946  21441627.86149
    774863.55047         0.00041         0.00041         0.00041  25396378.89147
 97 06 19 16 20 00.0000000  0  7 02 04 05 07 09 16 24
   4885743.09748   3807069.63745         0.00041  23167510.80045  23167506.11148
  -3720148.33649  -2898815.03847         0.00041  20549992.97747  20549990.95249
   -250678.94248   -195333.70344         0.00041  23094253.98244  23094252.23648
   4666413.26748   3636165.88245         0.00041  21949562.82745  21949559.71248
  -1491111.99748  -1161906.09545         0.00041  21201611.72245  21201608.42148
   -214139.08848   -166861.30444         0.00041  24850672.60544  24850665.33948
  -7662223.32949  -5970561.52246         0.00041  21426549.44646  21426546.93149
 97 06 19 16 20 30.0000000  0  7 02 04 05 07 09 16 24
   4955675.29148   3861562.22744         0.00041  23180818.45844  23180814.13948
  -3740966.06949  -2915036.64347         0.00041  20546031.57847  20546029.41749
   -332460.11748   -259059.27744         0.00041  23078696.27044  23078690.92048
   4728672.24848   3684679.33945         0.00041  21961408.31645  21961407.58048
  -1508826.73448  -1175709.79145         0.00041  21198240.31345  21198236.66048
   -247395.81948   -192775.63544         0.00041  24844343.10444  24844337.23548
  -7740627.15149  -6031655.39346         0.00041  21411628.71446  21411626.25449
 97 06 19 16 21 00.0000000  0  7 02 04 05 07 09 16 24
   5026422.01648   3916689.51044         0.00041  23194278.33344  23194275.18348
  -3760651.40049  -2930375.85647         0.00041  20542285.32947  20542283.42549
   -413647.96348   -322322.52244         0.00041  23063246.00244  23063242.31048
   4791593.55548   3733708.87045         0.00041  21973382.62645  21973380.76848
  -1525419.67348  -1188639.38145         0.00041  21195083.89245  21195079.72548
   -279683.78748   -217935.09444         0.00041  24838198.84944  24838193.94848
  -7818101.77949  -6092025.21246         0.00041  21396885.53146  21396883.27049
 97 06 19 16 21 30.0000000  0  7 02 04 05 07 09 16 24
   5097682.77848   3972217.31844         0.00041  23207840.05244  23207836.38648
  -3779509.31149  -2945070.32646         0.00041  20538697.02146  20538694.92949
   -494538.79048   -385354.31844         0.00041  23047847.08544  23047846.90048
   4854876.98248   3783020.57845         0.00041  21985424.64745  21985422.11348
  -1541200.27148  -1200935.97945         0.00041  21192080.17145  21192076.77348
   -311302.64448   -242573.16841         0.00041         0.00041  24832177.53248
  -7894924.01149  -6151886.67046         0.00041  21382267.16546  21382264.87649
 97 06 19 16 22 00.0000000  0  8 02 04 05 07 09 16 24 26
   5169876.55948   4028472.15545         0.00041  23221578.74645  23221575.58948
  -3797123.72149  -2958795.83546         0.00041  20535344.90046  20535343.01649
   -574715.07948   -447829.31744         0.00041  23032597.52944  23032591.42848
   4918909.40048   3832915.93045         0.00041  21997610.99145  21997607.04948
  -1555775.39448  -1212293.22745         0.00041  21189305.22645  21189302.82748
   -341857.72848   -266382.32944         0.00041  24826372.18144  24826363.74248
  -7970675.03349  -6210913.41846         0.00041  21367852.79846  21367849.87349
        -0.12857         0.00051         0.00051         0.00051  25463496.80257
 97 06 19 16 22 30.0000000  0  8 02 04 05 07 09 16 24 26
   5242121.36048   4084766.71445         0.00041  23235326.85245  23235323.82848
  -3814359.91149  -2972226.63246         0.00041  20532064.51246  20532062.65549
   -655036.54848   -510417.47941         0.00041         0.00041  23017307.16748
   4982814.38148   3882711.97945         0.00041  22009771.09345  22009767.89048
  -1570024.07748  -1223396.10145         0.00041  21186596.01945  21186591.73248
   -372231.99348   -290050.53344         0.00041  24820588.07644  24820583.98448
  -8046241.94749  -6269796.70246         0.00041  21353473.37246  21353469.78749
     71010.31448         0.00041         0.00041         0.00041  25477010.43748
 97 06 19 16 23 00.0000000  0  8 02 04 05 07 09 16 24 26
   5314273.36748   4140989.01345         0.00041  23249056.84845  23249054.91748
  -3831339.77249  -2985457.68346         0.00041  20528833.62446  20528831.92749
   -735629.80248   -573217.37344         0.00041  23001971.69644  23001968.61048
   5046452.00048   3932299.71046         0.00041  22021881.39546  22021878.21248
  -1584087.84548  -1234354.91645         0.00041  21183918.80145  21183916.18848
   -402564.60348   -313686.31644         0.00041  24814817.32644  24814811.37148
  -8121746.61349  -6328631.48946         0.00041  21339105.90146  21339100.93349
    141561.18348         0.00041         0.00041         0.00041  25490436.50948
 97 06 19 16 23 30.0000000  0  6 02 04 05 07 09 24
   5386218.04248   4197049.75445         0.00041  23262747.49145  23262744.33548
  -3848163.11949  -2998566.77646         0.00041  20525632.00446  20525630.55249
   -816608.29348   -636317.51241         0.00041         0.00041  22986560.13848
   5109711.23248   3981592.59246         0.00041  22033919.36846  22033916.49648
  -1598076.14548  -1245254.89645         0.00041  21181255.46845  21181254.19548
  -8197285.40749  -6387492.88546         0.00041  21324731.07546  21324726.21449
 97 06 19 16 24 00.0000000  0  7 02 04 05 07 09 16 24
   5458060.39448   4253030.76345         0.00041  23276416.72145  23276414.33848
  -3864730.53449  -3011476.43946         0.00041  20522479.95446  20522478.17649
   -897867.07748   -699636.03241         0.00041         0.00041  22971098.88948
   5172698.75348   4030673.77346         0.00041  22045904.90546  22045902.67648
  -1611866.21148  -1256000.39745         0.00041  21178632.41845  21178629.67948
        -0.97358        -0.56154         0.00051  24803247.73354  24803243.66358
  -8272764.77249  -6446307.95946         0.00041  21310367.49546  21310363.20749
 97 06 19 16 24 30.0000000  0  7 02 04 05 07 09 16 24
   5530496.83748   4309474.69844         0.00041  23290202.61044  23290199.42748
  -3880334.85049  -3023635.63946         0.00041  20519510.71246  20519508.46249
   -978720.68148   -762638.82641         0.00041         0.00041  22955711.25548
   5236122.77448   4080095.08946         0.00041  22057974.66246  22057972.10248
  -1624730.53748  -1266024.55645         0.00041  21176183.94145  21176181.54948
    -29636.15848    -23092.89844         0.00041  24797610.21344  24797604.33048
  -8347472.68049  -6504521.89646         0.00041  21296151.18246  21296147.38349
 97 06 19 16 25 00.0000000  0  7 02 04 05 07 09 16 24
   5603580.25948   4366422.77344         0.00041  23304112.75344  23304106.34348
  -3894946.58049  -3035021.40346         0.00041  20516730.18746  20516727.87749
  -1059130.96447         0.00041         0.00041         0.00041  22940407.95247
   5300027.70448   4129891.14646         0.00041  22070135.67446  22070132.21648
  -1636608.61548  -1275280.22945         0.00041  21173922.92845  21173921.64448
    -58231.42548    -45374.42241         0.00041         0.00041  24792116.38048
  -8421352.43149  -6562090.51846         0.00041  21282091.84446  21282088.33049
 97 06 19 16 25 30.0000000  0  6 02 04 07 09 16 24
   5677337.10948   4423895.54344         0.00041  23318145.96744  23318142.63848
  -3908550.94549  -3045622.20246         0.00041  20514141.55546  20514139.15249
   5364431.99248   4180076.31246         0.00041  22082391.34346  22082387.75848
  -1647488.91448  -1283758.43145         0.00041  21171852.18145  21171851.50248
    -85511.33148         0.00041         0.00041         0.00041  24786784.07248
  -8494399.05349  -6619009.94846         0.00041  21268191.91046  21268188.29449
 97 06 19 16 26 00.0000000  0  4 04 07 09 24
  -3921806.93349  -3055951.54147         0.00041  20511618.97547  20511616.84149
   5428664.46948   4230127.59846         0.00041  22094614.32146  22094611.12048
  -1658040.60448  -1291980.56145         0.00041  21169844.32045  21169843.10948
  -8567273.80049  -6675795.44946         0.00041  21254324.04946  21254320.87749
 97 06 19 16 26 30.0000000  0  6 02 04 07 09 16 24
        -0.24358         1.01255         0.00051  23346259.30655  23346256.08958
  -3934556.93949  -3065886.60947         0.00041  20509192.59747  20509190.64549
   5492884.22448   4280168.94946         0.00041  22106835.27646  22106830.40348
  -1668108.24648  -1299825.48645         0.00041  21167930.71345  21167926.41348
        -0.23358        -0.46854         0.00051  24776243.37854  24776239.00758
  -8639815.95649  -6732321.79346         0.00041  21240519.88446  21240516.76549
 97 06 19 16 27 00.0000000  0  6 02 04 07 09 16 24
     73602.80148     57353.99545         0.00041  23360266.56145  23360262.03548
  -3947341.90849  -3075848.92147         0.00041  20506759.82647  20506757.79349
   5556550.34848   4329778.90846         0.00041  22118949.95346  22118947.09148
  -1678242.20448  -1307722.09246         0.00041  21166002.38946  21165998.75948
    -27759.34848    -21630.92044         0.00041  24770960.45544  24770956.02348
  -8712583.23849  -6789023.55746         0.00041  21226672.48146  21226669.26949
 97 06 19 16 27 30.0000000  0  6 02 04 07 09 16 24
    147353.02448    114821.63445         0.00041  23374301.38545  23374296.83348
  -3959631.91549  -3085425.55347         0.00041  20504420.94247  20504419.05849
   5620178.57548   4379359.33646         0.00041  22131058.49746  22131054.61048
  -1687932.10848  -1315272.68846         0.00041  21164158.51746  21164155.40948
    -55211.15448    -43021.88344         0.00041  24765737.96044  24765730.08148
  -8785065.33549  -6845503.10046         0.00041  21212879.63146  21212876.51249
 97 06 19 16 28 00.0000000  0  5 02 04 07 09 24
    220581.47148    171882.67845         0.00041  23388236.65045  23388232.95648
  -3972092.06249  -3095134.76047         0.00041  20502049.77147  20502048.04049
   5683105.64148   4428393.39946         0.00041  22143032.54246  22143029.39348
  -1697821.31748  -1322978.57446         0.00041  21162276.19946  21162273.63848
  -8857913.51649  -6902267.90946         0.00041  21199016.88046  21199013.61949
 97 06 19 16 28 30.0000000  0  5 02 04 07 09 24
    293119.59348    228405.82745         0.00041  23402039.26845  23402036.41748
  -3984890.81349  -3105107.81247         0.00041  20499614.20347  20499612.42549
   5745164.48448   4476750.94046         0.00041  22154842.59046  22154838.46448
  -1708074.74148  -1330968.27446         0.00041  21160325.74746  21160322.21448
  -8931295.83549  -6959448.93046         0.00041  21185052.41846  21185048.71449
 97 06 19 16 29 00.0000000  0  5 02 04 07 09 24
    366624.09848    285682.01245         0.00041  23416025.44945  23416022.98248
  -3996347.99349  -3114035.47747         0.00041  20497434.01847  20497432.15649
   5808018.57648   4525728.11146         0.00041  22166802.78646  22166799.49548
  -1717035.22948  -1337950.48546         0.00041  21158620.50346  21158616.92948
  -9003541.43849  -7015744.19746         0.00041  21171304.77146  21171300.89949
 97 06 19 16 29 30.0000000  0  5 02 04 07 09 24
    440438.71948    343199.84345         0.00041  23430074.39145  23430069.40148
  -4007142.32549  -3122446.64047         0.00041  20495379.91447  20495378.06049
   5870994.28448   4574800.06446         0.00041  22178786.78446  22178783.62348
  -1725379.16248  -1344452.26546         0.00041  21157032.46746  21157029.26848
  -9075301.78549  -7071661.34346         0.00041  21157649.49346  21157645.14149
 97 06 19 16 30 00.0000000  0  6 02 04 05 07 09 24
    514279.78748    400738.30544         0.00041  23444123.23844  23444121.26948
  -4017564.73249  -3130567.99247         0.00041  20493396.49147  20493394.46449
        -0.42057         0.00051         0.00051         0.00051  22786135.54857
   5933801.86048   4623741.01346         0.00041  22190738.98446  22190735.29048
  -1733393.86448  -1350697.48746         0.00041  21155507.75346  21155504.58448
  -9146848.45649  -7127411.99046         0.00041  21144034.58246  21144031.14049
 97 06 19 16 30 30.0000000  0  6 02 04 05 07 09 24
    587714.53948    457960.16044         0.00041  23458099.47044  23458095.56648
  -4028042.55149  -3138732.52247         0.00041  20491402.79147  20491400.56249
    -82277.39247         0.00041         0.00041         0.00041  22770479.76947
   5996023.54148   4672225.42946         0.00041  22202579.85246  22202576.71648
  -1741524.58148  -1357033.12346         0.00041  21153959.86146  21153956.73548
  -9218603.03849  -7183324.64646         0.00041  21130380.34946  21130376.98849
 97 06 19 16 31 00.0000000  0  5 02 04 07 09 24
    661340.98248    515331.37944         0.00041  23472110.07644  23472105.91148
  -4037968.57049  -3146467.08147         0.00041  20489513.60447  20489511.47049
   6058279.69748   4720736.71346         0.00041  22214426.21246  22214423.64348
  -1749155.50748  -1362979.29846         0.00041  21152507.74646  21152504.52848
  -9289942.88249  -7238914.13046         0.00041  21116804.50846  21116801.04649
 97 06 19 16 31 30.0000000  0  6 02 04 07 09 16 24
    735488.93948    573108.94045         0.00041  23486218.82145  23486215.50048
  -4047030.40549  -3153528.24947         0.00041  20487789.28847  20487787.43049
   6120901.31448   4769532.78346         0.00041  22226342.65046  22226339.64648
  -1755958.76348  -1368280.54046         0.00041  21151213.40146  21151209.39748
        -0.58358        -0.17654         0.00051  24724801.02854  24724795.16258
  -9360530.54349  -7293917.49746         0.00041  21103372.42746  21103368.65549
 97 06 19 16 32 00.0000000  0  6 02 04 07 09 16 24
    809774.31448    630993.58045         0.00041  23500354.33945  23500351.27148
  -4055592.75049  -3160200.20447         0.00041  20486160.15847  20486158.28649
   6183518.98248   4818325.76746         0.00041  22238259.07046  22238255.55148
  -1762305.92248  -1373226.37046         0.00041  21150006.12646  21150002.19248
    -25400.79448         0.00041         0.00041         0.00041  24719960.24848
  -9430753.98549  -7348637.05346         0.00041  21090008.78546  21090005.03949
 97 06 19 16 32 30.0000000  0  6 02 04 07 09 16 24
    884166.61348    688961.53544         0.00041  23514512.34344  23514507.57348
  -4063685.88449  -3166506.54147         0.00041  20484620.00147  20484618.09449
   6246095.29748   4867086.49546         0.00041  22250167.05646  22250163.85248
  -1768230.08648  -1377842.59546         0.00041  21148878.33146  21148875.08948
    -50517.88648    -39364.36141         0.00041         0.00041  24715182.51348
  -9500657.49649  -7403107.30146         0.00041  21076706.39446  21076703.03649
 97 06 19 16 33 00.0000000  0  6 02 04 07 09 16 24
    958707.53948    747045.32044         0.00041  23528696.25044  23528693.41648
  -4071277.60549  -3172422.16647         0.00041  20483175.50147  20483173.47049
   6308650.70248   4915830.92746         0.00041  22262070.39346  22262067.44248
  -1773684.18149  -1382092.55246         0.00041  21147839.68346  21147837.27749
    -75313.95548    -58685.95344         0.00041  24710468.96244  24710464.83548
  -9570216.42149  -7457309.03646         0.00041  21063469.92646  21063466.53549
 97 06 19 16 33 30.0000000  0  6 02 04 07 09 16 24
   1034241.81048         0.00041         0.00041         0.00041  23543066.10048
  -4077541.19349  -3177302.88147         0.00041  20481983.51447  20481981.83749
   6371991.19448   4965187.08846         0.00041  22274123.27946  22274120.31248
  -1777839.51449  -1385330.51046         0.00041  21147048.16346  21147047.36149
    -98934.83348    -77091.79044         0.00041  24705973.82344  24705970.23048
  -9638618.99549  -7510609.70446         0.00041  21050453.76446  21050450.59949
 97 06 19 16 34 00.0000000  0  6 02 04 07 09 16 24
   1111178.04948    865853.29641         0.00041         0.00041  23557705.94548
  -4082071.22349  -3180832.76647         0.00041  20481121.37047  20481119.69049
   6436517.26848   5015467.10745         0.00041  22286401.78545  22286399.45848
  -1780276.22749  -1387229.28446         0.00041  21146584.63246  21146583.49649
   -120961.12648    -94255.11044         0.00041  24701786.61444  24701778.17448
  -9705470.01749  -7562701.37446         0.00041  21037732.60546  21037729.42749
 97 06 19 16 34 30.0000000  0  6 02 04 07 09 16 24
   1188484.65248    926092.04544         0.00041  23572424.91744  23572417.57048
  -4085909.93849  -3183823.95647         0.00041  20480390.82647  20480388.69149
   6501191.30648   5065862.42545         0.00041  22298709.49945  22298706.47848
  -1782020.60749  -1388588.55446         0.00041  21146252.59346  21146250.85249
   -142441.35848   -110992.94044         0.00041  24697693.03344  24697691.20548
  -9771779.00449  -7614370.68746         0.00041  21025113.97346  21025110.73749
 97 06 19 16 35 00.0000000  0  6 02 04 07 09 16 24
   1266829.07648    987139.57444         0.00041  23587337.80844  23587326.63948
  -4088390.57649  -3185756.91147         0.00041  20479918.62247  20479916.10849
   6566685.40348   5116896.76846         0.00041  22311173.11046  22311169.51448
  -1782402.17049  -1388885.88146         0.00041  21146179.99646  21146177.94349
   -162693.94348   -126774.12044         0.00041  24693837.44744  24693837.51048
  -9836860.39849  -7665083.43746         0.00041  21012729.24646  21012725.83449
 97 06 19 16 35 30.0000000  0  6 02 04 07 09 16 24
   1345948.27248   1048790.81844         0.00041  23602387.76744  23602383.11248
  -4089762.76049  -3186826.14647         0.00041  20479657.74447  20479655.36349
   6632750.40648   5168375.98146         0.00041  22323745.12946  22323741.34548
  -1781680.74449  -1388323.72546         0.00041  21146318.44946  21146315.22649
   -181970.38648   -141794.67444         0.00041  24690168.23144  24690168.15048
  -9900953.66149  -7715026.22246         0.00041  21000532.79546  21000528.99449
 97 06 19 16 36 00.0000000  0  5 02 04 07 09 24
   1425555.02448   1110822.01344         0.00041  23617535.45344  23617532.50248
  -4090289.36349  -3187236.48547         0.00041  20479557.41847  20479555.42949
   6699134.70548   5220103.99846         0.00041  22336377.29246  22336372.91348
  -1780134.93949  -1387119.21446         0.00041  21146612.30846  21146609.45749
  -9964309.03849  -7764394.04646         0.00041  20988476.89446  20988472.87449
 97 06 19 16 36 30.0000000  0  6 02 04 07 09 16 24
   1505738.33348   1173302.51644         0.00041  23632793.86844  23632789.53448
  -4089863.21149  -3186904.41447         0.00041  20479638.58047  20479636.43849
   6765934.63348   5272155.87646         0.00041  22349088.74946  22349085.05248
  -1777676.04349  -1385203.20646         0.00041  21147080.01446  21147078.00349
        -0.96658         0.00051         0.00051         0.00051  24683243.66058
 -10026827.83149  -7813109.98746         0.00041  20976579.88246  20976575.84049
 97 06 19 16 37 00.0000000  0  6 02 04 07 09 16 24
   1586090.26348   1235914.35044         0.00041  23648085.28744  23648081.08648
  -4088895.35549  -3186150.24247         0.00041  20479822.65947  20479820.51049
   6832734.23848   5324207.48846         0.00041  22361800.67146  22361795.80248
  -1774721.04649  -1382900.63246         0.00041  21147642.50446  21147640.65449
    -17414.07648         0.00041         0.00041         0.00041  24679928.46548
 -10088946.95149  -7861514.49146         0.00041  20964758.70246  20964754.85449
 97 06 19 16 37 30.0000000  0  5 02 04 07 09 24
   1666114.05548   1298270.46444         0.00041  23663311.33044  23663308.94648
  -4087883.96249  -3185362.14447         0.00041  20480015.14047  20480012.74249
   6899033.41048   5375869.15046         0.00041  22374416.64646  22374413.39148
  -1771778.15449  -1380607.48046         0.00041  21148202.78646  21148199.95649
 -10151174.85249  -7910003.75046         0.00041  20952916.50146  20952913.15949
 97 06 19 16 38 00.0000000  0  6 02 04 07 09 16 24
   1745785.15048   1360351.77344         0.00041  23678472.08544  23678468.33248
  -4086867.81149  -3184570.33647         0.00041  20480208.54347  20480206.26849
   6964798.32348   5427114.52846         0.00041  22386931.78246  22386928.58648
  -1768886.26149  -1378354.06946         0.00041  21148753.49246  21148750.52649
        -0.64658         0.00051         0.00051         0.00051  24673233.67258
 -10213559.67549  -7958615.28346         0.00041  20941045.60046  20941041.79549
 97 06 19 16 38 30.0000000  0  6 02 04 07 09 16 24
   1825390.05848   1422381.48044         0.00041  23693623.46344  23693617.19848
  -4085575.74949  -3183563.53147         0.00041  20480454.45347  20480452.49549
   7030283.63148   5478142.02946         0.00041  22399393.66246  22399390.27048
  -1765765.33149  -1375922.18446         0.00041  21149347.30946  21149344.96649
    -17530.77448         0.00041         0.00041         0.00041  24669897.95848
 -10275836.24049  -8007142.46346         0.00041  20929195.02446  20929190.67449
 97 06 19 16 39 00.0000000  0  6 02 04 07 09 16 24
   1905181.33348   1484556.42644         0.00041  23708806.09444  23708801.59848
  -4083755.96549  -3182145.50947         0.00041  20480800.82847  20480799.02949
   7095741.36148   5529148.04446         0.00041  22411849.49346  22411846.22448
  -1762170.34849  -1373120.90746         0.00041  21150031.12946  21150028.53349
    -34667.50548         0.00041         0.00041         0.00041  24666636.57548
 -10337736.28249  -8055376.24846         0.00041  20917415.87246  20917411.68149
 97 06 19 16 39 30.0000000  0  6 02 04 07 09 16 24
   1984552.41948   1546403.96744         0.00041  23723910.41344  23723905.76748
  -4082001.04449  -3180778.03347         0.00041  20481134.91247  20481133.22749
   7160579.21848   5579671.01645         0.00041  22424187.57345  22424183.39348
  -1758699.49149  -1370416.35046         0.00041  21150690.95146  21150688.57649
    -52005.01748         0.00041         0.00041         0.00041  24663337.73448
 -10399836.09149  -8103765.70246         0.00041  20905598.71046  20905594.43649
 97 06 19 16 40 00.0000000  0  6 02 04 07 09 16 24
   2060907.57448   1605901.37944         0.00041  23738441.84744  23738433.65648
  -4082900.77149  -3181479.11647         0.00041  20480963.85347  20480962.18749
   7222207.17748   5627692.78245         0.00041  22435914.96545  22435911.36248
  -1757925.05049  -1369812.91846         0.00041  21150838.49446  21150835.77849
    -72152.88748    -56222.81641         0.00041         0.00041  24659504.47048
 -10464717.62449  -8154322.72846         0.00041  20893252.17046  20893248.54049
 97 06 19 16 40 30.0000000  0  5 02 04 07 09 24
   2135716.58948   1664193.99945         0.00041  23752676.82445  23752671.10248
  -4084979.98549  -3183099.28647         0.00041  20480568.08547  20480566.24249
   7282094.44748   5674358.15445         0.00041  22447310.89845  22447307.51948
  -1758362.95349  -1370154.17346         0.00041  21150754.97346  21150752.47849
 -10530889.48149  -8205885.19947         0.00041  20880659.97047  20880656.75049
 97 06 19 16 41 00.0000000  0  6 02 04 07 09 16 24
   2209728.15648   1721865.25645         0.00041  23766761.18145  23766755.57548
  -4087491.33749  -3185056.18747         0.00041  20480090.15847  20480088.05349
   7341021.93648   5720275.65145         0.00041  22458523.92845  22458520.69948
  -1759259.51449  -1370852.81446         0.00041  21150584.25946  21150582.02349
        -0.63258        -0.53254         0.00051  24651207.58654  24651203.61558
 -10597586.26049  -8257856.69547         0.00041  20867968.35047  20867964.79249
 97 06 19 16 41 30.0000000  0  6 02 04 07 09 16 24
   2282732.90248   1778751.99145         0.00041  23780654.60645  23780648.15648
  -4090653.91549  -3187520.53247         0.00041  20479488.24447  20479486.14049
   7398775.32448   5765278.28045         0.00041  22469515.91245  22469510.39848
  -1760817.44049  -1372066.80246         0.00041  21150288.43346  21150285.55549
    -22920.87348    -17860.45144         0.00041  24646846.24944  24646842.92748
 -10665026.61149  -8310407.60247         0.00041  20855134.66547  20855131.16749
 97 06 19 16 42 00.0000000  0  5 04 07 09 16 24
  -4093526.88149  -3189759.20447         0.00041  20478941.67747  20478939.49549
   7456295.21548   5810098.92244         0.00041  22480461.16444  22480455.91948
  -1762081.20649  -1373051.57546         0.00041  21150047.92446  21150045.47349
    -45695.51948    -35606.90545         0.00041  24642515.45345  24642509.97548
 -10732272.69849  -8362807.14147         0.00041  20842338.04847  20842334.66849
 97 06 19 16 42 30.0000000  0  5 04 07 09 16 24
  -4095664.45449  -3191424.84047         0.00041  20478534.83447  20478533.00849
   7514038.96048   5855094.03044         0.00041  22491447.96044  22491445.20948
  -1762602.54349  -1373457.82246         0.00041  21149948.84746  21149945.85549
    -67844.13248    -52865.57244         0.00041  24638299.66644  24638293.54948
 -10798887.97449  -8414715.13847         0.00041  20829661.60547  20829658.45149
 97 06 19 16 43 00.0000000  0  6 02 04 07 09 16 24
        -0.10558        -0.02754         0.00051  23822633.72454  23822632.18458
  -4096464.12949  -3192047.95747         0.00041  20478382.79547  20478380.94549
   7572606.70148   5900731.18444         0.00041  22502593.19444  22502590.87548
  -1761795.71949  -1372829.14646         0.00041  21150102.15246  21150099.38549
    -88743.56348    -69150.82244         0.00041  24634321.46044  24634315.53148
 -10864284.53449  -8465673.48347         0.00041  20817216.98647  20817213.60449
 97 06 19 16 43 30.0000000  0  6 02 04 07 09 16 24
     75197.50848     58595.41444         0.00041  23836944.69544  23836941.62548
  -4096044.46049  -3191720.93947         0.00041  20478462.27547  20478460.86549
   7631852.64648   5946896.84544         0.00041  22513864.09844  22513864.53248
  -1759790.93449  -1371266.98546         0.00041  21150483.71846  21150481.35849
   -108499.98248    -84545.41144         0.00041  24630561.70944  24630556.85748
 -10928597.53649  -8515787.50147         0.00041  20804978.55147  20804975.13449
 97 06 19 16 44 00.0000000  0  6 02 04 07 09 16 24
    150744.18448    117462.84144         0.00041  23851321.20944  23851317.88948
  -4094916.02449  -3190841.64147         0.00041  20478677.09847  20478675.52649
   7691263.30848   5993190.85944         0.00041  22525171.55344  22525171.03448
  -1757114.82049  -1369181.71046         0.00041  21150993.27346  21150990.89549
   -127638.44748    -99458.28544         0.00041  24626917.29944  24626915.10648
 -10992351.31449  -8565465.76346         0.00041  20792846.49646  20792842.61949
 97 06 19 16 44 30.0000000  0  7 02 04 05 07 09 16 24
    226857.95048    176772.13444         0.00041  23865806.68044  23865800.80248
  -4092860.17749  -3189239.68147         0.00041  20479068.62347  20479066.54149
        -0.68858         0.00051         0.00051         0.00051  22335593.69558
   7751052.20648   6039779.59844         0.00041  22536551.60244  22536547.28848
  -1753579.61749  -1366427.02546         0.00041  21151665.89646  21151663.43349
   -145962.72347   -113737.11641         0.00041         0.00041  24623438.49247
 -11055327.30649  -8614537.95746         0.00041  20780863.16146  20780859.22949
 97 06 19 16 45 00.0000000  0  7 02 04 05 07 09 16 24
    303179.36248    236243.30244         0.00041  23880330.62844  23880323.55948
  -4090233.30649  -3187192.76747         0.00041  20479568.10347  20479566.05249
    -84001.11247         0.00041         0.00041         0.00041  22319603.45647
   7810847.56748   6086373.32744         0.00041  22547928.74744  22547924.17248
  -1749561.03549  -1363295.67846         0.00041  21152431.17646  21152428.33449
   -164528.49847         0.00041         0.00041         0.00041  24620018.57847
 -11117865.72549  -8663269.18647         0.00041  20768961.91647  20768958.65849
 97 06 19 16 45 30.0000000  0  6 02 04 05 07 09 24
    379860.05748         0.00041         0.00041         0.00041  23894914.77048
  -4086914.84649  -3184606.94847         0.00041  20480199.60247  20480197.61049
   -167786.72848         0.00041         0.00041         0.00041  22303665.51448
   7870787.62148   6133079.83644         0.00041  22559335.37044  22559331.22148
  -1744915.23249  -1359675.59146         0.00041  21153315.40346  21153312.55149
 -11179827.37849  -8711550.98447         0.00041  20757171.32847  20757168.15849
 97 06 19 16 46 00.0000000  0  6 02 04 05 07 09 24
    456697.08048    355867.26241         0.00041         0.00041  23909537.41248
  -4083113.47149  -3181644.83647         0.00041  20480923.56847  20480921.26549
   -251544.05248         0.00041         0.00041         0.00041  22287727.54548
   7930678.87248   6179748.31344         0.00041  22570732.09444  22570729.47648
  -1739833.80249  -1355716.04546         0.00041  21154282.09146  21154279.45749
 -11241403.85849  -8759532.65447         0.00041  20745453.76347  20745450.72549
 97 06 19 16 46 30.0000000  0  5 02 04 07 09 24
    535585.99048         0.00041         0.00041         0.00041  23924550.03648
  -4076941.58349  -3176835.57347         0.00041  20482097.92947  20482095.46649
   7992421.34148   6227859.31945         0.00041  22582482.07745  22582478.12548
  -1732394.61349  -1349919.28246         0.00041  21155697.28746  21155694.89549
 -11300671.50049  -8805715.22847         0.00041  20734175.38947  20734172.21949
 97 06 19 16 47 00.0000000  0  6 02 04 07 09 16 24
    620975.51348         0.00041         0.00041         0.00041  23940799.03548
  -4063950.13049  -3166712.36747         0.00041  20484570.36547  20484567.54549
   8060466.34448   6280881.38945         0.00041  22595429.86145  22595426.94648
  -1718106.43349  -1338785.65246         0.00041  21158416.65346  21158414.37849
        -0.42358        -0.19055         0.00051  24609135.30255  24609130.25258
 -11353171.27449  -8846624.13547         0.00041  20724185.15447  20724182.02449
 97 06 19 16 47 30.0000000  0  6 02 04 07 09 16 24
    709452.58247         0.00041         0.00041         0.00041  23957635.39247
  -4047532.62149  -3153919.51047         0.00041  20487694.95947  20487691.94849
   8131420.42148   6336170.24545         0.00041  22608932.91945  22608928.22048
  -1700353.01249  -1324951.84046         0.00041  21161794.77346  21161792.13349
     -4741.31048     -3694.34745         0.00041  24608231.53045  24608228.72448
 -11402297.85449  -8884904.57246         0.00041  20714836.91546  20714833.27949
 97 06 19 16 48 00.0000000  0  6 02 04 07 09 16 24
    808201.47847         0.00041         0.00041         0.00041  23976425.22647
  -4020454.51949  -3132819.69747         0.00041  20492847.13147  20492844.56849
   8212484.54348   6399337.05845         0.00041  22624358.39545  22624353.91148
  -1671930.31149  -1302804.29746         0.00041  21167203.04446  21167199.91149
      1090.61048       849.98645         0.00041  24609341.58445  24609338.49648
 -11440830.91449  -8914930.32046         0.00041  20707503.92946  20707500.23249
 97 06 19 16 48 30.0000000  0  6 02 04 07 09 16 24
    910425.08148         0.00041         0.00041         0.00041  23995880.14448
  -3989510.03049  -3108707.11447         0.00041  20498735.47647  20498732.91349
   8296848.62848   6465075.30746         0.00041  22640412.86446  22640409.07448
  -1639648.78649  -1277649.86546         0.00041  21173346.38046  21173343.17449
     10710.10048      8345.70844         0.00041  24611170.54544  24611169.94548
 -11475572.64549  -8942001.79346         0.00041  20700892.89746  20700888.95049
 97 06 19 16 49 00.0000000  0  6 02 04 07 09 16 24
   1008025.47048         0.00041         0.00041         0.00041  24014451.50848
  -3962783.89749  -3087881.56247         0.00041  20503820.82047  20503818.73349
   8376422.48948   6527080.89646         0.00041  22655555.59446  22655551.95448
  -1611631.73349  -1255818.38646         0.00041  21178678.17346  21178675.15949
     16016.73748     12480.78444         0.00041  24612185.28644  24612178.85448
 -11514623.72449  -8972431.20946         0.00041  20693461.83246  20693457.87449
 97 06 19 16 49 30.0000000  0  6 02 04 07 09 16 24
   1101885.13748         0.00041         0.00041         0.00041  24032312.30448
  -3939390.94349  -3069653.28547         0.00041  20508272.33047  20508270.58449
   8452103.65148   6586053.23146         0.00041  22669956.61346  22669954.41448
  -1587016.92149  -1236638.02346         0.00041  21183362.65346  21183359.91149
     17890.74748     13941.01044         0.00041  24612534.78544  24612534.95948
 -11557095.87349  -9005526.38646         0.00041  20685379.33446  20685375.42149
 97 06 19 16 50 00.0000000  0  6 02 04 07 09 16 24
   1193317.21847         0.00041         0.00041         0.00041  24049710.99147
  -3918043.54049  -3053018.93747         0.00041  20512334.87947  20512333.13249
   8525188.47148   6643002.42746         0.00041  22683865.05046  22683861.91348
  -1564502.83449  -1219094.60546         0.00041  21187646.97346  21187644.52249
     17619.35348         0.00041         0.00041         0.00041  24612482.83148
 -11601697.95649  -9040281.24546         0.00041  20676891.25446  20676888.03049
 97 06 19 16 50 30.0000000  0  6 02 04 07 09 16 24
   1282919.90148         0.00041         0.00041         0.00041  24066763.98248
  -3898180.46649  -3037541.20447         0.00041  20516114.79647  20516112.90349
   8596274.02248   6698393.70546         0.00041  22697391.97646  22697388.26948
  -1543495.77849  -1202725.49546         0.00041  21191644.73146  21191641.55049
     15772.24448         0.00041         0.00041         0.00041  24612130.87548
 -11647852.03549  -9076245.44546         0.00041  20668108.45346  20668105.44249
 97 06 19 16 51 00.0000000  0  6 02 04 07 09 16 24
   1371209.88648   1068473.83041         0.00041         0.00041  24083566.21848
  -3879293.10949  -3022823.77647         0.00041  20519708.75147  20519706.84949
   8665888.72448   6752638.89245         0.00041  22710638.33845  22710635.11548
  -1523477.79049  -1187127.08246         0.00041  21195452.90346  21195450.05049
     12853.36248     10015.80641         0.00041         0.00041  24611577.43048
 -11695051.05049  -9113023.87446         0.00041  20659126.67646  20659123.51049
 97 06 19 16 51 30.0000000  0  6 02 04 07 09 16 24
   1458731.32848         0.00041         0.00041         0.00041  24100219.28648
  -3860844.65649  -3008448.36047         0.00041  20523219.58547  20523217.44849
   8734554.29648   6806144.48345         0.00041  22723705.15845  22723702.44348
  -1503907.39148  -1171877.43446         0.00041  21199176.89146  21199173.79048
      9387.70748      7315.29944         0.00041  24610925.23544  24610918.11748
 -11742776.68049  -9150212.65246         0.00041  20650044.82146  20650041.32449
 97 06 19 16 52 00.0000000  0  7 02 04 07 09 16 24 30
   1545800.88348         0.00041         0.00041         0.00041  24116788.62348
  -3842533.47649  -2994179.91547         0.00041  20526704.22447  20526701.91149
   8802571.36948   6859144.75445         0.00041  22736647.97245  22736644.84248
  -1484482.40248  -1156741.08646         0.00041  21202872.86046  21202869.63148
      5680.86548      4426.86844         0.00041  24610214.70844  24610211.21748
 -11790730.36849  -9187579.14446         0.00041  20640919.70946  20640916.15949
        -0.50458         0.00051         0.00051         0.00051  25096468.81358
 97 06 19 16 52 30.0000000  0  7 02 04 07 09 16 24 30
   1632596.55547         0.00041         0.00041         0.00041  24133302.47547
  -3824181.85349  -2979879.96047         0.00041  20530196.46647  20530194.14049
   8870116.69248   6911777.41945         0.00041  22749501.44045  22749498.23748
  -1465044.53148  -1141594.70446         0.00041  21206572.68846  21206569.32148
      1919.09748      1495.66344         0.00041  24609498.90044  24609495.31948
 -11838744.15749  -9224992.47747         0.00041  20631783.18547  20631779.50649
    -95852.84048         0.00041         0.00041         0.00041  25078229.10848
 97 06 19 16 53 00.0000000  0  7 02 04 07 09 16 24 30
   1719300.03347         0.00041         0.00041         0.00041  24149803.18547
  -3805603.14549  -2965403.05547         0.00041  20533731.82747  20533729.51049
   8937353.11748   6964169.40245         0.00041  22762296.63245  22762292.66848
  -1445428.16448  -1126309.23846         0.00041  21210305.87346  21210302.60048
     -1704.78948     -1328.12144         0.00041  24608810.06844  24608805.21348
 -11886632.04149  -9262307.70347         0.00041  20622670.69547  20622666.73949
   -192086.92848         0.00041         0.00041         0.00041  25059915.31448
 97 06 19 16 53 30.0000000  0  6 04 07 09 16 24 30
  -3786693.33349  -2950668.14647         0.00041  20537330.57247  20537327.84549
   9004367.99048   7016388.76745         0.00041  22775050.14445  22775045.34048
  -1425528.60248  -1110803.08646         0.00041  21214092.89846  21214089.22548
     -5072.57248         0.00041         0.00041         0.00041  24608161.80848
 -11934271.68949  -9299429.50047         0.00041  20613604.68347  20613601.17249
   -288590.65048         0.00041         0.00041         0.00041  25041549.56548
 97 06 19 16 54 00.0000000  0  6 04 07 09 16 24 30
  -3767351.80149  -2935596.82746         0.00041  20541011.05546  20541008.32949
   9071278.58548   7068526.87445         0.00041  22787783.75545  22787777.78448
  -1405221.06349  -1094979.03146         0.00041  21217957.80346  21217954.15249
     -8067.18848     -6285.77841         0.00041         0.00041  24607592.70348
 -11981527.33749  -9336252.07147         0.00041  20604612.32947  20604609.08049
   -385238.53948         0.00041         0.00041         0.00041  25023156.11248
 97 06 19 16 54 30.0000000  0  6 04 05 07 09 24 30
  -3747525.86349  -2920148.05346         0.00041  20544783.45146  20544781.06749
        -0.87057         0.33151         0.00051         0.00051  22055220.86857
   9138114.75048   7120606.98544         0.00041  22800499.39944  22800496.35348
  -1384449.02349  -1078793.03746         0.00041  21221909.67546  21221906.54449
 -12028341.63149  -9372730.72547         0.00041  20595703.67047  20595700.48549
   -482007.56748   -375589.71341         0.00041         0.00041  25004745.13948
 97 06 19 16 55 00.0000000  0  6 04 05 07 09 24 30
  -3727227.02749  -2904330.78446         0.00041  20548645.79346  20548643.93849
    -75263.70348    -58646.02141         0.00041         0.00041  22040899.86348
   9204867.69448   7172622.22444         0.00041  22813202.47344  22813197.93648
  -1363206.97549  -1062240.79146         0.00041  21225952.10646  21225948.98649
 -12074701.27449  -9408855.10847         0.00041  20586881.70347  20586878.56049
   -578932.16347         0.00041         0.00041         0.00041  24986299.16147
 97 06 19 16 55 30.0000000  0  5 04 05 07 09 24
  -3706390.36949  -2888094.42646         0.00041  20552610.81846  20552608.84849
   -150411.98448   -117203.17741         0.00041         0.00041  22026601.36048
   9271612.52448   7224631.11945         0.00041  22825905.40945  22825900.83748
  -1341408.57249  -1045255.04246         0.00041  21230100.48746  21230097.44149
 -12120545.56949  -9444577.92347         0.00041  20578157.97047  20578154.88649
 97 06 19 16 56 00.0000000  0  6 04 05 07 09 16 24
  -3685056.47849  -2871470.62046         0.00041  20556670.31846  20556668.63749
   -225500.88248   -175714.01941         0.00041         0.00041  22012311.74248
   9338315.11848   7276607.07945         0.00041  22838597.17245  22838593.90148
  -1319104.46849  -1027875.24146         0.00041  21234344.54646  21234341.78249
        -0.63258         0.03454         0.00051  24606094.72054  24606092.44058
 -12165930.56949  -9479942.84247         0.00041  20569521.47547  20569518.53449
 97 06 19 16 56 30.0000000  0  7 02 04 05 07 09 16 24
        -0.57257        -0.11851         0.00051         0.00051  24265821.83557
  -3663157.02949  -2854406.12146         0.00041  20560837.96146  20560836.27949
   -300476.69548   -234136.70541         0.00041         0.00041  21998044.97148
   9405042.92748   7328602.71745         0.00041  22851294.76745  22851291.67548
  -1296251.24849  -1010067.56046         0.00041  21238693.45746  21238690.55849
      -883.94548      -688.25444         0.00041  24605929.66044  24605925.33048
 -12210802.10249  -9514907.65847         0.00041  20560982.63747  20560979.60349
 97 06 19 16 57 00.0000000  0  8 02 04 05 07 09 16 24 30
     87797.38547         0.00041         0.00041         0.00041  24282529.02047
  -3640663.28249  -2836878.53046         0.00041  20565118.44746  20565116.57249
   -375300.46848   -292440.99041         0.00041         0.00041  21983804.79448
   9471847.43948   7380658.16445         0.00041  22864008.50545  22864005.06548
  -1272825.24949   -991813.56346         0.00041  21243151.27646  21243147.99249
     -1253.83648      -976.41944         0.00041  24605861.06944  24605855.14148
 -12255141.00049  -9549457.43647         0.00041  20552545.40647  20552541.85049
        -0.88358        -0.56254         0.00051  24912329.79154  24912326.29858
 97 06 19 16 57 30.0000000  0  7 04 05 07 09 16 24 30
  -3617640.61549  -2818938.79146         0.00041  20569499.75346  20569497.98549
   -450040.50248         0.00041         0.00041         0.00041  21969584.02548
   9538656.71848   7432717.35445         0.00041  22876721.66345  22876718.15848
  -1248913.21949   -973180.84446         0.00041  21247701.40246  21247697.93349
     -1177.07148      -916.58944         0.00041  24605872.91044  24605870.59548
 -12299032.78549  -9583658.81347         0.00041  20544193.31347  20544189.57949
    -97357.90448    -75863.14344         0.00041  24893804.69844  24893798.75048
 97 06 19 16 58 00.0000000  0  8 02 04 05 07 09 16 24 30
         0.10557         0.00051         0.00051         0.00051  24316034.61457
  -3594104.15849  -2800598.69946         0.00041  20573978.36546  20573976.87249
   -524690.43247         0.00041         0.00041         0.00041  21955374.83847
   9605466.54248   7484776.94446         0.00041  22889435.71146  22889432.17148
  -1224545.34349   -954192.91946         0.00041  21252338.32946  21252335.14849
      -655.61748      -510.20045         0.00041  24605973.31945  24605969.33448
 -12342476.03349  -9617510.68247         0.00041  20535926.30147  20535922.77449
   -194797.41448   -151790.00544         0.00041  24875259.88244  24875256.71348
 97 06 19 16 58 30.0000000  0  8 02 04 05 07 09 16 24 30
     88311.34748         0.00041         0.00041         0.00041  24332839.63748
  -3570020.89149  -2781832.51946         0.00041  20578561.31046  20578559.59549
   -599192.02547         0.00041         0.00041         0.00041  21941199.64947
   9672308.04948   7536861.22746         0.00041  22902155.31346  22902152.20648
  -1199671.99149   -934811.11446         0.00041  21257071.48146  21257068.75749
       358.39848       279.99645         0.00041  24606165.76745  24606161.37648
 -12385434.38549  -9650984.71647         0.00041  20527751.72747  20527748.50249
   -292282.35848   -227752.24344         0.00041  24856709.05944  24856705.68048
 97 06 19 16 59 00.0000000  0  8 02 04 05 07 09 16 24 30
    176852.82548    137807.74841         0.00041         0.00041  24349690.32648
  -3545385.22749  -2762635.89246         0.00041  20583249.20346  20583247.32149
   -673520.71147         0.00041         0.00041         0.00041  21927053.47747
   9739178.76948   7588968.26946         0.00041  22914879.77746  22914876.90148
  -1174256.85249   -915007.13146         0.00041  21261907.62746  21261904.83749
      1879.45048      1465.22745         0.00041  24606454.65745  24606451.86848
 -12427894.90349  -9684070.82747         0.00041  20519671.65747  20519668.14649
   -389808.84848   -303746.84644         0.00041  24838151.64644  24838147.93848
 97 06 19 16 59 30.0000000  0  8 02 04 05 07 09 16 24 30
    265656.38148         0.00041         0.00041         0.00041  24366588.52548
  -3520183.17849  -2742997.92646         0.00041  20588044.86846  20588042.96249
   -747642.11347   -582577.33841         0.00041         0.00041  21912947.36547
   9806085.41748   7641103.28745         0.00041  22927610.99045  22927608.05048
  -1148267.62949   -894755.81446         0.00041  21266852.47546  21266850.49049
      3943.37548      3073.47545         0.00041  24606850.37045  24606843.22448
 -12469816.35949  -9716736.89547         0.00041  20511694.50247  20511690.21349
   -487373.66848   -379771.32044         0.00041  24819585.11644  24819582.01248
 97 06 19 17 00 00.0000000  0  7 04 05 07 09 16 24 30
  -3494426.74649  -2722927.97646         0.00041  20592946.46346  20592944.42949
   -821556.27748   -640172.79341         0.00041         0.00041  21898886.16548
   9873013.03948   7693254.64145         0.00041  22940347.47845  22940344.26348
  -1121702.19349   -874055.50146         0.00041  21271908.23746  21271905.88249
      6551.01248      5105.36744         0.00041  24607345.89444  24607338.43848
 -12511197.97249  -9748982.31147         0.00041  20503819.70447  20503815.51849
   -584981.95148   -455829.64644         0.00041  24801009.91744  24801007.54548
 97 06 19 17 00 30.0000000  0  7 04 05 07 09 16 24 30
  -3468128.04249  -2702435.48047         0.00041  20597951.01647  20597948.85949
   -895287.93448   -697625.99241         0.00041         0.00041  21884853.79448
   9939936.41748   7745402.69645         0.00041  22953082.74345  22953078.97948
  -1094567.84649   -852911.88146         0.00041  21277072.22246  21277069.34249
      9677.89148      7541.90144         0.00041  24607940.74844  24607935.30148
 -12552066.00249  -9780827.52047         0.00041  20496042.34947  20496038.92649
   -682648.55948   -531933.40144         0.00041  24782426.17644  24782423.08048
 97 06 19 17 01 00.0000000  0  8 02 04 05 07 09 16 24 30
        -0.30458         0.01954         0.00051  24417566.04754  24417559.46858
  -3441276.71349  -2681512.36847         0.00041  20603060.86447  20603058.64449
   -968825.93147   -754928.28841         0.00041         0.00041  21870859.93147
  10006879.55448   7797566.15845         0.00041  22965820.49145  22965817.44248
  -1066872.75649   -831331.31346         0.00041  21282342.56746  21282339.21549
     13320.47148     10380.30644         0.00041  24608631.89244  24608628.20148
 -12592401.02849  -9812257.39747         0.00041  20488366.60347  20488363.34249
   -780363.26748   -608074.57944         0.00041  24763829.61544  24763827.68948
 97 06 19 17 01 30.0000000  0  8 02 04 05 07 09 16 24 30
     89693.84448     69891.52941         0.00041         0.00041  24434628.25748
  -3413873.31149  -2660159.07147         0.00041  20608275.66147  20608273.22749
  -1042180.29547         0.00041         0.00041         0.00041  21856902.00747
  10073867.23348   7849764.32945         0.00041  22978567.72545  22978564.55248
  -1038655.80349   -809344.08546         0.00041  21287712.74246  21287708.69549
     17460.42048     13606.33544         0.00041  24609419.97844  24609415.62248
 -12632212.39649  -9843279.23746         0.00041  20480791.02046  20480787.45049
   -878120.57248   -684248.97444         0.00041  24745228.06544  24745225.30348
 97 06 19 17 02 00.0000000  0  6 04 07 09 16 24 30
  -3385918.10849  -2638375.80347         0.00041  20613595.29247  20613592.80249
  10140910.17648   7902005.57245         0.00041  22991326.04545  22991322.88748
  -1009940.92449   -786968.85646         0.00041  21293176.67546  21293172.81049
     22078.40848     17204.80144         0.00041  24610297.33144  24610294.35148
 -12671520.66949  -9873909.05946         0.00041  20473310.99946  20473307.16349
   -975914.34648   -760451.85844         0.00041  24726617.23044  24726615.48448
 97 06 19 17 02 30.0000000  0  6 04 07 09 16 24 30
  -3357438.22849  -2616183.69647         0.00041  20619014.80547  20619012.36449
  10207980.86748   7954268.43945         0.00041  23004090.24245  23004085.90848
   -980769.46549   -764237.85846         0.00041  21298728.22346  21298724.88749
     27157.68948     21162.58044         0.00041  24611261.02344  24611258.65648
 -12710360.07549  -9904173.52747         0.00041  20465919.98047  20465916.30349
  -1073776.93448   -836708.35244         0.00041  24707997.23444  24707992.84748
 97 06 19 17 03 00.0000000  0  7 04 07 09 10 16 24 30
  -3328423.06649  -2593574.48746         0.00041  20624536.41246  20624534.00949
  10275089.85248   8006561.16145         0.00041  23016861.09945  23016856.06748
   -951146.45749   -741155.02346         0.00041  21304364.36146  21304362.08049
        -0.65258         0.00051         0.00051         0.00051  25241761.08258
     32693.80948     25476.40544         0.00041  24612312.16244  24612312.53448
 -12748710.51549  -9934056.97847         0.00041  20458622.16847  20458618.95949
  -1171702.15348   -913013.66344         0.00041  24689361.63944  24689359.02148
 97 06 19 17 03 30.0000000  0  7 04 07 09 10 16 24 30
  -3298824.49749  -2570510.67546         0.00041  20630168.64146  20630166.34849
  10342271.52448   8058910.52845         0.00041  23029644.79345  23029639.81948
   -921001.46249   -717665.44746         0.00041  21310099.78646  21310097.97549
    -89691.32448         0.00041         0.00041         0.00041  25224691.74348
     38758.36548     30202.04744         0.00041  24613472.14044  24613466.16248
 -12786514.81049  -9963514.84947         0.00041  20451427.96847  20451425.11049
  -1269639.41048   -989328.35641         0.00041         0.00041  24670719.84048
 97 06 19 17 04 00.0000000  0  7 04 07 09 10 16 24 30
  -3268623.80049  -2546977.67346         0.00041  20635915.46446  20635912.98549
  10409520.39148   8111312.23045         0.00041  23042441.71145  23042438.55148
   -890280.83249   -693727.32646         0.00041  21315946.78046  21315943.70149
   -179503.36248   -139871.60944         0.00041  25207610.55744  25207602.71448
     45386.19848     35366.59944         0.00041  24614731.76944  24614725.33648
 -12823736.41049  -9992518.66047         0.00041  20444344.40747  20444341.70949
  -1367562.60748  -1065632.17041         0.00041         0.00041  24652083.33448
 97 06 19 17 04 30.0000000  0  7 04 07 09 10 16 24 30
  -3237812.90649  -2522969.19446         0.00041  20641778.58746  20641776.15749
  10476852.07348   8163778.48145         0.00041  23055255.54445  23055251.30748
   -858955.70949   -669318.16646         0.00041  21321907.56546  21321904.46749
   -269432.16948         0.00041         0.00041         0.00041  25190489.48148
     52595.37948     40984.18744         0.00041  24616100.04244  24616096.82948
 -12860353.75049 -10021051.62146         0.00041  20437376.18346  20437373.79049
  -1465454.79848  -1141911.76241         0.00041         0.00041  24633456.82248
 97 06 19 17 05 00.0000000  0  7 04 07 09 10 16 24 30
  -3206529.90349  -2498592.84046         0.00041  20647731.70146  20647729.20049
  10544157.00048   8216223.85245         0.00041  23068061.45445  23068059.25948
   -827134.87749   -644522.72746         0.00041  21327963.59446  21327960.16949
   -359600.80648   -280207.19144         0.00041  25173339.13444  25173330.94348
     60251.34548     46949.84641         0.00041         0.00041  24617554.58448
 -12896477.17949 -10049199.71647         0.00041  20430503.04947  20430499.86349
  -1563431.68948  -1218257.38544         0.00041  24614814.64644  24614813.32848
 97 06 19 17 05 30.0000000  0  7 04 07 09 10 16 24 30
  -3174502.64149  -2473636.54546         0.00041  20653825.93246  20653824.00549
  10611725.88248   8268874.89045         0.00041  23080921.12945  23080917.87548
   -794521.52849   -619109.74046         0.00041  21334170.06946  21334166.86149
   -449715.35748         0.00041         0.00041         0.00041  25156183.44148
     68623.65548     53473.74544         0.00041  24619152.54144  24619147.53048
 -12931828.49549 -10076746.18047         0.00041  20423776.07247  20423772.69449
  -1661193.64948         0.00041         0.00041         0.00041  24596210.11948
 97 06 19 17 06 00.0000000  0  7 04 07 09 10 16 24 30
  -3141840.39449  -2448185.45146         0.00041  20660041.23746  20660039.32249
  10679457.67648   8321652.86945         0.00041  23093807.47745  23093804.40748
   -761245.44149   -593180.34546         0.00041  21340502.08946  21340499.19249
   -539871.41248   -420677.55241         0.00041         0.00041  25139028.67548
     77604.80448     60472.09544         0.00041  24620861.79244  24620858.75348
 -12966519.15449 -10103777.85347         0.00041  20417174.69947  20417171.34749
  -1758844.57748         0.00041         0.00041         0.00041  24577627.66348
 97 06 19 17 06 30.0000000  0  7 04 07 09 10 16 24 30
  -3108551.23949  -2422245.85746         0.00041  20666375.81146  20666373.87949
  10747344.71248   8374551.81544         0.00041  23106727.37044  23106724.17348
   -727338.26549   -566759.19246         0.00041  21346954.15246  21346951.05449
   -630080.95948   -490970.63641         0.00041         0.00041  25121860.49848
     87176.37848     67930.44241         0.00041         0.00041  24622680.31848
 -13000567.07349 -10130308.68947         0.00041  20410695.54347  20410692.00349
  -1856402.26348         0.00041         0.00041         0.00041  24559061.10648
 97 06 19 17 07 00.0000000  0  7 04 07 09 10 16 24 30
  -3075157.57149  -2396224.82046         0.00041  20672730.05746  20672728.09849
  10814843.64248   8427148.34545         0.00041  23119571.03045  23119568.82548
   -693331.35349   -540260.32746         0.00041  21353425.65446  21353422.48649
   -720864.00048   -561710.60241         0.00041         0.00041  25104583.80048
     96821.35848     75446.02441         0.00041         0.00041  24624514.38648
 -13034494.69549 -10156745.78947         0.00041  20404239.15547  20404235.61049
  -1954400.00748         0.00041         0.00041         0.00041  24540412.33448
 97 06 19 17 07 30.0000000  0  6 04 07 09 10 24 30
  -3041680.46049  -2370138.76946         0.00041  20679100.94646  20679098.88549
  10881903.14948   8479402.47445         0.00041  23132331.39845  23132330.25948
   -659270.32649   -513719.29446         0.00041  21359906.72846  21359903.52049
   -812258.83148         0.00041         0.00041         0.00041  25087191.67748
 -13068351.08749 -10183127.38047         0.00041  20397796.55047  20397792.70349
  -2052883.20248         0.00041         0.00041         0.00041  24521673.45548
 97 06 19 17 08 00.0000000  0  7 04 07 09 10 16 24 30
  -3007767.29749  -2343712.93346         0.00041  20685554.04546  20685552.38149
  10948854.95048   8531572.65845         0.00041  23145072.52145  23145070.49648
   -624820.21449   -486875.07846         0.00041  21366462.35446  21366459.16449
   -903920.88047         0.00041         0.00041         0.00041  25069747.41647
        -0.38358         0.00051         0.00051         0.00051  24628283.96658
 -13101799.13749 -10209190.78047         0.00041  20391431.24347  20391427.57649
  -2151518.64048  -1676506.57641         0.00041         0.00041  24502904.36548
 97 06 19 17 08 30.0000000  0  6 04 07 09 16 24 30
  -2973260.75449  -2316824.71946         0.00041  20692120.65346  20692118.72349
  11015849.87748   8583776.42145         0.00041  23157823.68245  23157818.77448
   -589821.12649   -459603.09546         0.00041  21373122.78946  21373120.01849
     10674.73548         0.00041         0.00041         0.00041  24630316.47648
 -13134692.56049 -10234822.00447         0.00041  20385171.85747  20385168.41349
  -2250155.13448  -1753366.17541         0.00041         0.00041  24484134.36548
 97 06 19 17 09 00.0000000  0  5 04 07 09 24 30
  -2938069.25849  -2289402.77046         0.00041  20698817.30246  20698815.68349
  11082994.11648   8636096.43845         0.00041  23170601.40245  23170596.48148
   -554178.29649   -431829.49646         0.00041  21379904.98246  21379902.70149
 -13166926.43249 -10259939.29347         0.00041  20379038.05547  20379034.52749
  -2348681.60147         0.00041         0.00041         0.00041  24465381.27147
 97 06 19 17 09 30.0000000  0  6 04 07 09 16 24 30
  -2902171.86249  -2261430.76846         0.00041  20705648.52446  20705647.22849
  11150320.52748   8688558.42945         0.00041  23183412.68045  23183408.49148
   -517868.17049   -403535.92546         0.00041  21386814.81546  21386811.80849
        -1.01858         0.00051         0.00051         0.00051  24634762.26558
 -13198473.76649 -10284521.62347         0.00041  20373034.77147  20373031.45349
  -2447056.04147         0.00041         0.00041         0.00041  24446662.72247
 97 06 19 17 10 00.0000000  0  7 04 05 07 09 16 24 30
  -2865540.05049  -2232886.50046         0.00041  20712619.39746  20712617.85849
        -1.13357         0.00051         0.00051         0.00051  21624318.45357
  11217865.68048   8741191.01145         0.00041  23196264.49445  23196261.58048
   -480852.35449   -374692.45746         0.00041  21393858.84346  21393855.70849
     12732.82348         0.00041         0.00041         0.00041  24637186.66748
 -13229282.68149 -10308528.56347         0.00041  20367172.27747  20367168.91849
  -2545231.45947  -1983295.72141         0.00041         0.00041  24427978.94847
 97 06 19 17 10 30.0000000  0  7 04 05 07 09 16 24 30
  -2828294.15249  -2203863.72646         0.00041  20719707.96146  20719705.28949
    -70035.19348         0.00041         0.00041         0.00041  21610990.39148
  11285537.06748   8793921.94545         0.00041  23209142.57245  23209139.04848
   -443220.51349   -345368.95846         0.00041  21401019.91746  21401016.74149
     26088.33948         0.00041         0.00041         0.00041  24639728.95248
 -13259438.97749 -10332026.96447         0.00041  20361433.55047  20361430.07349
  -2643307.19748  -2059718.31844         0.00041  24409326.83344  24409318.14548
 97 06 19 17 11 00.0000000  0  8 04 05 07 09 10 16 24 30
  -2790487.42749  -2174403.93946         0.00041  20726902.63146  20726899.60849
   -139785.82548         0.00041         0.00041         0.00041  21597717.68148
  11353291.36148   8846717.46345         0.00041  23222034.99245  23222031.44648
   -405010.65549   -315595.06846         0.00041  21408291.14446  21408287.99349
        -0.44758         0.33051         0.00051         0.00051  24964882.54858
     40024.73848         0.00041         0.00041         0.00041  24642378.46948
 -13288979.06249 -10355045.21047         0.00041  20355812.32347  20355808.86449
  -2741331.54848  -2136100.90744         0.00041  24390670.11544  24390664.19748
 97 06 19 17 11 30.0000000  0  8 04 05 07 09 10 16 24 30
  -2752150.86349  -2144531.30146         0.00041  20734197.09746  20734194.95849
   -209271.94548         0.00041         0.00041         0.00041  21584496.27948
  11421093.91448   8899550.59545         0.00041  23234937.40045  23234934.15748
   -366247.04649   -285389.68146         0.00041  21415667.98346  21415664.97549
    -92096.61148    -71762.93041         0.00041         0.00041  24947358.40248
     54505.83548         0.00041         0.00041         0.00041  24645132.88048
 -13317946.78649 -10377617.45847         0.00041  20350300.01947  20350296.68349
  -2839354.86348  -2212482.61744         0.00041  24372017.51744  24372014.69948
 97 06 19 17 12 00.0000000  0  8 04 05 07 09 10 16 24 30
  -2713357.36049  -2114302.60746         0.00041  20741579.42746  20741577.09149
   -278575.75048         0.00041         0.00041         0.00041  21571307.66348
  11488887.19248   8952376.50545         0.00041  23247837.86145  23247834.66848
   -326999.84349   -254807.46946         0.00041  21423136.13346  21423133.05549
   -184358.99048         0.00041         0.00041         0.00041  24929801.17448
     69468.06048     54130.93944         0.00041  24647985.61544  24647981.14348
 -13346416.30849 -10399801.49647         0.00041  20344882.30747  20344879.13549
  -2937460.95548  -2288928.86144         0.00041  24353347.39644  24353343.73548
 97 06 19 17 12 30.0000000  0  8 04 05 07 09 10 16 24 30
  -2674095.22749  -2083708.74046         0.00041  20749050.68346  20749048.01249
   -347702.86047         0.00041         0.00041         0.00041  21558150.21647
  11556687.63548   9005207.99445         0.00041  23260742.16145  23260738.22848
   -287269.88849   -223849.09246         0.00041  21430696.50846  21430693.30949
   -276759.79548   -215656.36941         0.00041         0.00041  24912217.61548
     84919.42648     66170.92944         0.00041  24650927.60444  24650923.35348
 -13374385.14349 -10421595.38347         0.00041  20339559.73647  20339556.54149
  -3035629.83848  -2365424.07044         0.00041  24334665.98344  24334662.74348
 97 06 19 17 13 00.0000000  0  8 04 05 07 09 10 16 24 30
  -2634379.69449  -2052761.56046         0.00041  20756608.20746  20756605.93349
   -416684.70948         0.00041         0.00041         0.00041  21545025.67648
  11624459.83148   9058017.46945         0.00041  23273638.34645  23273634.32848
   -247111.69649   -192557.01946         0.00041  21438338.32546  21438335.01249
   -369330.98948   -287789.77141         0.00041         0.00041  24894602.90748
    100804.59348     78548.99744         0.00041  24653950.04744  24653947.45748
 -13401893.89749 -10443030.76347         0.00041  20334325.37847  20334322.23849
  -3133884.63348  -2441986.20544         0.00041  24315965.63144  24315964.69348
 97 06 19 17 13 30.0000000  0  8 04 05 07 09 10 16 24 30
  -2594211.38449  -2021461.57746         0.00041  20764251.96946  20764249.86249
   -485516.82648         0.00041         0.00041         0.00041  21531927.55348
  11692209.47048   9110809.36344         0.00041  23286528.93344  23286525.52648
   -206532.56849   -160936.93646         0.00041  21446060.25746  21446056.70549
   -462078.89848         0.00041         0.00041         0.00041  24876953.50548
    117123.96548     91265.36544         0.00041  24657053.84244  24657051.24948
 -13428941.66549 -10464106.93347         0.00041  20329178.21147  20329175.33149
  -3232198.55448  -2518594.35544         0.00041  24297260.07344  24297258.22448
 97 06 19 17 14 00.0000000  0  8 04 05 07 09 10 16 24 30
  -2553534.31749  -1989765.16246         0.00041  20771992.97946  20771990.44749
   -554148.39048         0.00041         0.00041         0.00041  21518868.78848
  11759985.06848   9163621.45544         0.00041  23299426.92244  23299424.14348
   -165479.31149   -128947.41146         0.00041  21453872.81746  21453869.54749
   -554958.17348         0.00041         0.00041         0.00041  24859277.75448
    133944.32948    104372.19041         0.00041         0.00041  24660251.08648
 -13455468.76149 -10484777.38747         0.00041  20324130.15147  20324127.16849
  -3330485.38348  -2595181.45344         0.00041  24278556.34944  24278553.06948
 97 06 19 17 14 30.0000000  0  8 04 05 07 09 10 16 24 30
  -2512305.23949  -1957638.60846         0.00041  20779838.75446  20779836.01549
   -622527.98648         0.00041         0.00041         0.00041  21505854.53348
  11827833.43348   9216490.28444         0.00041  23312338.39144  23312335.01948
   -123910.46149    -96556.12746         0.00041  21461783.42746  21461780.53549
   -647930.22848         0.00041         0.00041         0.00041  24841586.03148
    151311.73848         0.00041         0.00041         0.00041  24663557.17848
 -13481427.44449 -10505004.92347         0.00041  20319190.17947  20319187.01349
  -3428685.88748  -2671701.29044         0.00041  24259870.54144  24259866.16148
 97 06 19 17 15 00.0000000  0  8 04 05 07 09 10 16 24 30
  -2470488.74449  -1925054.33346         0.00041  20787796.14046  20787793.06949
   -690610.48748         0.00041         0.00041         0.00041  21492897.17448
  11895793.67748   9269446.32144         0.00041  23325270.51844  23325264.97048
    -81768.56349    -63718.30846         0.00041  21469802.51246  21469799.58249
   -740956.31348         0.00041         0.00041         0.00041  24823883.65648
    169261.54048         0.00041         0.00041         0.00041  24666972.26848
 -13506781.85649 -10524761.59747         0.00041  20314365.48247  20314362.11749
  -3526774.35448  -2748133.77344         0.00041  24241202.76844  24241200.41048
 97 06 19 17 15 30.0000000  0  7 04 07 09 10 16 24 30
  -2428144.81749  -1892059.07446         0.00041  20795853.75246  20795850.66649
  11963811.00948   9322446.82645         0.00041  23338213.53145  23338209.62648
    -39094.73849    -30465.99646         0.00041  21477922.98546  21477919.87249
   -834079.96348   -649931.75141         0.00041         0.00041  24806162.34148
    187757.23348         0.00041         0.00041         0.00041  24670492.29548
 -13531585.99649 -10544089.48847         0.00041  20309645.61447  20309642.10049
  -3624801.12548  -2824518.17844         0.00041  24222551.72644  24222548.04848
 97 06 19 17 16 00.0000000  0  7 04 07 09 10 16 24 30
  -2385295.84649  -1858670.27246         0.00041  20804007.26546  20804004.61249
  12031867.50848   9375477.82745         0.00041  23351166.05045  23351162.35948
      4094.12849      3187.64246         0.00041  21486141.56546  21486138.46049
   -927314.59648   -722582.04444         0.00041  24788429.44744  24788421.00748
    206767.67648         0.00041         0.00041         0.00041  24674109.46248
 -13555856.24749 -10563001.36347         0.00041  20305027.15347  20305023.83749
  -3722804.53148  -2900884.43645         0.00041  24203901.91045  24203898.87248
 97 06 19 17 16 30.0000000  0  7 04 07 09 10 16 24 30
  -2341943.66349  -1824889.35746         0.00041  20812256.94046  20812254.81649
  12099975.73048   9428549.11045         0.00041  23364124.40945  23364122.83548
     47796.96949     37241.78546         0.00041  21494457.99946  21494454.67749
  -1020652.78748   -795313.04944         0.00041  24770668.03144  24770659.09548
    226287.64148    176328.05241         0.00041         0.00041  24677823.83448
 -13579576.77749 -10581484.88647         0.00041  20300513.53047  20300510.11749
  -3820797.98248  -2977242.93044         0.00041  24185254.77844  24185249.83548
 97 06 19 17 17 00.0000000  0  7 04 07 09 10 16 24 30
  -2297998.75649  -1790646.58646         0.00041  20820619.34646  20820617.21849
  12168203.37648   9481713.44644         0.00041  23377107.79744  23377105.93448
     92096.47649     71760.87146         0.00041  21502888.05046  21502883.98049
  -1114010.56748         0.00041         0.00041         0.00041  24752895.09248
    246403.82648    192003.01341         0.00041         0.00041  24681652.50848
 -13602662.63849 -10599473.87047         0.00041  20296120.37547  20296117.03949
  -3918691.75648  -3053523.77744         0.00041  24166625.42044  24166621.48648
 97 06 19 17 17 30.0000000  0  7 04 07 09 10 16 24 30
  -2253390.16049  -1755886.64446         0.00041  20829108.24646  20829106.26549
  12236631.92848   9535034.37144         0.00041  23390128.65944  23390126.76148
    137056.61249    106794.74446         0.00041  21511443.85246  21511439.11449
  -1207313.56648   -940762.94544         0.00041  24735146.16344  24735138.69348
    267204.99748    208211.61841         0.00041         0.00041  24685609.72148
 -13625018.53549 -10616894.04747         0.00041  20291866.09147  20291862.45649
  -4016408.05948  -3129666.29844         0.00041  24148032.42944  24148029.77948
 97 06 19 17 18 00.0000000  0  7 04 07 09 10 16 24 30
  -2208380.16349  -1720813.92446         0.00041  20837673.18546  20837671.22749
  12305010.56548   9588316.35344         0.00041  23403141.58644  23403138.85048
    182414.24549    142138.35746         0.00041  21520075.23046  21520071.07149
  -1300814.54848  -1013620.88644         0.00041  24717355.16144  24717346.47348
    288438.27048    224757.06344         0.00041  24689656.07444  24689651.24748
 -13646887.55749 -10633934.83947         0.00041  20287704.30547  20287700.91349
  -4114212.54248  -3205877.53644         0.00041  24129419.24544  24129414.29248
 97 06 19 17 18 30.0000000  0  7 04 07 09 10 16 24 30
  -2163035.98549  -1685480.80746         0.00041  20846302.04046  20846300.04749
  12373258.19748   9641496.28144         0.00041  23416126.57144  23416126.09848
    228084.42049    177725.49746         0.00041  21528765.38546  21528762.29749
  -1394581.33548  -1086685.88544         0.00041  24699510.72344  24699505.49248
    310044.76048    241593.33544         0.00041  24693765.76644  24693762.45048
 -13668346.25149 -10650655.89147         0.00041  20283620.89047  20283617.67149
  -4212178.29248  -3282214.45744         0.00041  24110774.82144  24110772.11148
 97 06 19 17 19 00.0000000  0  7 04 07 09 10 16 24 30
  -2117364.33149  -1649892.51746         0.00041  20854993.05746  20854990.81149
  12441357.75448   9694560.81945         0.00041  23429087.44545  23429085.05048
    274057.00749    213548.27546         0.00041  21537513.89446  21537511.08749
  -1488619.69248  -1159962.49144         0.00041  24681614.66544  24681610.13248
    332007.47548    258707.14244         0.00041  24697948.40244  24697942.06948
 -13689425.47849 -10667081.25247         0.00041  20279609.72847  20279606.63549
  -4310325.21648  -3358692.58944         0.00041  24092098.66544  24092095.57548
 97 06 19 17 19 30.0000000  0  7 04 07 09 10 16 24 30
  -2070749.76649  -1613569.49046         0.00041  20863863.49046  20863861.27849
  12509934.06948   9747996.85145         0.00041  23442140.90945  23442135.47548
    320951.41849    250089.34346         0.00041  21546437.57446  21546434.18449
  -1582298.91448  -1232959.29341         0.00041         0.00041  24663780.53848
    354938.95548    276575.80844         0.00041  24702312.21944  24702307.14248
 -13709509.86949 -10682731.41047         0.00041  20275787.80047  20275784.68649
  -4408045.47948  -3434838.22044         0.00041  24073504.07744  24073499.81448
 97 06 19 17 20 00.0000000  0  7 04 07 09 10 16 24 30
  -2022857.48849  -1576250.84146         0.00041  20872977.05546  20872975.19649
  12579306.32548   9802053.13645         0.00041  23455340.55845  23455336.39648
    369088.01949    287598.34246         0.00041  21555597.60646  21555594.41249
  -1675288.52448  -1305418.73844         0.00041  24646092.90544  24646085.98748
    379150.44648    295441.87944         0.00041  24706919.24944  24706914.30448
 -13728295.47849 -10697369.53847         0.00041  20272212.98347  20272209.76149
  -4504998.08048  -3510385.78844         0.00041  24055053.70344  24055050.13248
 97 06 19 17 20 30.0000000  0  5 04 09 16 24 30
  -1972608.31749  -1537095.64246         0.00041  20882539.32846  20882537.39849
    419547.93449    326917.70546         0.00041  21565199.99346  21565196.93349
    405700.67948         0.00041         0.00041         0.00041  24711966.77848
 -13744724.77149 -10710171.58447         0.00041  20269086.87347  20269083.49349
  -4600088.93848  -3584482.50044         0.00041  24036960.69144  24036958.88448
 97 06 19 17 21 00.0000000  0  5 04 09 16 24 30
  -1920497.78949  -1496490.05546         0.00041  20892455.97146  20892453.63249
    471855.15349    367676.54646         0.00041  21575153.72446  21575150.67449
    434099.09648         0.00041         0.00041         0.00041  24717370.88848
 -13759271.91649 -10721507.01447         0.00041  20266318.51947  20266315.18849
  -4693784.17248  -3657491.71944         0.00041  24019129.80644  24019126.70048
 97 06 19 17 21 30.0000000  0  5 04 09 16 24 30
  -1867645.64149  -1455306.57746         0.00041  20902513.44946  20902510.75149
    524908.82049    409017.03746         0.00041  21585249.55246  21585246.21149
    463258.66148         0.00041         0.00041         0.00041  24722916.71548
 -13773007.52549 -10732210.08347         0.00041  20263704.79347  20263701.59049
  -4787156.34848  -3730249.24841         0.00041         0.00041  24001357.26348
 97 06 19 17 22 00.0000000  0  5 04 09 16 24 30
  -1814563.22849  -1413943.66446         0.00041  20912614.81946  20912611.87649
    578199.18549    450541.97646         0.00041  21595390.45546  21595387.16649
    492678.57348         0.00041         0.00041         0.00041  24728514.76548
 -13786424.03749 -10742664.50747         0.00041  20261151.60247  20261148.38649
  -4880701.13748         0.00041         0.00041         0.00041  23983556.61248
 97 06 19 17 22 30.0000000  0  7 04 07 09 10 16 24 30
  -1761130.32949  -1372307.65046         0.00041  20922783.04846  20922780.21849
         0.22858         0.48654         0.00051  23524202.07354  23524197.18358
    631857.19949    492353.39646         0.00041  21605600.45046  21605597.58049
        -0.03358         0.13354         0.00051  24560208.53954  24560203.68658
    522508.33348         0.00041         0.00041         0.00041  24734192.42048
 -13799379.18749 -10752759.42547         0.00041  20258686.54647  20258683.35249
  -4974296.31348  -3876072.52241         0.00041         0.00041  23965746.03948
 97 06 19 17 23 00.0000000  0  7 04 07 09 10 16 24 30
  -1707411.71949  -1330449.00446         0.00041  20933004.93646  20933002.55949
     72353.65848     56379.72644         0.00041  23537970.08644  23537967.84648
    685808.16249    534393.07446         0.00041  21615866.90446  21615864.62049
    -90561.87848    -70567.50744         0.00041  24542978.03544  24542973.73748
    552716.85948         0.00041         0.00041         0.00041  24739938.06348
 -13811925.40149 -10762535.68947         0.00041  20256298.90947  20256295.74349
  -5068021.40148         0.00041         0.00041         0.00041  23947911.17048
 97 06 19 17 23 30.0000000  0  7 04 05 07 09 10 24 30
  -1653098.23749  -1288126.81946         0.00041  20943340.61346  20943338.25549
        -0.85258         0.00051         0.00051         0.00051  21285392.39558
    144860.94948    112878.91644         0.00041  23551768.95744  23551766.18648
    740341.87449    576886.84646         0.00041  21626244.72246  21626242.23149
   -181085.29148   -141105.18644         0.00041  24525752.04644  24525747.61748
 -13823785.51749 -10771777.33047         0.00041  20254042.14147  20254038.98149
  -5161584.26648         0.00041         0.00041         0.00041  23930106.79848
 97 06 19 17 24 00.0000000  0  7 04 05 07 09 10 24 30
  -1598138.30549  -1245300.91246         0.00041  20953798.75346  20953796.76749
    -59388.62848         0.00041         0.00041         0.00041  21274089.50148
    217584.20848    169546.37944         0.00041  23565608.48044  23565604.73848
    795491.98449    619860.93246         0.00041  21636739.94746  21636736.47849
   -271523.71748   -211576.68744         0.00041  24508540.37444  24508537.29648
 -13834946.01749 -10780473.80847         0.00041  20251918.40247  20251915.37249
  -5254960.39548         0.00041         0.00041         0.00041  23912337.05748
 97 06 19 17 24 30.0000000  0  7 04 05 07 09 10 24 30
  -1542139.52449  -1201665.50646         0.00041  20964454.75346  20964453.04349
   -117946.74748         0.00041         0.00041         0.00041  21262948.77348
    290930.09148    226698.96844         0.00041  23579564.91844  23579562.13948
    851660.05349    663628.24246         0.00041  21647428.62246  21647424.49449
   -361462.89648   -281659.18144         0.00041  24491426.46044  24491422.21448
 -13845025.72449 -10788328.11147         0.00041  20250000.17047  20249997.16549
  -5347761.65548         0.00041         0.00041         0.00041  23894678.42048
 97 06 19 17 25 00.0000000  0  7 04 05 07 09 10 24 30
  -1485593.43449  -1157603.62146         0.00041  20975215.07746  20975213.28349
   -176152.94548         0.00041         0.00041         0.00041  21251871.62948
    364418.18448    283962.37044         0.00041  23593549.38644  23593546.82548
    908373.03949    707820.17446         0.00041  21658220.63346  21658216.80149
   -451381.86048   -351725.90044         0.00041  24474319.10044  24474312.58148
 -13854516.74449 -10795723.69947         0.00041  20248193.98847  20248190.83549
  -5440466.31648         0.00041         0.00041         0.00041  23877038.21748
 97 06 19 17 25 30.0000000  0  8 04 05 06 07 09 10 24 30
  -1428678.81149  -1113254.56546         0.00041  20986045.40946  20986043.74649
   -234168.52048         0.00041         0.00041         0.00041  21240832.35948
        -0.65058        -0.12051         0.00051         0.00051  25474175.35958
    437866.05348    341194.49344         0.00041  23607525.66844  23607522.58648
    965473.55949    752314.06046         0.00041  21669086.70146  21669083.65649
   -541448.00748   -421907.29644         0.00041  24457175.68944  24457173.09948
 -13863586.69649 -10802791.19147         0.00041  20246468.05947  20246464.88549
  -5533230.78748         0.00041         0.00041         0.00041  23859385.86448
 97 06 19 17 26 00.0000000  0  8 04 05 06 07 09 10 24 30
  -1371321.27349  -1068560.39046         0.00041  20996960.18146  20996958.44849
   -291921.36248         0.00041         0.00041         0.00041  21229841.26848
    -67791.87048         0.00041         0.00041         0.00041  25461274.60348
    511336.47348    398444.16544         0.00041  23621508.87844  23621502.34848
   1023047.51549    797176.86046         0.00041  21680042.30946  21680039.25049
   -631582.41248   -492141.80244         0.00041  24440023.62244  24440019.42048
 -13872137.98549 -10809454.53547         0.00041  20244840.70347  20244837.55949
  -5625974.69848         0.00041         0.00041         0.00041  23841736.36448
 97 06 19 17 26 30.0000000  0  7 04 05 07 09 10 24 30
  -1313677.10449  -1023642.86646         0.00041  21007929.27946  21007927.86049
   -349552.61948         0.00041         0.00041         0.00041  21218873.88648
    584662.32048    455581.18944         0.00041  23635463.45344  23635455.95948
   1080941.55149    842289.06346         0.00041  21691059.04346  21691055.93149
   -721939.51648         0.00041         0.00041         0.00041  24422826.66348
 -13880320.93849 -10815830.86747         0.00041  20243283.62047  20243280.43849
  -5718844.51348         0.00041         0.00041         0.00041  23824062.56148
 97 06 19 17 27 00.0000000  0  7 04 05 07 09 10 24 30
  -1255513.99949   -978320.96446         0.00041  21018996.97846  21018996.00949
   -406853.64148         0.00041         0.00041         0.00041  21207971.11448
    658063.48948    512776.88944         0.00041  23649430.24244  23649423.79748
   1139357.21849    887807.73146         0.00041  21702175.39746  21702172.01849
   -812296.63448         0.00041         0.00041         0.00041  24405629.62548
 -13887903.79449 -10821739.57847         0.00041  20241840.66947  20241837.63549
  -5811598.44547         0.00041         0.00041         0.00041  23806413.01847
 97 06 19 17 27 30.0000000  0  6 04 05 07 09 10 24
  -1196890.09949   -932639.99946         0.00041  21030152.65846  21030152.01049
   -463897.33047         0.00041         0.00041         0.00041  21197117.70847
    731475.39648    569981.01244         0.00041  23663399.64544  23663393.62048
   1198202.81549    933661.42446         0.00041  21713373.89746  21713370.61349
   -902708.11948   -703408.37641         0.00041         0.00041  24388426.12048
 -13894945.79049 -10827226.83147         0.00041  20240500.48147  20240497.65049
 97 06 19 17 28 00.0000000  0  6 04 06 07 09 10 24
  -1138074.39649   -886809.57846         0.00041  21041345.27046  21041344.18349
        -0.14758         0.37451         0.00051         0.00051  25409617.96758
    804631.13848    626985.44444         0.00041  23677318.68744  23677314.60748
   1257192.94449    979627.73546         0.00041  21724599.57846  21724595.81549
   -993441.37048   -774109.60741         0.00041         0.00041  24371159.61148
 -13901725.81149 -10832509.94347         0.00041  20239210.61747  20239207.55349
 97 06 19 17 28 30.0000000  0  6 04 06 07 09 10 24
  -1079346.29249   -841047.42246         0.00041  21052521.00446  21052519.31049
    -68512.92948    -53386.23241         0.00041         0.00041  25396579.32148
    877267.22348    683584.99444         0.00041  23691142.94544  23691138.71048
   1316046.90449   1025487.93346         0.00041  21735798.87846  21735794.97749
  -1084758.05948   -845265.39141         0.00041         0.00041  24353782.96248
 -13908523.70449 -10837806.98647         0.00041  20237917.00647  20237913.84449
 97 06 19 17 29 00.0000000  0  6 04 06 07 09 10 24
  -1021684.97549   -796116.54446         0.00041  21063493.74446  21063491.52949
   -138502.35948         0.00041         0.00041         0.00041  25383260.72248
    948403.08748    739015.46544         0.00041  23704677.27944  23704675.38248
   1373786.66749   1070479.93146         0.00041  21746786.06546  21746782.38949
  -1177631.18347         0.00041         0.00041         0.00041  24336106.29647
 -13916307.72649 -10843872.44947         0.00041  20236435.48947  20236432.20249
 97 06 19 17 29 30.0000000  0  6 04 06 07 09 10 24
   -967977.83949   -754266.84546         0.00041  21073713.75046  21073711.34649
   -212840.90148         0.00041         0.00041         0.00041  25369114.78748
   1015160.89948    791034.41644         0.00041  23717379.94644  23717376.74848
   1427563.89649   1112384.22346         0.00041  21757019.02746  21757015.90149
  -1274937.92447         0.00041         0.00041         0.00041  24317588.10147
 -13927957.86449 -10852950.47547         0.00041  20234218.64547  20234215.17449
 97 06 19 17 30 00.0000000  0  6 04 06 07 09 10 24
   -925011.09649   -720786.28746         0.00041  21081890.52346  21081888.56249
   -298286.40148         0.00041         0.00041         0.00041  25352854.48648
   1070758.24848    834356.95944         0.00041  23727960.38944  23727958.39148
   1470612.51649   1145928.56746         0.00041  21765211.90046  21765208.79849
  -1383456.52148  -1078017.26141         0.00041         0.00041  24296940.34748
 -13950262.52649 -10870330.72447         0.00041  20229973.99847  20229970.62349
 97 06 19 17 30 30.0000000  0  6 04 06 07 09 10 24
   -891674.08749   -694809.40646         0.00041  21088234.59646  21088232.69449
   -393708.96048   -306785.66141         0.00041         0.00041  25334699.56948
   1116318.39948    869858.30644         0.00041  23736630.71544  23736629.04248
   1504048.39249   1171982.47446         0.00041  21771574.97746  21771571.80049
  -1502072.43048  -1170445.19644         0.00041  24274373.69544  24274368.33948
 -13982099.29149 -10895138.58747         0.00041  20223915.78847  20223912.25249
 97 06 19 17 31 00.0000000  0  6 04 06 07 09 10 24
   -852060.45149   -663941.64546         0.00041  21095773.03046  21095770.18749
   -483208.77148         0.00041         0.00041         0.00041  25317667.86948
   1167745.41948    909931.25144         0.00041  23746417.03844  23746414.82248
   1543781.16449   1202943.05346         0.00041  21779135.46446  21779131.72349
  -1614892.03648  -1258356.52841         0.00041         0.00041  24252899.54348
 -14007563.47149 -10914980.79547         0.00041  20219070.10347  20219066.64049
 97 06 19 17 31 30.0000000  0  6 04 06 07 09 10 24
   -804932.51849   -627218.59446         0.00041  21104740.85446  21104738.43049
   -565543.42848         0.00041         0.00041         0.00041  25301997.98348
   1226292.76848    955552.54644         0.00041  23757558.83544  23757555.63148
   1591052.81149   1239778.07646         0.00041  21788130.71846  21788126.70949
  -1720670.26948  -1340781.13844         0.00041  24232778.50344  24232771.39148
 -14025411.71149 -10928888.51047         0.00041  20215673.70847  20215670.46349
 97 06 19 17 32 00.0000000  0  7 04 05 06 07 09 10 24
   -753287.47449   -586975.72246         0.00041  21114568.41746  21114566.52849
        -0.60857         0.00051         0.00051         0.00051  21081911.61157
   -643711.07147         0.00041         0.00041         0.00041  25287120.03047
   1288978.34748   1004398.43544         0.00041  23769488.47944  23769483.87748
   1642841.18749   1280132.62846         0.00041  21797985.25846  21797981.86549
  -1822403.29748  -1420053.55844         0.00041  24213418.90944  24213413.45548
 -14038635.48549 -10939192.74247         0.00041  20213157.31647  20213154.11749
 97 06 19 17 32 30.0000000  0  7 04 05 06 07 09 10 24
   -699363.49049   -544957.03646         0.00041  21124829.68646  21124828.20049
    -63354.24047         0.00041         0.00041         0.00041  21069858.98647
   -719969.63747         0.00041         0.00041         0.00041  25272608.85047
   1353571.60448   1054730.81245         0.00041  23781779.05845  23781775.87548
   1696898.50649   1322255.17746         0.00041  21808271.73846  21808268.71049
  -1922329.69948  -1497918.22145         0.00041  24194404.27245  24194397.58848
 -14049459.89249 -10947627.34247         0.00041  20211097.68647  20211094.46849
 97 06 19 17 33 00.0000000  0  6 04 06 07 09 10 24
   -643902.98449   -501741.07546         0.00041  21135383.29346  21135381.81949
   -795085.86548         0.00041         0.00041         0.00041  25258316.19848
   1419322.11948   1105964.91244         0.00041  23794289.71944  23794286.51048
   1752482.84649   1365567.62146         0.00041  21818849.51246  21818846.46449
  -2021185.51948  -1574948.65344         0.00041  24175592.12344  24175585.82248
 -14058632.25549 -10954774.63247         0.00041  20209352.27847  20209348.84849
 97 06 19 17 33 30.0000000  0  6 04 06 07 09 10 24
   -587191.72049   -457550.49046         0.00041  21146175.28746  21146173.24149
   -869345.42748   -677411.50841         0.00041         0.00041  25244186.91748
   1485950.67548   1157883.23444         0.00041  23806969.57744  23806964.78248
   1809300.30749   1409840.94146         0.00041  21829661.66446  21829658.24949
  -2119232.57548  -1651348.89244         0.00041  24156934.91644  24156927.62048
 -14066432.32649 -10960852.60647         0.00041  20207867.91347  20207864.60849
 97 06 19 17 34 00.0000000  0  6 04 06 07 09 10 24
   -529455.25949   -412561.04846         0.00041  21157162.45246  21157160.61949
   -942990.28048         0.00041         0.00041         0.00041  25230173.47048
   1553217.59448   1210298.97944         0.00041  23819769.60144  23819766.81348
   1867114.26149   1454890.75746         0.00041  21840664.32946  21840660.25549
  -2216687.52548  -1727287.75044         0.00041  24138391.66444  24138382.72848
 -14073098.23249 -10966046.81247         0.00041  20206599.26547  20206595.94749
 97 06 19 17 34 30.0000000  0  6 04 06 07 09 10 24
   -470872.71749   -366912.31746         0.00041  21168310.73446  21168308.81249
  -1016195.29348   -791839.85941         0.00041         0.00041  25216242.87348
   1620922.46748   1263055.98945         0.00041  23832654.56845  23832650.92748
   1925758.58249   1500587.61146         0.00041  21851823.82446  21851820.08249
  -2313715.51148  -1802893.91644         0.00041  24119923.15044  24119918.77448
 -14078816.60349 -10970502.67647         0.00041  20205510.98747  20205507.75849
 97 06 19 17 35 00.0000000  0  7 04 06 07 09 10 24 30
   -411569.91749   -320702.34546         0.00041  21179595.21846  21179593.82749
  -1089071.29848         0.00041         0.00041         0.00041  25202374.52348
   1688920.88948   1316041.71445         0.00041  23845593.60345  23845591.01448
   1985111.01949   1546836.23846         0.00041  21863117.26246  21863114.09449
  -2410442.49148  -1878265.49044         0.00041  24101516.92344  24101512.36448
 -14083729.80249 -10974331.13647         0.00041  20204576.23047  20204572.63049
        -0.10258        -0.68354         0.00051  23497438.89954  23497439.49158
 97 06 19 17 35 30.0000000  0  7 04 06 07 09 10 24 30
   -351705.15749   -274054.49146         0.00041  21190987.69646  21190985.26249
  -1161757.93748         0.00041         0.00041         0.00041  25188541.74848
   1757040.28348   1369121.73645         0.00041  23858558.97445  23858553.93448
   2045005.68148   1593507.40346         0.00041  21874514.94146  21874512.03348
  -2507032.91348  -1953530.68744         0.00041  24083135.00044  24083133.24648
 -14087995.36349 -10977654.95147         0.00041  20203764.27247  20203760.73649
    -97445.79348    -75932.38544         0.00041  23478897.99544  23478894.08048
 97 06 19 17 36 00.0000000  0  7 04 06 07 09 10 24 30
   -291267.35149   -226960.10446         0.00041  21202488.97646  21202485.98149
  -1234237.98848         0.00041         0.00041         0.00041  25174750.26248
   1825284.51248   1422298.98644         0.00041  23871542.11144  23871538.99248
   2105462.97848   1640616.96546         0.00041  21886018.99046  21886016.20348
  -2603495.16548  -2028696.00444         0.00041  24064776.92444  24064776.05948
 -14091600.00249 -10980463.76347         0.00041  20203078.70047  20203075.09949
   -194658.73648   -151682.76141         0.00041         0.00041  23460393.00248
 97 06 19 17 36 30.0000000  0  7 04 06 07 09 10 24 30
   -230268.60948   -179428.62346         0.00041  21214095.51546  21214093.31948
  -1306503.40648         0.00041         0.00041         0.00041  25160998.32048
   1893652.79648   1475572.91344         0.00041  23884557.83344  23884549.64248
   2166481.99848   1688164.19446         0.00041  21897630.39546  21897628.31548
  -2699843.46848  -2103772.52044         0.00041  24046446.76144  24046441.48548
 -14094536.85549 -10982752.21547         0.00041  20202519.60447  20202515.94449
   -291653.63147         0.00041         0.00041         0.00041  23441935.79747
 97 06 19 17 37 00.0000000  0  7 04 06 07 09 10 24 30
   -168733.19848   -131478.98346         0.00041  21225805.84146  21225803.78648
  -1378584.44648  -1074220.87041         0.00041         0.00041  25147282.28748
   1962135.36748   1528935.89241         0.00041         0.00041  23897581.11948
   2228036.01349   1736128.32246         0.00041  21909344.96746  21909341.81049
  -2796100.17548  -2178777.64144         0.00041  24028128.82844  24028125.36148
 -14096810.08149 -10984523.56446         0.00041  20202087.00046  20202083.37449
   -388455.12547         0.00041         0.00041         0.00041  23423512.88347
 97 06 19 17 37 30.0000000  0  7 04 06 07 09 10 24 30
   -106696.97748    -83139.05146         0.00041  21237610.83246  21237608.66848
  -1450522.26648  -1130276.29144         0.00041  25133600.08744  25133592.70848
   2030725.72248   1582382.81641         0.00041         0.00041  23910633.73048
   2290085.51448   1784478.51646         0.00041  21921153.05346  21921148.89548
  -2892277.77648  -2253721.14544         0.00041  24009825.22344  24009822.03048
 -14098435.75649 -10985790.32746         0.00041  20201777.55446  20201773.96049
   -485093.19148   -377995.18044         0.00041  23405131.22444  23405125.12248
 97 06 19 17 38 00.0000000  0  7 04 06 07 09 10 24 30
    -44164.96848    -34412.82446         0.00041  21249510.59246  21249508.33048
  -1522313.74948  -1186217.69444         0.00041  25119939.77144  25119930.83548
   2099451.17448   1635935.03644         0.00041  23923713.55544  23923713.07148
   2352637.06448   1833219.96346         0.00041  21933056.28546  21933051.75748
  -2988340.21048  -2328574.95941         0.00041         0.00041  23991541.08048
 -14099409.01249 -10986548.70747         0.00041  20201591.98847  20201588.80649
   -581553.91848   -453159.38244         0.00041  23386774.82244  23386771.36848
 97 06 19 17 38 30.0000000  0  8 04 05 06 07 09 10 24 30
     18847.65648     14687.89446         0.00041  21261501.02846  21261499.23648
        -0.23557         0.00051         0.00051         0.00051  20937129.61557
  -1593971.48648  -1242054.87144         0.00041  25106304.31544  25106294.13848
   2168304.88548   1689587.19841         0.00041         0.00041  23936815.79448
   2415672.26148   1882338.28146         0.00041  21945051.12546  21945046.79948
  -3084272.09248  -2403326.96044         0.00041  23973289.62144  23973287.35548
 -14099749.46049 -10986813.98847         0.00041  20201527.58547  20201524.50149
   -677854.60148   -528198.88644         0.00041  23368447.48644  23368443.30748
 97 06 19 17 39 00.0000000  0  8 04 05 06 07 09 10 24 30
     82221.33248     64069.82146         0.00041  21273562.03846  21273558.85848
    -55236.82548         0.00041         0.00041         0.00041  20926615.94948
  -1665613.23948  -1297879.55244         0.00041  25092665.36344  25092662.35248
   2237180.15648   1743256.10041         0.00041         0.00041  23949921.58448
   2479066.55449   1931736.38846         0.00041  21957114.61346  21957110.85049
  -3180182.25148  -2478062.07044         0.00041  23955039.97044  23955035.85948
 -14099590.11649 -10986689.81847         0.00041  20201557.80347  20201554.76849
   -774100.46148   -603195.63544         0.00041  23350135.17444  23350130.53848
 97 06 19 17 39 30.0000000  0  8 04 05 06 07 09 10 24 30
    145784.65948    113597.23546         0.00041  21285657.27846  21285653.49448
   -110353.61248    -85989.85441         0.00041         0.00041  20916130.15548
  -1737407.43748  -1353823.02544         0.00041  25079005.56444  25079001.15748
   2305913.94648         0.00041         0.00041         0.00041  23962998.89148
   2542647.09849   1981279.65046         0.00041  21969213.78646  21969210.11949
  -3276236.98748  -2552909.84044         0.00041  23936761.96644  23936756.61848
 -14099115.61949 -10986320.07847         0.00041  20201648.15947  20201645.00549
   -870462.27948   -678282.77244         0.00041  23331795.06344  23331794.66248
 97 06 19 17 40 00.0000000  0  8 04 05 06 07 09 10 24 30
    208779.97548    162680.80046         0.00041  21297643.90846  21297640.60448
   -166112.74848   -129438.55841         0.00041         0.00041  20905518.74948
  -1810112.38548  -1410476.17341         0.00041         0.00041  25065165.32748
   2373727.91447         0.00041         0.00041         0.00041  23975902.60047
   2605659.15349   2030379.92046         0.00041  21981204.38446  21981201.03649
  -3373208.81748  -2628472.28844         0.00041  23918312.98344  23918303.05448
 -14099089.86849 -10986300.01047         0.00041  20201652.96247  20201649.76549
   -967685.32048   -754040.96144         0.00041  23313296.95044  23313293.97048
 97 06 19 17 40 30.0000000  0  6 04 07 09 10 24 30
    272186.80448    212085.67546         0.00041  21309709.99246  21309706.41048
   2441592.51047         0.00041         0.00041         0.00041  23988816.22147
   2669079.98649   2079798.72046         0.00041  21993272.87646  21993269.45449
  -3470148.35448  -2704009.58844         0.00041  23899862.56844  23899856.22048
 -14098535.86249 -10985868.31647         0.00041  20201758.51647  20201755.45549
  -1064785.83248   -829703.69744         0.00041  23294814.31244  23294812.06048
 97 06 19 17 41 00.0000000  0  6 04 07 09 10 24 30
    336401.13348    262122.19046         0.00041  21321930.78646  21321927.29948
   2509901.61248         0.00041         0.00041         0.00041  24001817.66048
   2733297.17249   2129838.07446         0.00041  22005492.95846  22005489.50249
  -3566667.44448  -2779219.23544         0.00041  23881495.17244  23881489.93148
 -14097053.13349 -10984712.94547         0.00041  20202040.23647  20202037.48449
  -1161360.92648   -904956.93944         0.00041  23276441.28944  23276436.58548
 97 06 19 17 41 30.0000000  0  6 04 07 09 10 24 30
    401364.59848    312745.80246         0.00041  21334293.20046  21334289.88448
   2578568.60148         0.00041         0.00041         0.00041  24014885.97948
   2798248.04549   2180449.08046         0.00041  22017852.37146  22017849.16249
  -3662824.79548  -2854146.99444         0.00041  23863199.24144  23863189.80848
 -14094699.74949 -10982879.13947         0.00041  20202488.14247  20202485.80549
  -1257479.89748         0.00041         0.00041         0.00041  23258145.11748
 97 06 19 17 42 00.0000000  0  5 04 09 10 24 30
    467028.98248    363917.69946         0.00041  21346789.45346  21346786.27348
   2863889.63349   2231598.32546         0.00041  22030343.52146  22030340.34949
  -3758667.46348  -2928829.55044         0.00041  23844960.47444  23844950.79348
 -14091524.35249 -10980404.80147         0.00041  20203092.44047  20203090.25449
  -1353176.92248  -1054423.89844         0.00041  23239940.00844  23239936.66148
 97 06 19 17 42 30.0000000  0  6 04 07 09 10 24 30
    533797.25948    415949.83246         0.00041  21359494.42646  21359491.19548
        -0.79658        -0.71654         0.00051  24041283.53054  24041280.08858
   2930635.80149   2283608.29646         0.00041  22043045.33846  22043042.14949
  -3853772.28048  -3002937.17845         0.00041  23826860.57145  23826855.91548
 -14087116.10549 -10976969.80047         0.00041  20203931.30747  20203928.92149
  -1448044.72448  -1128346.84744         0.00041  23221886.10144  23221881.70348
 97 06 19 17 43 00.0000000  0  6 04 07 09 10 24 30
    601202.21048    468478.07046         0.00041  21372321.00246  21372317.53548
     70018.97848     54560.06044         0.00041  24054609.12344  24054604.70348
   2998017.22149   2336113.27846         0.00041  22055868.00246  22055864.48449
  -3948586.20048  -3076818.13445         0.00041  23808817.71945  23808813.54648
 -14081930.09049 -10972928.74047         0.00041  20204918.63647  20204915.87049
  -1542546.92148  -1201984.91644         0.00041  23203902.66744  23203899.39348
 97 06 19 17 43 30.0000000  0  7 04 05 07 09 10 24 30
    668721.26048    521092.83846         0.00041  21385168.99046  21385165.41348
         0.15458         0.00051         0.00051         0.00051  20834571.85358
    139824.52748    108953.93145         0.00041  24067894.06145  24067889.61748
   3065524.67349   2388716.44946         0.00041  22068713.49846  22068709.97249
  -4043617.74648  -3150868.64045         0.00041  23790733.77345  23790729.47048
 -14076470.09349 -10968674.18947         0.00041  20205957.45347  20205954.50249
  -1637191.81648  -1275734.15444         0.00041  23185893.18544  23185890.05848
 97 06 19 17 44 00.0000000  0  7 04 05 07 09 10 24 30
    736215.63748    573684.87446         0.00041  21398013.24446  21398009.19548
    -51599.37548         0.00041         0.00041         0.00041  20824754.14148
    209315.84548    163102.95145         0.00041  24081117.87445  24081112.60548
   3133024.55749   2441313.73746         0.00041  22081558.93946  22081554.76849
  -4138994.50948  -3225188.15745         0.00041  23772586.29145  23772580.03148
 -14070864.54949 -10964306.22847         0.00041  20207023.93747  20207020.89349
  -1732101.06048  -1349689.37744         0.00041  23167831.70344  23167827.79148
 97 06 19 17 44 30.0000000  0  7 04 05 07 09 10 24 30
    803662.69548    626241.07146         0.00041  21410847.53546  21410843.93848
   -103258.94848    -80460.81941         0.00041         0.00041  20814923.69348
    278452.28848    216975.44545         0.00041  24094273.92845  24094269.72748
   3200471.78048   2493869.97446         0.00041  22094393.35346  22094389.61948
  -4234737.00648  -3299792.62245         0.00041  23754366.49745  23754360.34848
 -14065144.29749 -10959848.88647         0.00041  20208112.61847  20208109.51749
  -1827311.86848  -1423879.57244         0.00041  23149714.63344  23149711.61548
 97 06 19 17 45 00.0000000  0  7 04 05 07 09 10 24 30
    871508.39248    679110.61445         0.00041  21423758.66145  21423754.22048
   -154543.50348   -120422.86341         0.00041         0.00041  20805162.53748
    347650.12748    270895.75145         0.00041  24107441.77145  24107436.85548
   3268296.35248   2546720.28546         0.00041  22107300.32646  22107295.71548
  -4330393.25848  -3374329.88844         0.00041  23736162.17344  23736157.80248
 -14058880.91549 -10954968.32546         0.00041  20209304.40846  20209301.25749
  -1922381.54948  -1497959.82744         0.00041  23131622.28444  23131619.07948
 97 06 19 17 45 30.0000000  0  7 04 05 07 09 10 24 30
    939868.45948    732378.51645         0.00041  21436764.67945  21436762.39548
   -205348.64448         0.00041         0.00041         0.00041  20795492.41948
    417008.43948    324941.10645         0.00041  24120638.46845  24120635.38248
   3336603.04448   2599946.26946         0.00041  22120298.32646  22120294.33448
  -4425846.08548  -3448708.63844         0.00041  23717997.88944  23717993.14248
 -14051990.56449 -10949599.22246         0.00041  20210615.69846  20210612.55749
  -2017204.40348  -1571847.72344         0.00041  23113576.29544  23113573.30048
 97 06 19 17 46 00.0000000  0  7 04 05 07 09 10 24 30
   1008721.59748    786030.24445         0.00041  21449868.01745  21449866.32948
   -255708.92948   -199253.06941         0.00041         0.00041  20785911.27948
    486498.82448    379089.41944         0.00041  24133862.32444  24133858.86748
   3405365.77348   2653527.59346         0.00041  22133383.13946  22133379.29748
  -4521121.53048  -3522949.16744         0.00041  23699867.17044  23699863.01148
 -14044509.79249 -10943770.05346         0.00041  20212039.42246  20212036.02149
  -2111804.79448  -1645562.28344         0.00041  23095575.22944  23095570.88548
 97 06 19 17 46 30.0000000  0  7 04 05 07 09 10 24 30
   1077905.89348    839940.05845         0.00041  21463033.68645  21463031.20448
   -305778.01048         0.00041         0.00041         0.00041  20776383.86248
    555948.53548    433206.07445         0.00041  24147078.15945  24147073.80748
   3474428.13648   2707342.39246         0.00041  22146526.01546  22146521.61548
  -4616370.74348  -3597169.22444         0.00041  23681740.50544  23681737.42448
 -14036584.85149 -10937594.77847         0.00041  20213547.53647  20213544.26949
  -2206332.52948  -1719220.26241         0.00041         0.00041  23077582.55048
 97 06 19 17 47 00.0000000  0  6 04 05 09 10 24 30
   1147384.34348    894079.09345         0.00041  21476254.08045  21476252.10648
   -355556.31348   -277056.28241         0.00041         0.00041  20766913.67648
   3543779.52248   2761382.39646         0.00041  22159722.93246  22159719.21348
  -4711612.91048  -3671383.88144         0.00041  23663615.26044  23663613.59548
 -14028212.74549 -10931071.05947         0.00041  20215140.70947  20215137.53049
  -2300795.27348  -1792827.55544         0.00041  23059610.95844  23059608.55248
 97 06 19 17 47 30.0000000  0  6 04 05 09 10 24 30
   1217188.79648    948472.13945         0.00041  21489538.39445  21489535.32648
   -404994.85448   -315579.81441         0.00041         0.00041  20757503.81548
   3613453.32449   2815673.64146         0.00041  22172981.30346  22172978.00349
  -4806832.03548  -3745580.55044         0.00041  23645495.35544  23645494.73548
 -14019343.27649 -10924159.77947         0.00041  20216828.36847  20216825.33949
  -2395156.46548  -1866355.71044         0.00041  23041654.34444  23041652.52248
 97 06 19 17 48 00.0000000  0  7 04 05 07 09 10 24 30
   1287317.59848   1003117.92545         0.00041  21502883.01145  21502880.46848
   -454076.89448   -353825.50741         0.00041         0.00041  20748164.68648
         0.19558         0.70054         0.00051  24186698.35454  24186694.96758
   3683472.20849   2870233.74646         0.00041  22186304.57246  22186302.32549
  -4902011.29648  -3819746.13144         0.00041  23627383.84544  23627382.82448
 -14009950.71049 -10916840.88946         0.00041  20218615.54746  20218612.75749
  -2489403.88248  -1939795.23444         0.00041  23023722.52744  23023718.59548
 97 06 19 17 48 30.0000000  0  8 04 05 06 07 09 10 24 30
   1357757.41348   1058006.08446         0.00041  21516287.42146  21516284.97248
   -502799.08948   -391790.86541         0.00041         0.00041  20738891.52848
        -0.64858         0.00051         0.00051         0.00051  24834962.83158
     69404.12048         0.00041         0.00041         0.00041  24199902.08648
   3753834.77648   2925061.66246         0.00041  22199694.71546  22199691.61848
  -4997144.02548  -3893875.40844         0.00041  23609283.41844  23609279.87448
 -14000053.01949 -10909128.39446         0.00041  20220498.85446  20220496.15149
  -2583553.12848  -2013158.28844         0.00041  23005802.84944  23005802.20848
 97 06 19 17 49 00.0000000  0  8 04 05 06 07 09 10 24 30
   1428421.98348   1113069.36045         0.00041  21529733.62645  21529732.58448
   -551258.56948   -429551.46641         0.00041         0.00041  20729670.42648
    -70972.46648         0.00041         0.00041         0.00041  24821457.03948
    138704.79148         0.00041         0.00041         0.00041  24213088.91448
   3824446.56948   2980083.79146         0.00041  22213132.25646  22213128.78748
  -5092324.02248  -3968041.60344         0.00041  23591172.21344  23591168.43248
 -13989763.72049 -10901110.75346         0.00041  20222456.73946  20222454.03849
  -2677702.48248  -2086521.39844         0.00041  22987889.95944  22987887.27348
 97 06 19 17 49 30.0000000  0  8 04 05 06 07 09 10 24 30
   1499521.16048   1168471.30645         0.00041  21543264.28045  21543261.47448
   -599270.87948         0.00041         0.00041         0.00041  20720533.71248
   -141817.56748         0.00041         0.00041         0.00041  24807975.13448
    208095.26948         0.00041         0.00041         0.00041  24226293.37548
   3895497.09748   3035447.81646         0.00041  22226652.92546  22226648.79248
  -5187346.09348  -4042084.74345         0.00041  23573090.22345  23573085.44748
 -13978909.11649 -10892652.61046         0.00041  20224521.79846  20224519.37049
  -2771655.39148  -2159731.49844         0.00041  22970012.95044  22970008.32948
 97 06 19 17 50 00.0000000  0  8 04 05 06 07 09 10 24 30
   1571077.56748   1224229.53046         0.00041  21556881.11446  21556878.08948
   -646804.88348   -504003.20744         0.00041  20711492.70244  20711489.54048
   -212480.16448         0.00041         0.00041         0.00041  24794527.80948
    277605.63648         0.00041         0.00041         0.00041  24239522.14048
   3967010.12448   3091172.21646         0.00041  22240261.43846  22240257.07948
  -5282165.01448  -4115969.57345         0.00041  23555046.78745  23555042.28248
 -13967469.63449 -10883738.72146         0.00041  20226698.89646  20226696.45349
  -2865379.41748  -2232763.15444         0.00041  22952174.48044  22952170.82648
 97 06 19 17 50 30.0000000  0  8 04 05 06 07 09 10 24 30
   1643006.98048   1280278.37346         0.00041  21570569.31646  21570567.07448
   -693952.92748   -540741.94744         0.00041  20702518.90844  20702517.93948
   -283057.70348         0.00041         0.00041         0.00041  24781099.52048
    347140.60348         0.00041         0.00041         0.00041  24252754.91748
   4038864.54248   3147162.63846         0.00041  22253934.61246  22253930.86748
  -5376888.32148  -4189779.86745         0.00041  23537021.91145  23537015.49248
 -13955537.82149 -10874441.19846         0.00041  20228969.71746  20228967.31349
  -2958952.32848  -2305677.00944         0.00041  22934367.14044  22934364.54848
 97 06 19 17 51 00.0000000  0  7 04 05 06 09 10 24 30
   1715259.97648   1336579.38446         0.00041  21584318.73646  21584315.62848
   -740776.24248   -577227.64944         0.00041  20693612.48344  20693609.03548
   -353611.95348         0.00041         0.00041         0.00041  24767674.69848
   4110982.81949   3203358.66146         0.00041  22267658.29346  22267655.14349
  -5471570.86348  -4263558.41345         0.00041  23519002.24245  23518998.80648
 -13943146.60949 -10864785.70447         0.00041  20231327.98647  20231325.23349
  -3052411.23248  -2378502.13741         0.00041         0.00041  22916584.06348
 97 06 19 17 51 30.0000000  0  7 04 05 06 09 10 24 30
   1787893.80748   1393177.15145         0.00041  21598139.64045  21598137.81448
   -787205.85348   -613406.59444         0.00041  20684777.87844  20684772.85948
   -424068.65948         0.00041         0.00041         0.00041  24754266.96048
   4183424.25849   3259806.48746         0.00041  22281443.53146  22281440.39949
  -5566135.94348  -4337245.43745         0.00041  23501006.91745  23501003.55548
 -13930221.21149 -10854713.96447         0.00041  20233787.53147  20233785.00749
  -3145691.91448         0.00041         0.00041         0.00041  22898830.09448
 97 06 19 17 52 00.0000000  0  8 04 05 06 09 10 16 24 30
   1860945.56048   1450100.58745         0.00041  21612040.82745  21612039.15548
   -833187.12248   -649236.17644         0.00041  20676025.58444  20676020.08948
   -494392.70947         0.00041         0.00041         0.00041  24740883.29847
   4256251.54649   3316554.98546         0.00041  22295302.35946  22295299.17849
  -5660538.99648  -4410806.20444         0.00041  23483043.56344  23483038.40248
        -0.97558        -0.84854         0.00051  25182608.19254  25182605.78858
 -13916705.54349 -10844182.27447         0.00041  20236359.23947  20236356.36349
  -3238746.76448         0.00041         0.00041         0.00041  22881120.56948
 97 06 19 17 52 30.0000000  0  8 04 05 06 09 10 16 24 30
   1934227.33948   1507203.23545         0.00041  21625984.22445  21625982.89448
   -878907.83948   -684862.63341         0.00041         0.00041  20667320.37148
   -564785.85647         0.00041         0.00041         0.00041  24727484.61047
   4329285.96848   3373464.90446         0.00041  22309200.46246  22309196.29648
  -5754966.51048  -4484386.06045         0.00041  23465076.08445  23465067.14948
     54816.75748     42714.28444         0.00041  25193042.88244  25193035.84448
 -13902775.71349 -10833327.86047         0.00041  20239010.33547  20239007.24649
  -3331760.47648  -2596176.76544         0.00041  22863429.22544  22863424.81748
 97 06 19 17 53 00.0000000  0  8 04 05 06 09 10 16 24 30
   2007658.28448   1564422.13645         0.00041  21639960.15945  21639957.44548
   -924436.43648   -720339.42644         0.00041  20658658.69944  20658658.56448
   -635321.05447         0.00041         0.00041         0.00041  24714065.16147
   4402467.41748   3430489.41546         0.00041  22323126.25346  22323122.29348
  -5849471.58848  -4558026.35445         0.00041  23447091.71245  23447083.27348
    109866.60848     85610.29844         0.00041  25203517.15044  25203511.32348
 -13888507.94849 -10822210.11046         0.00041  20241725.48946  20241722.46149
  -3424817.98548  -2668689.13941         0.00041         0.00041  22845716.16848
 97 06 19 17 53 30.0000000  0  8 04 05 06 09 10 16 24 30
   2081457.50748   1621928.03545         0.00041  21654002.47045  21654002.10348
   -969534.70148   -755480.93044         0.00041  20650078.33544  20650077.35148
   -705783.24547         0.00041         0.00041         0.00041  24700655.20347
   4476036.01948   3487815.58946         0.00041  22337125.96046  22337122.73148
  -5943844.38448  -4631563.54345         0.00041  23429133.11545  23429127.04248
    165361.64048    128853.16244         0.00041  25214079.56244  25214072.16048
 -13873703.60349 -10810674.25346         0.00041  20244542.73646  20244539.56849
  -3517700.93948         0.00041         0.00041         0.00041  22828039.27248
 97 06 19 17 54 00.0000000  0  7 04 05 09 10 16 24 30
   2155616.11448   1679713.99945         0.00041  21668115.12645  21668113.04448
  -1014195.73948   -790281.74944         0.00041  20641578.06344  20641577.10948
   4549978.27348   3545432.92046         0.00041  22351197.14246  22351194.01048
  -6038084.03548  -4704996.98345         0.00041  23411198.86345  23411194.28848
    221314.18848    172452.56041         0.00041         0.00041  25224719.53248
 -13858373.38349 -10798728.62246         0.00041  20247459.82046  20247456.74049
  -3610404.01647         0.00041         0.00041         0.00041  22810396.91647
 97 06 19 17 54 30.0000000  0  7 04 05 09 10 16 24 30
   2230129.09548   1737776.04545         0.00041  21682296.06345  21682292.57648
  -1058416.51548   -824739.49544         0.00041  20633163.90844  20633161.42548
   4624271.22648   3603323.50346         0.00041  22365333.68246  22365330.92748
  -6132163.88748  -4778305.90145         0.00041  23393297.08145  23393291.91548
    277747.51848         0.00041         0.00041         0.00041  25235457.36148
 -13842523.92549 -10786378.38646         0.00041  20250475.60546  20250472.87349
  -3702913.72948         0.00041         0.00041         0.00041  22792795.41048
 97 06 19 17 55 00.0000000  0  6 04 05 09 10 16 24
   2305000.50448   1796117.51141         0.00041         0.00041  21696540.24848
  -1102186.11748   -858845.70444         0.00041  20624835.96444  20624832.05548
   4698923.57048   3661494.11846         0.00041  22379539.75146  22379536.59148
  -6226065.60448  -4851476.02145         0.00041  23375425.98545  23375420.96148
    334680.18947         0.00041         0.00041         0.00041  25246291.41147
 -13826162.47849 -10773629.20646         0.00041  20253589.39546  20253586.56249
 97 06 19 17 55 30.0000000  0  6 04 05 09 10 16 24
   2380220.31848         0.00041         0.00041         0.00041  21710852.82748
  -1145504.99548   -892600.63944         0.00041  20616592.73144  20616589.51548
   4773928.82548   3719939.75346         0.00041  22393813.14646  22393809.76748
  -6319783.54348  -4924502.93645         0.00041  23357592.44645  23357588.17048
    392116.62048         0.00041         0.00041         0.00041  25257220.81748
 -13809291.76549 -10760483.19246         0.00041  20256799.59746  20256796.84849
 97 06 19 17 56 00.0000000  0  6 04 05 09 10 16 24
   2455715.97548   1913560.37344         0.00041  21725219.49144  21725217.98548
  -1188444.96648   -926060.36844         0.00041  20608422.25944  20608419.05648
   4849205.22848   3778596.65646         0.00041  22408137.58446  22408134.66048
  -6413359.11348  -4997418.88145         0.00041  23339785.78645  23339781.67148
    449997.94748         0.00041         0.00041         0.00041  25268236.12548
 -13791965.97349 -10746982.57246         0.00041  20260096.52646  20260093.65749
 97 06 19 17 56 30.0000000  0  6 04 05 06 09 10 24
   2531592.91348   1972687.25444         0.00041  21739655.34444  21739657.74348
  -1230912.68248   -959152.09445         0.00041  20600341.20245  20600338.56648
         0.02157         0.00051         0.00051         0.00051  24620415.84457
   4924862.09249   3837550.01546         0.00041  22422534.26446  22422531.70849
  -6506706.46948  -5070157.01845         0.00041  23322023.32345  23322017.30348
 -13774081.07349 -10733046.28646         0.00041  20263500.16946  20263497.09949
 97 06 19 17 57 00.0000000  0  6 04 05 06 09 10 24
   2607590.38148   2031906.65544         0.00041  21754122.99544  21754122.08248
  -1273177.06248   -992085.38145         0.00041  20592299.36645  20592294.81348
    -70239.30948    -54731.74041         0.00041         0.00041  24607052.08648
   5000625.84148   3896586.65646         0.00041  22436951.87346  22436949.06748
  -6600125.90248  -5142951.37545         0.00041  23304244.90645  23304240.23148
 -13755905.36049 -10718883.38846         0.00041  20266958.77046  20266955.63649
 97 06 19 17 57 30.0000000  0  7 04 05 06 07 09 10 24
   2683691.76648   2091206.45144         0.00041  21768604.52144  21768602.37948
  -1315252.12148  -1024871.12044         0.00041  20584292.95244  20584286.87448
   -140621.72048   -109575.11541         0.00041         0.00041  24593658.72148
        -0.56158         0.11654         0.00051  24438461.21754  24438456.94758
   5076460.76748   3955678.76646         0.00041  22451383.11946  22451379.66648
  -6693634.84948  -5215815.43545         0.00041  23286450.85245  23286445.89348
 -13737447.38949 -10704500.56146         0.00041  20270470.87946  20270467.93549
 97 06 19 17 58 00.0000000  0  6 04 05 07 09 10 24
   2760052.01448   2150707.91144         0.00041  21783139.07344  21783134.06248
  -1356992.89148  -1057396.36944         0.00041  20576347.72944  20576343.87848
     69653.18448     54275.69344         0.00041  24451720.59644  24451710.91648
   5152511.02648   4014938.69346         0.00041  22465855.77346  22465851.07348
  -6787104.87648  -5288649.14745         0.00041  23268663.58045  23268658.72148
 -13718558.98549 -10689782.32146         0.00041  20274065.03946  20274062.35649
 97 06 19 17 58 30.0000000  0  6 04 05 07 09 10 24
   2836711.80648   2210442.78944         0.00041  21797723.49244  21797720.99948
  -1398358.06648  -1089628.93744         0.00041  20568474.31144  20568474.16548
    139390.17248    108616.26341         0.00041         0.00041  24464958.13048
   5228819.46848   4074399.79546         0.00041  22480375.68946  22480372.20548
  -6880500.19048  -5361424.67945         0.00041  23250891.92945  23250885.55448
 -13699203.54249 -10674700.15846         0.00041  20277747.69446  20277745.72749
 97 06 19 17 59 00.0000000  0  6 04 05 07 09 10 24
   2913749.55148   2270472.13744         0.00041  21812384.06744  21812381.12648
  -1439252.12748  -1121494.45544         0.00041  20560693.20844  20560691.78648
    209889.87348         0.00041         0.00041         0.00041  24478244.79948
   5305466.75848   4134124.92746         0.00041  22494961.24346  22494958.02348
  -6973717.49548  -5434061.49545         0.00041  23233153.64745  23233147.86848
 -13679299.38249 -10659190.41646         0.00041  20281535.10146  20281533.11649
 97 06 19 17 59 30.0000000  0  5 04 05 09 10 24
   2991061.83248   2330715.48444         0.00041  21827094.38044  21827091.97148
  -1479767.07848  -1153064.52544         0.00041  20552983.03944  20552981.48548
   5382375.49648   4194053.76946         0.00041  22509595.50946  22509593.18648
  -7066825.24748  -5506612.94845         0.00041  23215435.49745  23215430.36848
 -13658937.56049 -10643324.03746         0.00041  20285410.42446  20285408.02249
 97 06 19 18 00 00.0000000  0  5 04 05 09 10 24
   3068743.64448   2391246.72944         0.00041  21841875.94344  21841873.91948
  -1519804.31748  -1184262.39444         0.00041  20545364.12944  20545362.88048
   5459652.44448   4254269.54546         0.00041  22524301.69846  22524298.69248
  -7159734.70548  -5579009.87545         0.00041  23197754.98945  23197750.17448
 -13638033.09749 -10627034.84146         0.00041  20289388.37246  20289386.31349
 97 06 19 18 00 30.0000000  0  7 04 05 07 09 10 24 30
   3146827.43548   2452091.23244         0.00041  21856736.11344  21856734.25248
  -1559302.71048  -1215040.33644         0.00041  20537848.22644  20537847.21448
        -0.61258         0.23854         0.00051  24518114.21954  24518110.47458
   5537335.61548   4314801.84646         0.00041  22539084.22446  22539081.18548
  -7252376.64848  -5651198.34245         0.00041  23180125.06245  23180120.91748
 -13616550.30749 -10610294.99746         0.00041  20293476.69746  20293474.47349
        -0.27758         0.00051         0.00051         0.00051  22583908.74758
 97 06 19 18 01 00.0000000  0  8 04 05 06 07 09 10 24 30
   3225214.26948   2513171.86245         0.00041  21871654.33745  21871651.19748
  -1598349.59748  -1245466.48544         0.00041  20530416.64744  20530416.17548
         0.04058         0.00051         0.00051         0.00051  24500238.68958
     70011.96748     54555.44344         0.00041  24531436.92144  24531433.70548
   5615333.79748   4375579.61046         0.00041  22553927.60146  22553923.82848
  -7344844.03048  -5723250.78145         0.00041  23162528.09545  23162524.78848
 -13594579.19249 -10593174.63046         0.00041  20297657.63546  20297655.16749
    -90292.53947         0.00041         0.00041         0.00041  22566727.50747
 97 06 19 18 01 30.0000000  0  6 04 05 06 09 10 24
   3303820.84348   2574423.71045         0.00041  21886610.53345  21886608.73848
  -1637022.52348  -1275601.27744         0.00041  20523059.17444  20523057.21848
    -69842.83048         0.00041         0.00041         0.00041  24486947.96648
   5693573.88748   4436545.87546         0.00041  22568815.98646  22568812.28348
  -7437209.89848  -5795224.12445         0.00041  23144953.04445  23144948.32648
 -13572193.43149 -10575731.18146         0.00041  20301917.25546  20301914.92649
 97 06 19 18 02 00.0000000  0  7 04 05 06 07 09 10 24
   3382678.15448   2635870.94245         0.00041  21901617.98445  21901615.01148
  -1675280.33448  -1305412.60444         0.00041  20515779.59244  20515777.06348
   -139684.78148         0.00041         0.00041         0.00041  24473656.65648
        -0.79658         0.25454         0.00051  24558087.46854  24558082.14658
   5772076.46548   4497716.69946         0.00041  22583755.36146  22583751.25848
  -7529442.72648  -5867093.78144         0.00041  23127398.78244  23127396.17648
 -13549368.55649 -10557945.56246         0.00041  20306261.04346  20306257.90649
 97 06 19 18 02 30.0000000  0  7 04 05 06 07 09 10 24
   3461776.72448   2697506.15645         0.00041  21916668.95945  21916667.29948
  -1713129.34648  -1334905.35644         0.00041  20508576.69844  20508575.29348
   -209515.85648         0.00041         0.00041         0.00041  24460368.05048
     70138.39348         0.00041         0.00041         0.00041  24571407.26748
   5850840.12748   4559090.95346         0.00041  22598743.77946  22598739.19148
  -7621527.35648  -5938847.96045         0.00041  23109877.69145  23109873.02948
 -13526098.20349 -10539812.82546         0.00041  20310689.47446  20310686.39949
 97 06 19 18 03 00.0000000  0  8 04 05 06 07 09 10 24 30
   3541115.64648   2759328.67745         0.00041  21931767.17845  21931765.13748
  -1750584.57448  -1364091.27044         0.00041  20501447.88644  20501446.91848
   -279343.81648         0.00041         0.00041         0.00041  24447080.72048
    140990.68648         0.00041         0.00041         0.00041  24584759.56948
   5929876.95848   4620678.07146         0.00041  22613782.42746  22613779.08348
  -7713459.42048  -6010483.29745         0.00041  23092382.70845  23092378.96148
 -13502366.95649 -10521320.94846         0.00041  20315205.61146  20315202.66249
        -0.38358         0.49654         0.00051  22498282.98754  22498284.55958
 97 06 19 18 03 30.0000000  0  7 04 05 06 09 10 24 30
   3620677.98148   2821325.26745         0.00041  21946906.38145  21946905.10248
  -1787674.64348  -1392992.63145         0.00041  20494390.63845  20494388.76448
   -349214.73248         0.00041         0.00041         0.00041  24433783.76548
   6009151.36948   4682450.29946         0.00041  22628867.85646  22628864.06548
  -7805250.58148  -6082008.80745         0.00041  23074917.84045  23074913.05948
 -13478213.24749 -10502499.88646         0.00041  20319802.13146  20319798.97549
    -89527.08648    -69760.55544         0.00041  22481248.82544  22481250.10948
 97 06 19 18 04 00.0000000  0  7 04 05 06 09 10 24 30
   3700523.51748   2883542.53345         0.00041  21962100.60545  21962098.75948
  -1824355.20648  -1421574.89045         0.00041  20487411.15745  20487410.21948
   -419066.07048   -326544.03041         0.00041         0.00041  24420490.22948
   6088698.43848   4744434.98446         0.00041  22644005.41446  22644001.59848
  -7896850.94348  -6153385.65345         0.00041  23057485.16845  23057482.23348
 -13453588.61649 -10483311.87546         0.00041  20324487.92746  20324484.73049
   -178850.71048         0.00041         0.00041         0.00041  22464252.17248
 97 06 19 18 04 30.0000000  0  8 04 05 06 07 09 10 24 30
   3780663.23148   2945989.06445         0.00041  21977351.21345  21977348.90548
  -1860622.57848  -1449835.16744         0.00041  20480509.24544  20480508.06248
   -488884.79448   -380948.25141         0.00041         0.00041  24407205.04748
        -0.57858         0.00051         0.00051         0.00051  24624781.21458
   6168513.71348   4806628.65946         0.00041  22659193.36346  22659190.61348
  -7988245.37648  -6224602.03945         0.00041  23040093.37545  23040089.88748
 -13428470.63049 -10463739.42546         0.00041  20329267.66946  20329264.63649
   -267957.75647         0.00041         0.00041         0.00041  22447292.71847
 97 06 19 18 05 00.0000000  0  8 04 05 06 07 09 10 24 30
   3861006.40548   3008594.11145         0.00041  21992639.40745  21992637.57348
  -1896572.65248  -1477848.18345         0.00041  20473669.12845  20473666.35948
   -558774.12848         0.00041         0.00041         0.00041  24393907.44848
     70053.93548     54587.34641         0.00041         0.00041  24638112.73748
   6248476.48748   4868937.26446         0.00041  22674409.89646  22674407.42648
  -8079534.46148  -6295736.35446         0.00041  23022722.07246  23022718.35448
 -13402966.12049 -10443865.78246         0.00041  20334120.84846  20334118.15749
   -356954.38147         0.00041         0.00041         0.00041  22430358.48447
 97 06 19 18 05 30.0000000  0  8 04 05 06 07 09 10 24 30
   3941594.87148   3071390.29645         0.00041  22007974.95345  22007973.06948
  -1932158.21948  -1505577.17445         0.00041  20466897.29845  20466894.01748
   -628681.06647         0.00041         0.00041         0.00041  24380603.83447
    140077.17748         0.00041         0.00041         0.00041  24651438.88048
   6328593.95148   4931366.40446         0.00041  22689655.93146  22689652.76748
  -8170696.87048  -6366771.94246         0.00041  23005374.76946  23005371.01648
 -13377056.38149 -10423676.37646         0.00041  20339051.56446  20339048.50049
   -445796.88047         0.00041         0.00041         0.00041  22413453.88447
 97 06 19 18 06 00.0000000  0  7 04 05 06 07 09 10 24
   4022483.36948   3134420.25846         0.00041  22023368.14446  22023366.30648
  -1967294.79148  -1532956.32145         0.00041  20460212.50345  20460209.24348
   -698510.48248   -544292.87744         0.00041  24367322.54944  24367315.94648
    210157.69347         0.00041         0.00041         0.00041  24664772.53747
   6408932.58148   4993967.87946         0.00041  22704944.14546  22704940.32048
  -8261669.02448  -6437659.27345         0.00041  22988062.97545  22988059.66248
 -13350662.03449 -10403109.35446         0.00041  20344073.84746  20344070.94149
 97 06 19 18 06 30.0000000  0  7 04 05 06 09 10 24 30
   4103705.01548   3197709.82046         0.00041  22038824.93746  22038823.19048
  -2001930.89248  -1559945.47245         0.00041  20453622.20945  20453618.20348
   -768220.93048   -598612.63544         0.00041  24354052.83344  24354051.28348
   6489537.15948   5056776.57546         0.00041  22720283.20246  22720280.08348
  -8352403.17048  -6508361.15145         0.00041  22970797.35345  22970792.59648
 -13323753.64049 -10382141.77446         0.00041  20349194.43946  20349191.54449
         0.23458         0.00051         0.00051         0.00051  22379775.47358
 97 06 19 18 07 00.0000000  0  7 04 05 06 09 10 24 30
   4185275.87248   3261271.50546         0.00041  22054346.81546  22054345.05748
  -2036033.63948  -1586519.04144         0.00041  20447129.26544  20447125.82048
   -837786.68748   -652819.67341         0.00041         0.00041  24340813.63748
   6570449.94848   5119825.45846         0.00041  22735680.28246  22735676.91548
  -8442873.61348  -6578857.52645         0.00041  22953580.18845  22953574.66548
 -13296323.38249 -10360767.54746         0.00041  20354414.11946  20354411.05749
    -88052.77348         0.00041         0.00041         0.00041  22363022.38548
 97 06 19 18 07 30.0000000  0  5 04 05 09 10 24
   4267138.65448   3325060.67546         0.00041  22069924.98946  22069923.09648
  -2069634.32848  -1612701.39644         0.00041  20440734.27944  20440732.87048
   6651655.86548   5183102.76946         0.00041  22751134.59346  22751130.43148
  -8533122.62048  -6649181.37545         0.00041  22936406.67045  22936402.18848
 -13268405.26749 -10339013.17446         0.00041  20359726.71246  20359723.42449
 97 06 19 18 08 00.0000000  0  6 04 05 06 09 10 24
   4349161.92648   3388974.89646         0.00041  22085532.11246  22085530.39048
  -2102853.22548  -1638586.22745         0.00041  20434412.98345  20434412.70748
         0.05358         1.09351         0.00051         0.00051  24314369.74158
   6733064.87548   5246538.34146         0.00041  22766626.36946  22766621.69948
  -8623256.70548  -6719415.69445         0.00041  22919254.67445  22919250.48848
 -13240112.60049 -10316966.94646         0.00041  20365110.84846  20365107.45249
 97 06 19 18 08 30.0000000  0  7 04 05 06 07 09 10 24
   4431531.36848   3453158.85946         0.00041  22101207.63746  22101205.18948
  -2135519.34348  -1664040.33345         0.00041  20428198.31245  20428196.46148
    -69342.23148         0.00041         0.00041         0.00041  24301174.64248
         0.07257         0.00051         0.00051         0.00051  24731779.37457
   6814863.80048   5310277.77546         0.00041  22782192.78646  22782186.95248
  -8713083.40248  -6789410.47245         0.00041  22902161.13945  22902157.55648
 -13211268.86649 -10294491.32146         0.00041  20370599.94446  20370596.74349
 97 06 19 18 09 00.0000000  0  6 04 05 06 09 10 24
   4514151.07648   3517537.84545         0.00041  22116929.57545  22116927.78348
  -2167723.41948  -1689134.42645         0.00041  20422072.00945  20422069.00848
   -138634.58748         0.00041         0.00041         0.00041  24287989.84048
   6896952.12548   5374242.68346         0.00041  22797812.85046  22797808.68648
  -8802692.54748  -6859235.75245         0.00041  22885109.15145  22885105.34948
 -13181964.77549 -10271656.97746         0.00041  20376175.87046  20376172.68949
 97 06 19 18 09 30.0000000  0  6 04 05 06 09 10 24
   4596874.16248   3581997.40245         0.00041  22132672.18245  22132669.38348
  -2199609.91748  -1713981.05645         0.00041  20416002.11945  20416000.70948
   -208019.16948         0.00041         0.00041         0.00041  24274787.32348
   6979158.48348   5438299.55846         0.00041  22813456.45446  22813452.14248
  -8892226.64548  -6929002.53145         0.00041  22868071.78945  22868067.21148
 -13152348.63248 -10248579.46846         0.00041  20381811.15446  20381807.92048
 97 06 19 18 10 00.0000000  0  6 04 05 06 09 10 24
   4679812.04248   3646624.31245         0.00041  22148454.55645  22148451.76948
  -2231078.44048  -1738501.98045         0.00041  20410013.90145  20410013.07748
   -277389.32147         0.00041         0.00041         0.00041  24261586.19447
   7061557.33848   5502506.43146         0.00041  22829136.65946  22829132.90948
  -8981570.17548  -6998620.81546         0.00041  22851069.25846  22851066.04948
 -13122327.08448 -10225186.06046         0.00041  20387523.78346  20387520.97148
 97 06 19 18 10 30.0000000  0  5 04 05 09 10 24
   4762962.23348   3711416.66845         0.00041  22164276.83045  22164274.78748
  -2262136.58548  -1762703.14945         0.00041  20404104.06745  20404100.88748
   7144114.55548   5566836.70146         0.00041  22844845.85646  22844842.57748
  -9070730.52548  -7068096.36846         0.00041  22834102.83246  22834099.22948
 -13091916.05148 -10201489.14746         0.00041  20393311.30146  20393308.39448
 97 06 19 18 11 00.0000000  0  5 04 05 09 10 24
   4846289.71048   3776347.17445         0.00041  22180133.04545  22180131.20648
  -2292813.67948  -1786607.37645         0.00041  20398266.00145  20398263.11748
   7226785.90348   5631255.88946         0.00041  22860576.95646  22860573.62348
  -9159748.23648  -7137460.75546         0.00041  22817162.48846  22817160.17548
 -13061143.75548 -10177510.73446         0.00041  20399166.81946  20399163.77448
 97 06 19 18 11 30.0000000  0  5 04 05 09 10 24
   4929893.57848   3841492.99745         0.00041  22196043.13645  22196040.97048
  -2323008.53648  -1810135.82545         0.00041  20392521.01245  20392518.09948
   7309673.81848   5695843.86946         0.00041  22876350.67846  22876346.44548
  -9248525.95848  -7206638.12646         0.00041  22800269.75646  22800266.42748
 -13029900.01248 -10153164.95546         0.00041  20405112.37346  20405109.63048
 97 06 19 18 12 00.0000000  0  6 04 05 07 09 10 24
   5013890.76348   3906945.35045         0.00041  22212026.98045  22212024.45048
  -2352607.13148  -1833199.66545         0.00041  20386888.10645  20386885.01048
        -0.19757         0.20151         0.00051         0.00051  24825776.70757
   7392904.01348   5760698.52746         0.00041  22892188.79846  22892184.82348
  -9336942.50348  -7275534.09046         0.00041  22783444.47046  22783440.94748
 -12998068.73149 -10128361.37146         0.00041  20411169.89746  20411166.79249
 97 06 19 18 12 30.0000000  0  6 04 05 07 09 10 24
   5098130.38948   3972586.59245         0.00041  22228057.28945  22228054.22448
  -2381745.13948  -1855904.61745         0.00041  20381343.46745  20381340.27448
     70752.41348     55132.04841         0.00041         0.00041  24839241.61348
   7476336.95848   5825711.18146         0.00041  22908064.51846  22908060.48648
  -9425139.48948  -7344258.95946         0.00041  22766660.55746  22766657.93348
 -12965790.03049 -10103209.15546         0.00041  20417312.73046  20417309.70649
 97 06 19 18 13 00.0000000  0  5 04 05 09 10 24
   5182605.12448   4038411.04345         0.00041  22244132.03845  22244129.74248
  -2410405.19548  -1878237.13845         0.00041  20375889.94445  20375885.96048
   7559987.00048   5890892.98746         0.00041  22923982.94546  22923979.73948
  -9513101.71448  -7412800.90046         0.00041  22749921.94146  22749918.40648
 -12933051.05949 -10077698.27446         0.00041  20423542.96346  20423539.81049
 97 06 19 18 13 30.0000000  0  6 04 05 07 09 10 24
   5267309.86048   4104414.71045         0.00041  22260250.97445  22260249.26748
  -2438570.87848  -1900184.42246         0.00041  20370529.80146  20370527.03948
        -0.99358        -0.24554         0.00051  24866186.23854  24866182.44058
   7643859.00748   5956247.73746         0.00041  22939943.60646  22939940.32248
  -9600814.09248  -7481148.17146         0.00041  22733231.06246  22733227.00348
 -12899850.72749 -10051827.89346         0.00041  20429860.67746  20429857.99549
 97 06 19 18 14 00.0000000  0  6 04 05 07 09 10 24
   5352197.04248   4170560.51145         0.00041  22276403.91445  22276402.06348
  -2466279.05048  -1921775.21046         0.00041  20365257.39546  20365255.88548
     70805.95048     55173.93444         0.00041  24879659.63144  24879657.40848
   7727919.40848   6021749.31146         0.00041  22955938.82946  22955935.63148
  -9688304.94948  -7549322.82046         0.00041  22716581.02946  22716577.80548
 -12866230.58449 -10025630.38946         0.00041  20436258.02946  20436255.60749
 97 06 19 18 14 30.0000000  0  6 04 05 07 09 10 24
   5437247.86448   4236833.86146         0.00041  22292588.38346  22292587.13248
  -2493544.40948  -1943020.93746         0.00041  20360068.56246  20360067.60648
    141618.07848         0.00041         0.00041         0.00041  24893131.34048
   7812151.25948   6087384.47945         0.00041  22971967.23045  22971964.03748
  -9775596.08548  -7617341.83646         0.00041  22699971.14946  22699966.59248
 -12832213.07849  -9999123.24646         0.00041  20442731.24546  20442729.01949
 97 06 19 18 15 00.0000000  0  6 04 05 07 09 10 24
   5522468.42648   4303239.45746         0.00041  22308806.76546  22308805.08748
  -2520373.42648  -1963926.67846         0.00041  20354963.88946  20354960.94848
    212432.50447         0.00041         0.00041         0.00041  24906607.39947
   7896563.71048   6153160.36845         0.00041  22988030.56245  22988028.36948
  -9862691.67548  -7685208.46546         0.00041  22683397.17546  22683393.62648
 -12797810.62749  -9972316.14746         0.00041  20449277.64946  20449275.43049
 97 06 19 18 15 30.0000000  0  6 04 05 07 09 10 24
   5607813.58848   4369742.15346         0.00041  22325048.03946  22325045.22848
  -2546834.24648  -1984545.51846         0.00041  20349928.13746  20349925.36448
    283198.95648         0.00041         0.00041         0.00041  24920074.65248
   7981099.85548   6219032.65845         0.00041  23004120.77845  23004116.00148
  -9949641.86348  -7752961.82646         0.00041  22666851.77146  22666847.78048
 -12763088.91249  -9945260.26846         0.00041  20455885.13746  20455882.72549
 97 06 19 18 16 00.0000000  0  6 04 05 07 09 10 24
   5693397.03748   4436430.53146         0.00041  22341333.24946  22341330.96748
  -2572839.29348  -2004809.20246         0.00041  20344978.25846  20344977.15848
    354028.40548         0.00041         0.00041         0.00041  24933551.65148
   8065859.94148   6285079.42145         0.00041  23020247.81545  23020245.22548
 -10036342.71448  -7820520.88246         0.00041  22650353.89446  22650348.67048
 -12727958.87649  -9917886.21846         0.00041  20462570.55946  20462567.57949
 97 06 19 18 16 30.0000000  0  6 04 05 07 09 10 24
   5779242.87848   4503323.40246         0.00041  22357669.77446  22357666.74148
  -2598372.29348  -2024705.04846         0.00041  20340120.92946  20340118.87348
    424921.87748         0.00041         0.00041         0.00041  24947045.02248
   8150847.81548   6351303.71845         0.00041  23036421.46945  23036417.24348
 -10122775.75048  -7887871.26746         0.00041  22633906.03946  22633900.23948
 -12692407.72549  -9890184.01946         0.00041  20469335.09946  20469332.80949
 97 06 19 18 17 00.0000000  0  6 04 05 07 09 10 24
   5865323.97148   4570399.56346         0.00041  22374049.96946  22374047.22648
  -2623444.21948  -2044241.61246         0.00041  20335350.07546  20335347.11748
    495862.72848         0.00041         0.00041         0.00041  24960545.22348
   8236032.36548   6417681.26945         0.00041  23052631.56545  23052625.43548
 -10208940.77148  -7955012.80246         0.00041  22617507.69446  22617503.31548
 -12656427.51749  -9862147.52446         0.00041  20476182.45546  20476179.87449
 97 06 19 18 17 30.0000000  0  6 04 05 07 09 10 24
   5951636.62848   4637656.16146         0.00041  22390473.68546  22390471.23248
  -2648047.04248  -2063412.64046         0.00041  20330667.49046  20330664.97548
    566873.03448         0.00041         0.00041         0.00041  24974058.42748
   8321401.74148   6484202.81145         0.00041  23068876.21545  23068870.36648
 -10294818.54248  -8021930.49446         0.00041  22601165.91346  22601162.09148
 -12620002.61949  -9833764.49246         0.00041  20483113.53446  20483111.39249
 97 06 19 18 18 00.0000000  0  6 04 05 07 09 10 24
   6038182.02948   4705094.13746         0.00041  22406942.54846  22406940.37448
  -2672162.14948  -2082203.62846         0.00041  20326079.03246  20326076.94948
    637968.22748         0.00041         0.00041         0.00041  24987585.42748
   8406949.30248   6550863.16945         0.00041  23085152.72845  23085150.83348
 -10380404.22148  -8088620.60446         0.00041  22584878.77746  22584876.06248
 -12583123.67049  -9805027.65846         0.00041  20490131.71246  20490128.73249
 97 06 19 18 18 30.0000000  0  7 04 05 06 07 09 10 24
   6124998.46648   4772743.30146         0.00041  22423463.30646  22423461.58248
  -2695729.68648  -2100567.93346         0.00041  20321594.05646  20321592.15048
        -0.18957         0.00051         0.00051         0.00051  24038078.47657
    709200.90547         0.00041         0.00041         0.00041  25001140.91647
   8492715.00548   6617693.52145         0.00041  23101473.80845  23101473.49448
 -10465645.14848  -8155042.07846         0.00041  22568659.21846  22568654.64848
 -12545739.92649  -9775897.48046         0.00041  20497245.93846  20497242.61549
 97 06 19 18 19 00.0000000  0  6 04 05 07 09 10 24
   6211926.99648   4840479.81346         0.00041  22440006.75746  22440002.75348
  -2718904.14348  -2118625.96346         0.00041  20317184.50746  20317182.30448
    780421.77547         0.00041         0.00041         0.00041  25014692.13447
   8578548.09148   6684576.37545         0.00041  23117808.97545  23117806.17548
 -10550698.64648  -8221317.51545         0.00041  22552474.29645  22552468.10448
 -12508018.25649  -9746503.98346         0.00041  20504424.11746  20504420.93449
 97 06 19 18 19 30.0000000  0  5 04 05 09 10 24
   6298999.06848   4908328.15646         0.00041  22456575.50646  22456572.09748
  -2741667.90048  -2136363.93946         0.00041  20312852.80646  20312850.65148
   8664483.39248   6751538.90446         0.00041  23134162.86846  23134158.83348
 -10635546.23348  -8287432.49745         0.00041  22536328.54945  22536322.08648
 -12469969.71349  -9716855.77346         0.00041  20511664.29946  20511661.11349
 97 06 19 18 20 00.0000000  0  6 04 05 09 10 24 30
   6386301.94948   4976356.35746         0.00041  22473189.13546  22473186.32448
  -2763924.71348  -2153706.88346         0.00041  20308617.51246  20308614.38748
   8750612.36448   6818652.34746         0.00041  23150553.17446  23150548.93948
 -10720116.97648  -8353331.75545         0.00041  22520234.19745  22520228.53148
 -12431518.07849  -9686893.45446         0.00041  20518981.16246  20518978.09249
        -0.01558         0.76954         0.00051  21943399.95954  21943397.32958
 97 06 19 18 20 30.0000000  0  6 04 05 09 10 24 30
   6473633.15348   5044406.62446         0.00041  22489807.69646  22489805.28648
  -2785862.32248  -2170801.12346         0.00041  20304442.79046  20304440.06848
   8836758.41748   6885779.09446         0.00041  23166948.17646  23166941.19748
 -10804599.87648  -8419162.54445         0.00041  22504156.97145  22504153.24248
 -12392856.42849  -9656767.49846         0.00041  20526338.41746  20526335.23749
    -81559.24348    -63551.87544         0.00041  21927875.72844  21927875.47248
 97 06 19 18 21 00.0000000  0  6 04 05 09 10 24 30
   6561164.35248   5112612.75446         0.00041  22506463.20846  22506460.85948
  -2807310.26348  -2187513.79446         0.00041  20300362.00046  20300358.83848
   8923104.06848   6953061.37346         0.00041  23183377.58446  23183372.22848
 -10888818.35848  -8484787.27945         0.00041  22488130.73345  22488128.11848
 -12353811.73549  -9626343.07246         0.00041  20533768.57846  20533765.41249
   -162817.35248   -126869.93744         0.00041  21912417.21044  21912414.72048
 97 06 19 18 21 30.0000000  0  6 04 05 09 10 24 30
   6648937.81048   5181007.64146         0.00041  22523166.93046  22523163.76548
  -2828214.14548  -2203802.54846         0.00041  20296383.30046  20296380.38948
   9009679.17648   7020522.46545         0.00041  23199851.31345  23199846.66648
 -10972724.60148  -8550168.69846         0.00041  22472164.45146  22472161.02048
 -12314333.94949  -9595581.16946         0.00041  20541280.67246  20541277.87849
   -243716.06648   -189907.91544         0.00041  21897021.40944  21897019.26448
 97 06 19 18 22 00.0000000  0  7 04 05 06 09 10 24 30
   6736949.14448   5249587.87546         0.00041  22539914.60746  22539911.94448
  -2848553.65448  -2219651.51146         0.00041  20292513.25646  20292510.10448
        -0.62658         0.00051         0.00051         0.00051  23946417.59558
   9096477.40648   7088157.41446         0.00041  23216368.11046  23216364.79948
 -11056302.75548  -8615294.50146         0.00041  22456260.42446  22456255.79748
 -12274398.32049  -9564462.50546         0.00041  20548879.81946  20548877.61349
   -324238.40448   -252652.63444         0.00041  21881697.15144  21881698.08648
 97 06 19 18 22 30.0000000  0  6 04 05 09 10 24 30
   6825186.89448   5318344.54046         0.00041  22556706.96946  22556703.12948
  -2868341.11648  -2235070.29946         0.00041  20288747.07346  20288744.49748
   9183487.31748   7155957.31746         0.00041  23232926.02846  23232921.69948
 -11139531.19648  -8680147.79846         0.00041  22440423.22346  22440418.72848
 -12234016.75649  -9532996.35246         0.00041  20556564.06546  20556561.70049
   -404400.42648   -315116.54144         0.00041  21866446.73544  21866443.63548
 97 06 19 18 23 00.0000000  0  6 04 05 09 10 24 30
   6913479.12648   5387143.66246         0.00041  22573508.22046  22573504.22348
  -2887763.29048  -2250204.46046         0.00041  20285051.61546  20285048.50848
   9270493.17948   7223754.06646         0.00041  23249483.66546  23249478.82448
 -11222589.41548  -8744868.46346         0.00041  22424617.85646  22424612.80348
 -12193379.93949  -9501331.30546         0.00041  20564296.81246  20564294.71249
   -484412.13948   -377463.33541         0.00041         0.00041  21851215.67448
 97 06 19 18 23 30.0000000  0  5 04 05 09 10 24
   7001952.39748   5456083.84445         0.00041  22590342.92445  22590339.86848
  -2906672.30248  -2264938.74546         0.00041  20281453.03546  20281450.60748
   9357608.82248   7291636.35646         0.00041  23266061.06046  23266057.07948
 -11305338.58548  -8809348.29846         0.00041  22408870.17646  22408865.42248
 -12152353.35049  -9469362.53546         0.00041  20572104.33046  20572101.81849
 97 06 19 18 24 00.0000000  0  5 04 05 09 10 24
   7090549.05248   5525120.16845         0.00041  22607203.44845  22607198.66948
  -2925121.61048  -2279314.83546         0.00041  20277942.31646  20277939.69948
   9444793.15748   7359572.15646         0.00041  23282652.59146  23282647.66748
 -11387822.14148  -8873621.16846         0.00041  22393174.78646  22393168.87348
 -12110988.65849  -9437130.30746         0.00041  20579975.46746  20579973.45349
 97 06 19 18 24 30.0000000  0  6 04 05 09 10 24 30
   7179332.10848   5594301.74545         0.00041  22624097.25645  22624094.82948
  -2943052.31748  -2293286.82146         0.00041  20274530.17946  20274527.35048
   9532107.75348   7427609.45646         0.00041  23299266.52246  23299263.33248
 -11469975.49048  -8937636.72546         0.00041  22377540.85846  22377536.06348
 -12069228.16549  -9404589.67146         0.00041  20587922.85046  20587919.87249
        -0.14257         0.18951         0.00051         0.00051  21805836.31557
 97 06 19 18 25 00.0000000  0  6 04 05 09 10 24 30
   7268287.41948   5663617.52945         0.00041  22641025.66545  22641022.45648
  -2960479.92448  -2306866.77046         0.00041  20271214.48446  20271211.42348
   9619534.20248   7495733.89746         0.00041  23315903.35546  23315900.01548
 -11551826.56748  -9001416.75646         0.00041  22361965.22646  22361960.87348
 -12027066.03049  -9371736.07546         0.00041  20595946.46946  20595943.26649
    -78905.66348    -61484.67544         0.00041  21790826.42944  21790824.01048
 97 06 19 18 25 30.0000000  0  6 04 05 09 10 24 30
   7357435.46248   5733083.51445         0.00041  22657989.74745  22657987.29548
  -2977366.74348  -2320025.34846         0.00041  20268000.43446  20267997.89748
   9707144.79948   7564001.81545         0.00041  23332574.92345  23332571.55548
 -11633327.04148  -9064923.56346         0.00041  22346457.04446  22346452.00248
 -11984461.66449  -9338537.88546         0.00041  20604053.60746  20604050.56049
   -157453.18848   -122690.51044         0.00041  21775882.68144  21775879.71948
 97 06 19 18 26 00.0000000  0  6 04 05 09 10 24 30
   7446822.28548   5802735.52645         0.00041  22674999.62745  22674996.68648
  -2993684.40248  -2332740.39846         0.00041  20264895.63446  20264892.66148
   9795002.09748   7632461.97145         0.00041  23349292.70945  23349289.61548
 -11714427.65348  -9128118.80046         0.00041  22331022.96746  22331018.32148
 -11941370.81349  -9304960.60946         0.00041  20612253.55446  20612250.35649
   -235594.12448   -183579.56544         0.00041  21761012.60844  21761011.96448
 97 06 19 18 26 30.0000000  0  6 04 05 09 10 24 30
   7536348.69648   5872496.33445         0.00041  22692035.32145  22692031.90448
  -3009532.99248  -2345089.97746         0.00041  20261879.67546  20261876.89748
   9882999.67448   7701031.44445         0.00041  23366038.81345  23366034.22948
 -11795232.33848  -9191083.46246         0.00041  22315645.80246  22315642.59348
 -11897899.28849  -9271086.70046         0.00041  20620525.65546  20620522.70849
   -313436.07448   -244235.60244         0.00041  21746200.33144  21746197.13248
 97 06 19 18 27 00.0000000  0  6 04 05 09 10 24 30
   7626108.78248   5942439.25245         0.00041  22709116.15945  22709113.19448
  -3024823.10749  -2357004.37746         0.00041  20258970.32146  20258967.26049
   9971228.84448   7769781.39644         0.00041  23382826.75144  23382823.14248
 -11875660.55448  -9253754.75646         0.00041  22300340.30846  22300337.07048
 -11853963.15449  -9236850.76646         0.00041  20628886.52346  20628883.86149
   -390882.34148   -304583.35144         0.00041  21731462.29144  21731459.29148
 97 06 19 18 27 30.0000000  0  7 04 05 06 09 10 24 30
   7716047.11548   6012521.04045         0.00041  22726229.47245  22726228.13748
  -3039597.81049  -2368517.14546         0.00041  20256158.64846  20256155.80749
        -1.01558         0.00051         0.00051         0.00051  23803063.71858
  10059644.20248   7838676.41744         0.00041  23399652.33744  23399648.44948
 -11955755.88548  -9316166.65746         0.00041  22285097.21246  22285094.95148
 -11809623.74748  -9202300.58246         0.00041  20637323.84246  20637321.47448
   -467981.88748   -364660.89844         0.00041  21716789.11744  21716786.25848
 97 06 19 18 28 00.0000000  0  7 04 05 06 09 10 24 30
   7806086.94348   6082681.90945         0.00041  22743364.58445  22743361.85048
  -3053942.02649  -2379694.46046         0.00041  20253428.47446  20253426.24749
    -68265.53048         0.00041         0.00041         0.00041  23790073.23048
  10148126.01648   7907623.23245         0.00041  23416491.18845  23416486.55648
 -12035615.32648  -9378394.72946         0.00041  22269900.97246  22269898.67848
 -11764975.50948  -9167509.74446         0.00041  20645820.23246  20645818.19448
   -544819.75348   -424534.53144         0.00041  21702166.09544  21702165.23848
 97 06 19 18 28 30.0000000  0  7 04 05 06 09 10 24 30
   7896233.11448   6152925.65945         0.00041  22760519.07145  22760516.87848
  -3067846.93448  -2390529.44746         0.00041  20250782.98046  20250779.77548
   -136560.44047         0.00041         0.00041         0.00041  23777076.38247
  10236654.55648   7976606.42345         0.00041  23433337.03245  23433333.74948
 -12115232.15248  -9440433.74646         0.00041  22254751.14746  22254748.56648
 -11720029.90048  -9132487.19846         0.00041  20654373.65146  20654370.54748
   -621396.58248   -484204.80844         0.00041  21687595.24844  21687594.60248
 97 06 19 18 29 00.0000000  0  7 04 05 06 09 10 24 30
   7986514.81648   6223275.02844         0.00041  22777697.96544  22777695.61748
  -3081282.00949  -2400998.33646         0.00041  20248225.95346  20248223.37049
   -204844.80547         0.00041         0.00041         0.00041  23764081.59547
  10325245.94548   8045638.63345         0.00041  23450195.76845  23450191.40148
 -12194560.80148  -9502248.21646         0.00041  22239656.04946  22239652.56948
 -11674758.81348  -9097211.04546         0.00041  20662988.26346  20662984.77848
   -697676.38548   -543643.64141         0.00041         0.00041  21673078.35248
 97 06 19 18 29 30.0000000  0  6 04 05 09 10 24 30
   8076892.60648   6293699.24844         0.00041  22794897.94244  22794893.92448
  -3094277.27449  -2411124.51946         0.00041  20245753.52746  20245750.52449
  10413857.12648   8114686.27745         0.00041  23467058.41545  23467053.89548
 -12273611.96648  -9563846.45346         0.00041  22224613.20046  22224609.27348
 -11629205.51248  -9061714.95846         0.00041  20671658.79246  20671652.05148
   -773690.92347         0.00041         0.00041         0.00041  21658610.78047
 97 06 19 18 30 00.0000000  0  5 04 05 09 10 24
   8167360.37648   6364193.57744         0.00041  22812113.35444  22812111.49648
  -3106838.56249  -2420912.55346         0.00041  20243363.28446  20243360.35649
  10502468.13248   8183733.76445         0.00041  23483919.74245  23483915.66748
 -12352378.40448  -9625222.84446         0.00041  22209624.64146  22209620.32048
 -11583383.69948  -9026009.64145         0.00041  20680376.04145  20680371.81948
 97 06 19 18 30 30.0000000  0  6 04 05 06 09 10 24
   8257959.60348   6434790.33344         0.00041  22829352.88744  22829350.31948
  -3118916.65349  -2430324.05646         0.00041  20241064.32346  20241062.05449
        -0.98957         0.00051         0.00051         0.00051  23725073.20757
  10591128.28248   8252819.52845         0.00041  23500792.63645  23500788.45648
 -12430805.89248  -9686335.13146         0.00041  22194701.03846  22194696.01348
 -11537233.30448  -8990048.30145         0.00041  20689158.95845  20689154.60948
 97 06 19 18 31 00.0000000  0  6 04 05 06 09 10 24
   8348791.83848   6505568.71244         0.00041  22846637.24344  22846636.46248
  -3130387.82649  -2439262.63146         0.00041  20238881.62146  20238878.51149
    -68196.11347         0.00041         0.00041         0.00041  23712097.34147
  10679956.76348   8322036.46746         0.00041  23517697.46646  23517693.13248
 -12508778.31748  -9747092.81546         0.00041  22179863.88746  22179858.34848
 -11490620.18648  -8953726.41845         0.00041  20698028.20145  20698025.15948
 97 06 19 18 31 30.0000000  0  7 04 05 06 09 10 24 30
   8439739.47348   6576436.96144         0.00041  22863944.65444  22863941.68048
  -3141354.97049  -2447808.46146         0.00041  20236794.76546  20236791.81149
   -136362.63347         0.00041         0.00041         0.00041  23699124.17147
  10768866.37448   8391316.62246         0.00041  23534615.25446  23534611.35448
 -12586403.17348  -9807579.66646         0.00041  22165091.30446  22165087.19248
 -11443643.96448  -8917121.56345         0.00041  20706968.10945  20706965.02948
        -0.79958        -0.62351         0.00051         0.00051  21601372.19458
 97 06 19 18 32 00.0000000  0  7 04 05 06 09 10 24 30
   8530798.25148   6647391.80844         0.00041  22881273.09544  22881269.44648
  -3151822.37649  -2455964.87346         0.00041  20234802.60546  20234799.85049
   -204504.54747         0.00041         0.00041         0.00041  23686158.54847
  10857862.57748   8460664.24845         0.00041  23551551.20545  23551547.06348
 -12663709.95348  -9867818.67146         0.00041  22150380.07246  22150376.14048
 -11396302.25048  -8880231.93345         0.00041  20715976.52845  20715973.22348
    -74284.53448    -57884.05744         0.00041  21587238.65944  21587236.95648
 97 06 19 18 32 30.0000000  0  7 04 05 06 09 10 24 30
   8622020.78848   6718474.28344         0.00041  22898630.21644  22898629.09048
  -3161734.77649  -2463688.82746         0.00041  20232916.49646  20232913.41349
   -272581.59548         0.00041         0.00041         0.00041  23673209.80748
  10946997.84748   8530120.24645         0.00041  23568514.20945  23568509.09148
 -12740659.66748  -9927779.44246         0.00041  22135736.93146  22135733.23448
 -11348553.34948  -8843024.94645         0.00041  20725061.90345  20725059.23848
   -148187.55648   -115470.81244         0.00041  21573175.22344  21573174.17248
 97 06 19 18 33 00.0000000  0  6 04 05 09 10 24 30
   8713398.46148   6789677.65644         0.00041  22916019.11144  22916019.18148
  -3171088.54949  -2470977.47546         0.00041  20231136.92446  20231134.03949
  11036291.55448   8599699.68045         0.00041  23585504.58645  23585500.24748
 -12817255.11148  -9987464.14846         0.00041  22121161.03746  22121157.32148
 -11300416.35548  -8805515.61445         0.00041  20734222.30145  20734219.28448
   -221717.01348   -172766.49941         0.00041         0.00041  21559180.59748
 97 06 19 18 33 30.0000000  0  5 04 05 09 10 24
   8804885.58848   6860966.28144         0.00041  22933432.35644  22933429.37648
  -3179952.49849  -2477884.42946         0.00041  20229450.37646  20229447.56349
  11125688.25648   8669359.37745         0.00041  23602516.56945  23602510.74648
 -12893564.67348 -10046926.08546         0.00041  22106640.20346  22106635.96648
 -11251981.63948  -8767774.29745         0.00041  20743440.53845  20743436.98748
 97 06 19 18 34 00.0000000  0  5 04 05 09 10 24
   8896481.83647   6932340.00244         0.00041  22950861.07844  22950853.49147
  -3188341.02249  -2484420.93346         0.00041  20227853.27546  20227851.06349
  11215146.32648   8739066.93744         0.00041  23619539.35944  23619532.71448
 -12969592.96348 -10106168.87646         0.00041  22092172.55346  22092167.76348
 -11203274.78948  -8729820.92445         0.00041  20752708.46645  20752705.90648
 97 06 19 18 34 30.0000000  0  5 04 05 09 10 24
   8988300.49548   7003886.93144         0.00041  22968336.90844  22968329.43648
  -3196129.24849  -2490489.72346         0.00041  20226370.96246  20226368.64749
  11304779.73448   8808911.08144         0.00041  23636595.99344  23636590.01748
 -13045180.71548 -10165068.38346         0.00041  22077788.27046  22077784.18148
 -11154164.87148  -8691553.40445         0.00041  20762055.01845  20762051.19848
 97 06 19 18 35 00.0000000  0  5 04 05 09 10 24
   9080269.39148   7075550.98444         0.00041  22985833.70644  22985831.82648
  -3203375.95349  -2496136.54046         0.00041  20224992.25146  20224990.09149
  11394519.95548   8878838.49244         0.00041  23653671.23144  23653669.65548
 -13120373.67149 -10223660.25646         0.00041  22063479.62146  22063475.83049
 -11104701.97248  -8653010.88146         0.00041  20771466.69946  20771463.72148
 97 06 19 18 35 30.0000000  0  5 04 05 09 10 24
   9172340.29048   7147294.47944         0.00041  23003353.59144  23003353.28448
  -3210146.76449  -2501412.51046         0.00041  20223703.83446  20223701.35049
  11484275.15048   8948777.57145         0.00041  23670752.34645  23670748.20948
 -13195219.12749 -10281981.33846         0.00041  22049237.54546  22049233.43649
 -11054935.47248  -8614231.80646         0.00041  20780936.87546  20780933.67748
 97 06 19 18 36 00.0000000  0  5 04 05 09 10 24
   9264456.41048   7219073.25144         0.00041  23020881.95644  23020882.39748
  -3216472.21849  -2506341.44146         0.00041  20222500.19146  20222497.37749
  11573993.33748   9018687.82145         0.00041  23687823.91245  23687821.33448
 -13269737.40848 -10340047.50346         0.00041  22035057.21446  22035052.62148
 -11004881.74648  -8575228.92646         0.00041  20790461.34346  20790458.11948
 97 06 19 18 36 30.0000000  0  5 04 05 09 10 24
   9356641.27048   7290905.58844         0.00041  23038422.90944  23038424.51748
  -3222311.10649  -2510891.22346         0.00041  20221389.29746  20221386.44649
  11663727.55048   9088610.54145         0.00041  23704902.92445  23704897.78148
 -13343886.81948 -10397826.24846         0.00041  22020946.64246  22020942.40748
 -10954505.34648  -8535974.61345         0.00041  20800048.32845  20800045.08448
 97 06 19 18 37 00.0000000  0  5 04 05 09 10 24
   9448879.84348   7362779.74444         0.00041  23055977.70244  23055976.22748
  -3227681.42849  -2515075.90246         0.00041  20220367.24146  20220364.43049
  11753462.25748   9158533.62845         0.00041  23721978.53545  23721973.81848
 -13417693.95648 -10455338.28546         0.00041  22006901.61946  22006896.92648
 -10903838.32348  -8496493.82446         0.00041  20809689.34446  20809686.20048
 97 06 19 18 37 30.0000000  0  5 04 05 09 10 24
   9541259.30748   7434763.69744         0.00041  23073557.50444  23073554.03948
  -3232506.53949  -2518835.73346         0.00041  20219449.43746  20219446.54649
  11843294.60548   9228532.79645         0.00041  23739071.84545  23739068.50248
 -13491068.42048 -10512513.15546         0.00041  21992937.79046  21992934.00548
 -10852799.33848  -8456723.20746         0.00041  20819400.91346  20819397.76748
 97 06 19 18 38 00.0000000  0  5 04 05 09 10 24
   9633739.84148   7506826.42444         0.00041  23091156.34144  23091153.23848
  -3236812.52349  -2522191.05446         0.00041  20218629.93546  20218626.78449
  11933213.48948   9298599.40445         0.00041  23756183.94445  23756180.22148
 -13564029.07148 -10569365.57246         0.00041  21979053.92346  21979050.52748
 -10801427.13948  -8416692.96146         0.00041  20829177.65846  20829174.07548
 97 06 19 18 38 30.0000000  0  5 04 05 09 10 24
   9726346.04448   7578987.08144         0.00041  23108779.26944  23108775.96848
  -3240569.76849  -2525118.78546         0.00041  20217914.82846  20217911.64349
  12023247.97448   9368756.07045         0.00041  23773316.38845  23773313.11948
 -13636563.26148 -10625885.67546         0.00041  21965250.96146  21965247.60548
 -10749709.93248  -8376393.85646         0.00041  20839019.64146  20839016.65148
 97 06 19 18 39 00.0000000  0  5 04 05 09 10 24
   9819105.51248   7651267.15744         0.00041  23126429.02344  23126426.76248
  -3243753.49049  -2527599.61246         0.00041  20217309.33346  20217306.30549
  12113403.64148   9439007.16145         0.00041  23790473.15045  23790468.80348
 -13708655.94448 -10682061.75646         0.00041  21951532.87846  21951528.81648
 -10697621.53548  -8335805.50646         0.00041  20848931.68546  20848928.48048
 97 06 19 18 39 30.0000000  0  6 04 05 06 09 10 24
   9911994.29548   7723648.02744         0.00041  23144105.65544  23144104.45248
  -3246387.27849  -2529651.92146         0.00041  20216807.92046  20216805.06549
        -0.52158         0.00051         0.00051         0.00051  23492309.36558
  12203636.04448   9509318.03644         0.00041  23807640.98944  23807639.29948
 -13780336.82048 -10737916.95646         0.00041  21937892.70246  21937888.49448
 -10645190.54048  -8294950.19346         0.00041  20858908.60646  20858905.58848
 97 06 19 18 40 00.0000000  0  7 04 05 06 09 10 24 30
  10005028.29848   7796141.97944         0.00041  23161810.58044  23161809.66948
  -3248429.43849  -2531243.21646         0.00041  20216419.47046  20216416.45349
    -67614.53348         0.00041         0.00041         0.00041  23479445.22548
  12293951.22948   9579693.39544         0.00041  23824829.46644  23824825.19048
 -13851592.42649 -10793440.77746         0.00041  21924333.11046  21924329.27649
 -10592400.42448  -8253815.02945         0.00041  20868954.09845  20868950.61148
        -0.68158         0.00051         0.00051         0.00051  21370146.67358
 97 06 19 18 40 30.0000000  0  7 04 05 06 09 10 24 30
  10098019.57648   7868602.73644         0.00041  23179506.86044  23179505.31848
  -3250060.05749  -2532513.83146         0.00041  20216109.14146  20216106.11349
   -135333.35448   -105453.85941         0.00041         0.00041  23466557.04148
  12384154.69248   9649981.69245         0.00041  23841993.71245  23841990.59048
 -13922620.66549 -10848787.43446         0.00041  21910816.25646  21910813.06949
 -10539433.79048  -8212542.33145         0.00041  20879033.51645  20879030.09348
    -68334.21548         0.00041         0.00041         0.00041  21357141.44048
 97 06 19 18 41 00.0000000  0  7 04 05 06 09 10 24 30
  10191052.64648   7941095.95344         0.00041  23197212.42044  23197209.11448
  -3251215.74149  -2533414.36546         0.00041  20215889.34646  20215886.46449
   -203079.50548         0.00041         0.00041         0.00041  23453666.46848
  12474308.73248   9720231.48745         0.00041  23859150.69745  23859146.17648
 -13993335.77149 -10903890.09146         0.00041  21897359.97546  21897355.82849
 -10486214.10148  -8171072.44946         0.00041  20889161.64646  20889157.27148
   -136336.80248         0.00041         0.00041         0.00041  21344201.55248
 97 06 19 18 41 30.0000000  0  7 04 05 06 09 10 24 30
  10284232.83948   8013703.91141         0.00041         0.00041  23214940.04248
  -3251779.67049  -2533853.80546         0.00041  20215781.98346  20215779.21649
   -270727.53247         0.00041         0.00041         0.00041  23440791.58547
  12564548.84548   9790548.40245         0.00041  23876324.17645  23876319.29848
 -14063613.45649 -10958651.89946         0.00041  21883986.87246  21883982.60849
 -10432621.32448  -8129311.85945         0.00041  20899358.99145  20899355.94848
   -203870.46348         0.00041         0.00041         0.00041  21331348.14348
 97 06 19 18 42 00.0000000  0  5 04 05 09 10 24
  10377536.75548         0.00041         0.00041         0.00041  23232694.16848
  -3251774.58649  -2533849.85347         0.00041  20215782.65047  20215780.00149
  12654874.88048   9860932.27045         0.00041  23893512.90545  23893507.46648
 -14133477.95549 -11013091.75146         0.00041  21870691.95046  21870687.40449
 -10378677.09648  -8087277.40345         0.00041  20909624.13145  20909621.24548
 97 06 19 18 42 30.0000000  0  6 04 05 09 10 24 30
  10470906.64248   8159163.88944         0.00041  23250461.70644  23250462.83648
  -3251292.75349  -2533474.39546         0.00041  20215874.39546  20215871.72749
  12745217.35548   9931328.93745         0.00041  23910702.35845  23910698.57848
 -14202987.41948 -11067254.94446         0.00041  21857463.89946  21857460.12848
 -10324450.89248  -8045023.23546         0.00041  20919942.39946  20919940.42848
        -0.42157         0.00051         0.00051         0.00051  21305890.55657
 97 06 19 18 43 00.0000000  0  5 04 05 09 10 24
  10564499.27948   8232093.18944         0.00041  23268270.19344  23268271.90048
  -3250188.78549  -2532614.17347         0.00041  20216084.73347  20216081.72849
  12835725.88148  10001855.01945         0.00041  23927927.04645  23927921.58048
 -14271986.49748 -11121020.43746         0.00041  21844333.20046  21844329.99648
 -10269802.60248  -8002440.16946         0.00041  20930341.85646  20930339.74648
 97 06 19 18 43 30.0000000  0  6 04 05 06 09 10 24
  10658166.79848   8305080.82044         0.00041  23286097.39144  23286096.20948
  -3248593.96349  -2531371.46947         0.00041  20216388.07047  20216385.24249
        -0.30458         0.00051         0.00051         0.00051  23389427.22858
  12926268.20848  10072407.41045         0.00041  23945156.88645  23945147.70248
 -14340611.73148 -11174494.62346         0.00041  21831274.29746  21831271.24548
 -10214876.26748  -7959640.45346         0.00041  20940794.59846  20940791.68248
 97 06 19 18 44 00.0000000  0  6 04 05 06 09 10 24
  10751935.09948   8378146.93044         0.00041  23303943.86344  23303938.51248
  -3246503.15749  -2529742.28047         0.00041  20216785.64647  20216782.93949
    -67395.51848    -52515.32041         0.00041         0.00041  23376601.58148
  13016822.09848  10142968.84345         0.00041  23962388.82645  23962381.07648
 -14408849.34448 -11227666.77546         0.00041  21818289.12246  21818286.01948
 -10159670.16348  -7916622.72445         0.00041  20951299.59445  20951297.21348
 97 06 19 18 44 30.0000000  0  7 04 05 06 09 10 24 30
  10845825.53248   8451308.30444         0.00041  23321812.18644  23321806.61148
  -3243870.97949  -2527691.24947         0.00041  20217286.82247  20217283.87549
   -134760.46448   -105005.73445         0.00041  23363785.68545  23363782.65248
  13107396.03148  10213545.90045         0.00041  23979623.45045  23979619.49248
 -14476645.45749 -11280494.90946         0.00041  21805388.91546  21805385.28349
 -10104156.99448  -7873365.72645         0.00041  20961864.05745  20961860.67248
        -0.70558         0.00051         0.00051         0.00051  21255953.79058
 97 06 19 18 45 00.0000000  0  7 04 05 06 09 10 24 30
  10939811.43048   8524544.01644         0.00041  23339694.65344  23339691.43548
  -3240680.39149  -2525205.08247         0.00041  20217893.88647  20217891.50049
   -202095.45048   -157473.96245         0.00041  23350972.07145  23350968.90148
  13197985.20948  10284134.81145         0.00041  23996861.98645  23996858.59448
 -14544000.36649 -11332979.25546         0.00041  21792572.02246  21792568.57249
 -10048348.32048  -7829878.46045         0.00041  20972483.78145  20972480.58348
    -64646.50648         0.00041         0.00041         0.00041  21243649.58048
 97 06 19 18 45 30.0000000  0  7 04 05 06 09 10 24 30
  11033769.49848   8597758.05544         0.00041  23357573.25644  23357572.21248
  -3237035.54449  -2522364.94747         0.00041  20218587.75647  20218585.05649
   -269493.94148         0.00041         0.00041         0.00041  23338144.49148
  13288483.72048  10354653.06945         0.00041  24014083.53445  24014079.44448
 -14611015.77149 -11385199.04546         0.00041  21779819.96646  21779816.42749
  -9992341.83248  -7786237.05145         0.00041  20983140.83045  20983137.24848
   -128988.14748   -100510.16244         0.00041  21231407.16344  21231406.89348
 97 06 19 18 46 00.0000000  0  7 04 05 06 09 10 24 30
  11127391.14848   8670709.99545         0.00041  23375389.65745  23375387.97148
  -3233235.20849  -2519403.65647         0.00041  20219310.68447  20219308.01849
   -337262.29548         0.00041         0.00041         0.00041  23325248.65948
  13378590.43748  10424866.02545         0.00041  24031232.60645  24031225.87648
 -14677991.50049 -11437387.92246         0.00041  21767075.26946  21767071.07249
  -9936442.13648  -7742678.86745         0.00041  20993779.05645  20993775.47848
   -193292.13248   -150617.10444         0.00041  21219174.09244  21219171.03548
 97 06 19 18 46 30.0000000  0  7 04 05 06 09 10 24 30
  11220533.40148   8743288.31445         0.00041  23393114.40145  23393112.25148
  -3229408.83049  -2516422.07047         0.00041  20220038.57347  20220035.97649
   -405517.49448         0.00041         0.00041         0.00041  23312259.59348
  13468201.80548  10494693.01244         0.00041  24048283.82544  24048275.38548
 -14745051.74949 -11489642.65446         0.00041  21754313.62146  21754309.74249
  -9880776.65448  -7699303.19445         0.00041  21004371.79645  21004366.89948
   -257662.33448   -200775.66744         0.00041  21206930.45744  21206919.78448
 97 06 19 18 47 00.0000000  0  7 04 05 06 09 10 24 30
  11313274.04748   8815553.72645         0.00041  23410763.03645  23410759.55448
  -3225504.08549  -2513379.42147         0.00041  20220781.94247  20220779.10749
   -474190.75348         0.00041         0.00041         0.00041  23299189.91148
  13557403.21748         0.00041         0.00041         0.00041  24065251.69948
 -14812131.37049 -11541912.46746         0.00041  21741548.00846  21741544.69849
  -9825256.02348  -7656040.37446         0.00041  21014936.70346  21014933.31948
   -322024.01748   -250927.61041         0.00041         0.00041  21194673.28148
 97 06 19 18 47 30.0000000  0  7 04 05 06 09 10 24 30
  11406106.74248   8887890.87245         0.00041  23428430.30145  23428425.94248
  -3221051.61649  -2509909.97647         0.00041  20221629.00447  20221626.56049
   -542805.83648         0.00041         0.00041         0.00041  23286135.20048
  13646662.37948  10633753.11044         0.00041  24082248.18944  24082236.52348
 -14878753.30149 -11593825.63446         0.00041  21728870.54646  21728866.88349
  -9769391.74048  -7612509.76846         0.00041  21025567.63346  21025564.93448
   -385900.78348         0.00041         0.00041         0.00041  21182517.49348
 97 06 19 18 48 00.0000000  0  7 04 05 06 09 10 24 30
  11498673.03748   8960020.42745         0.00041  23446042.74545  23446040.09848
  -3216423.50049  -2506303.66247         0.00041  20222509.83347  20222507.40449
   -611733.89848         0.00041         0.00041         0.00041  23273016.70948
  13735594.55648  10703050.82245         0.00041  24099169.57745  24099160.88948
 -14945279.38549 -11645664.10646         0.00041  21716210.23146  21716206.84249
  -9713561.80448  -7569005.92346         0.00041  21036191.51346  21036189.00648
   -449686.62848         0.00041         0.00041         0.00041  21170378.95648
 97 06 19 18 48 30.0000000  0  7 04 05 06 09 10 24 30
  11591244.69448   9032154.15745         0.00041  23463657.42545  23463655.44248
  -3211354.86049  -2502354.07847         0.00041  20223474.33947  20223472.02749
   -680709.44248   -530422.09344         0.00041  23259895.34744  23259890.03148
  13824446.67148  10772286.16944         0.00041  24116075.71944  24116068.51548
 -15011439.98849 -11697217.79846         0.00041  21703619.87946  21703616.64649
  -9657514.12948  -7525332.42946         0.00041  21046857.27546  21046854.14748
   -513125.64448         0.00041         0.00041         0.00041  21158308.46548
 97 06 19 18 49 00.0000000  0  7 04 05 06 09 10 24 30
  11683857.02848   9104319.58345         0.00041  23481280.06045  23481278.44348
  -3205798.83249  -2498024.71747         0.00041  20224531.46847  20224529.27749
   -749700.28848   -584181.20844         0.00041  23246767.14644  23246762.25448
  13913237.03848  10841473.39544         0.00041  24132971.01444  24132966.33448
 -15077199.43649 -11748458.90546         0.00041  21691106.15546  21691103.16849
  -9601235.93948  -7481479.31646         0.00041  21057566.69146  21057563.32048
   -576200.09448         0.00041         0.00041         0.00041  21146304.78748
 97 06 19 18 49 30.0000000  0  7 04 05 06 09 10 24 30
  11776802.31348   9176744.46045         0.00041  23498967.22545  23498965.59248
  -3199451.96249  -2493079.11847         0.00041  20225739.40247  20225736.84749
   -818403.76148   -637716.34944         0.00041  23233695.62344  23233690.15548
  14002243.91148  10910829.31444         0.00041  24149907.01844  24149904.09248
 -15142266.78849 -11799160.71946         0.00041  21678724.72446  21678721.42649
  -9544464.95148  -7437242.20046         0.00041  21068370.18946  21068366.59948
   -638633.56348         0.00041         0.00041         0.00041  21134421.61248
 97 06 19 18 50 00.0000000  0  7 04 05 06 09 10 24 30
  11870136.52248   9249472.39244         0.00041  23516728.52344  23516727.65348
  -3192236.91649  -2487457.01347         0.00041  20227112.37047  20227109.63549
   -886749.14448   -690972.40644         0.00041  23220684.22944  23220682.74248
  14091544.23248  10980413.89844         0.00041  24166900.66844  24166897.54348
 -15206573.05849 -11849269.48946         0.00041  21666488.33446  21666484.75249
  -9487146.80648  -7392578.73546         0.00041  21079277.23346  21079272.92548
   -700353.49948         0.00041         0.00041         0.00041  21122678.26348
 97 06 19 18 50 30.0000000  0  7 04 05 06 09 10 24 30
  11963866.65748   9322508.82345         0.00041  23534565.03945  23534563.36848
  -3184128.09349  -2481138.46247         0.00041  20228655.95847  20228653.15149
   -954720.53748   -743937.04744         0.00041  23207754.35044  23207749.24648
  14181163.62148  11050247.07444         0.00041  24183954.15244  24183950.70048
 -15270109.75249 -11898778.59646         0.00041  21654398.18646  21654393.94549
  -9429270.40148  -7347480.26046         0.00041  21090291.08246  21090286.70848
   -761332.99648         0.00041         0.00041         0.00041  21111074.46548
 97 06 19 18 51 00.0000000  0  7 04 05 06 09 10 24 30
  12057833.66648   9395729.80545         0.00041  23552448.26645  23552444.83248
  -3175272.25749  -2474237.82047         0.00041  20230341.00347  20230338.30349
  -1022471.21248   -796729.75245         0.00041  23194859.79745  23194856.49348
  14270955.21148  11120214.48144         0.00041  24201042.14044  24201036.28848
 -15333041.44749 -11947816.26946         0.00041  21642423.33646  21642418.44949
  -9370957.46248  -7302041.61246         0.00041  21101388.30646  21101384.05848
   -821740.93748         0.00041         0.00041         0.00041  21099580.20648
 97 06 19 18 51 30.0000000  0  7 04 05 06 09 10 24 30
  12152056.41448   9469150.08345         0.00041  23570378.76145  23570375.38648
  -3165653.59649  -2466742.77347         0.00041  20232170.88347  20232168.30549
  -1089975.92248   -849330.76444         0.00041  23182014.64644  23182009.94148
  14360939.41548  11190331.94644         0.00041  24218167.06844  24218161.22548
 -15395342.10349 -11996362.23846         0.00041  21630567.25746  21630563.04449
  -9312157.30048  -7256223.32046         0.00041  21112576.98146  21112573.59048
   -881537.10348         0.00041         0.00041         0.00041  21088200.41648
 97 06 19 18 52 00.0000000  0  7 04 05 06 09 10 24 30
  12246524.84748   9542761.80145         0.00041  23588354.15845  23588351.49548
  -3155274.48249  -2458655.16447         0.00041  20234146.20947  20234143.54449
  -1157235.79348   -901741.03144         0.00041  23169213.64444  23169210.99748
  14451114.60448  11260598.24845         0.00041  24235328.15345  24235321.25648
 -15457000.30149 -12044407.59246         0.00041  21618833.87446  21618830.15749
  -9252861.95348  -7210019.16046         0.00041  21123859.98646  21123857.53748
   -940702.64048         0.00041         0.00041         0.00041  21076940.72848
 97 06 19 18 52 30.0000000  0  6 04 05 06 09 10 24
  12341196.34448   9616531.78345         0.00041  23606369.55745  23606366.90748
  -3144195.21549  -2450021.97647         0.00041  20236254.78247  20236251.76549
  -1224306.84548   -954004.16645         0.00041  23156452.09945  23156449.33548
  14541432.61048  11330975.86545         0.00041  24252513.51145  24252509.04648
 -15518057.15849 -12091984.35746         0.00041  21607213.70946  21607210.79849
  -9193118.15548  -7163465.55646         0.00041  21135228.33946  21135226.19948
 97 06 19 18 53 00.0000000  0  6 04 05 06 09 10 24
  12436123.53148   9690500.96645         0.00041  23624432.69245  23624431.15648
  -3132371.22049  -2440808.48647         0.00041  20238504.89847  20238502.01949
  -1291129.19448  -1006073.53545         0.00041  23143736.09545  23143733.20448
  14631939.43948  11401500.53945         0.00041  24269734.64945  24269732.31148
 -15578438.12949 -12139034.45246         0.00041  21595724.28546  21595721.47549
  -9132870.62848  -7116519.41145         0.00041  21146692.92245  21146690.44948
 97 06 19 18 53 30.0000000  0  6 04 05 06 09 10 24
  12531635.78648   9764926.07745         0.00041  23642610.25045  23642607.69648
  -3119479.93349  -2430763.34147         0.00041  20240957.66347  20240954.87049
  -1357363.82448  -1057684.92944         0.00041  23131133.07944  23131127.65148
  14722966.85748  11472430.84944         0.00041  24287055.64944  24287053.89048
 -15637789.70949 -12185282.42046         0.00041  21584429.95946  21584427.12649
  -9071820.54448  -7068947.91845         0.00041  21158310.43245  21158307.42448
 97 06 19 18 54 00.0000000  0  6 04 05 06 09 10 24
  12627611.22348   9839712.09145         0.00041  23660873.54845  23660870.51548
  -3105646.52249  -2419984.07247         0.00041  20243589.86347  20243587.53649
  -1423147.68148  -1108945.07944         0.00041  23118612.27144  23118609.38948
  14814387.24448  11543667.42845         0.00041  24304455.66845  24304450.55648
 -15696243.68749 -12230830.94946         0.00041  21573306.92146  21573303.37849
  -9010104.28348  -7020857.31545         0.00041  21170054.99845  21170052.56948
 97 06 19 18 54 30.0000000  0  6 04 05 06 09 10 24
  12723962.27448   9914790.76845         0.00041  23679205.47045  23679204.61248
  -3090953.74649  -2408535.16347         0.00041  20246385.74647  20246383.48849
  -1488572.41948  -1159925.39245         0.00041  23106163.25645  23106160.29848
  14906105.47448  11615136.13345         0.00041  24321907.55145  24321902.68848
 -15753887.32049 -12275748.05246         0.00041  21562337.42646  21562334.26249
  -8947804.37048  -6972311.91645         0.00041  21181910.08445  21181907.71948
 97 06 19 18 55 00.0000000  0  6 04 05 06 09 10 24
  12820810.85748   9990257.17445         0.00041  23697636.32545  23697634.75448
  -3075266.96149  -2396311.71547         0.00041  20249371.19647  20249368.66649
  -1553506.25548  -1210523.21244         0.00041  23093806.75844  23093803.75848
  14998223.51548  11686916.33745         0.00041  24339436.19045  24339433.36648
 -15810597.99449 -12319938.17346         0.00041  21551545.76946  21551542.47949
  -8884789.58148  -6923209.49845         0.00041  21193900.19445  21193897.54748
 97 06 19 18 55 30.0000000  0  6 04 05 06 09 10 24
  12917911.81548  10065920.24945         0.00041  23716115.18645  23716112.54048
  -3058829.55749  -2383503.36147         0.00041  20252499.31847  20252496.67949
  -1618202.66148  -1260935.92445         0.00041  23081495.12045  23081493.07248
  15090499.10948  11758819.30845         0.00041  24356994.68245  24356992.91348
 -15866630.68849 -12363599.98846         0.00041  21540883.21846  21540879.61049
  -8821300.70148  -6873737.62945         0.00041  21205982.59345  21205979.17048
 97 06 19 18 56 00.0000000  0  7 04 05 06 09 10 17 24
  13014284.35748  10141015.68945         0.00041  23734454.39045  23734451.62648
  -3042617.15149  -2370870.33347         0.00041  20255584.51147  20255581.79549
  -1683644.17648  -1311929.25045         0.00041  23069044.26645  23069040.01748
  15181952.26148  11830081.39244         0.00041  24374401.42644  24374395.45848
 -15922957.62549 -12407491.08946         0.00041  21530164.47846  21530161.30949
        -0.54358         0.00051         0.00051         0.00051  25600174.19358
  -8758306.73748  -6824651.43145         0.00041  21217970.36845  21217967.43848
 97 06 19 18 56 30.0000000  0  8 04 05 06 09 10 17 24 30
  13110258.84748  10215800.95145         0.00041  23752717.35945  23752714.98748
  -3026293.51349  -2358150.62747         0.00041  20258690.83147  20258687.96049
  -1749500.60748  -1363245.93344         0.00041  23056511.85144  23056507.07048
  15272904.51148  11900953.17044         0.00041  24391708.09844  24391704.73348
 -15979241.27349 -12451348.47046         0.00041  21519454.15346  21519451.14649
    -97531.81548         0.00041         0.00041         0.00041  25581615.48448
  -8695497.13348  -6775708.88445         0.00041  21229922.77645  21229919.88048
        -0.87357         0.00051         0.00051         0.00051  20981709.81357
 97 06 19 18 57 00.0000000  0  7 04 05 06 10 17 24 30
  13206096.86148  10290479.89045         0.00041  23770953.85445  23770951.89648
  -3009617.33949  -2345156.22147         0.00041  20261864.17247  20261861.36749
  -1815513.85148  -1414684.80144         0.00041  23043948.98444  23043943.61548
 -16035232.63549 -12494978.09046         0.00041  21508799.03346  21508796.07849
   -195168.33948         0.00041         0.00041         0.00041  25563036.43948
  -8632625.28248  -6726717.85746         0.00041  21241888.17546  21241885.09848
    -53697.50147         0.00041         0.00041         0.00041  20971491.00347
 97 06 19 18 57 30.0000000  0  7 04 05 06 10 17 24 30
  13301771.55048  10365031.55545         0.00041  23789161.60145  23789158.67248
  -2992607.26249  -2331901.63847         0.00041  20265100.98247  20265098.38949
  -1881706.06348  -1466263.10244         0.00041  23031353.68944  23031349.40748
 -16090949.29249 -12538393.64146         0.00041  21498196.29146  21498193.45849
   -292906.94148         0.00041         0.00041         0.00041  25544436.03748
  -8569730.03648  -6677708.59546         0.00041  21253854.91246  21253853.06248
   -107146.25348         0.00041         0.00041         0.00041  20961320.02948
 97 06 19 18 58 00.0000000  0  7 04 05 06 10 17 24 30
  13397336.69448  10439497.85045         0.00041  23807345.19945  23807344.33048
  -2975201.31549  -2318338.58047         0.00041  20268413.36247  20268410.70049
  -1948022.54148  -1517938.25944         0.00041  23018732.28544  23018729.27048
 -16146343.69049 -12581558.08646         0.00041  21487655.01846  21487652.52649
   -390684.12048         0.00041         0.00041         0.00041  25525828.19248
  -8506775.81048  -6628653.38846         0.00041  21265836.37446  21265833.36148
   -160287.56448   -124901.48441         0.00041         0.00041  20951208.02448
 97 06 19 18 58 30.0000000  0  7 04 05 06 10 17 24 30
  13493093.88548  10514113.81445         0.00041  23825568.92745  23825566.01348
  -2957096.77549  -2304231.16747         0.00041  20271858.70047  20271855.65949
  -2014148.58148  -1569465.02244         0.00041  23006150.49944  23006145.37948
 -16201120.64949 -12624241.41046         0.00041  21477231.26846  21477228.92349
   -488194.48148         0.00041         0.00041         0.00041  25507272.18248
  -8443456.02048  -6579313.29346         0.00041  21277884.68446  21277882.76248
   -212800.21748   -165820.45044         0.00041  20941220.32344  20941215.79548
 97 06 19 18 59 00.0000000  0  7 04 05 06 10 17 24 30
  13588838.38648  10588719.87145         0.00041  23843785.20245  23843785.78048
  -2938495.58149  -2289736.74947         0.00041  20275398.24247  20275395.79749
  -2080255.48048  -1620976.84344         0.00041  22993569.58444  22993565.99948
 -16255455.18649 -12666579.97646         0.00041  21466892.88046  21466889.15249
   -585627.28848         0.00041         0.00041         0.00041  25488733.12848
  -8379938.07048  -6529818.79246         0.00041  21289971.70546  21289969.24548
   -264849.02148   -206377.90441         0.00041         0.00041  20931310.33548
 97 06 19 18 59 30.0000000  0  8 04 05 06 09 10 17 24 30
  13684570.31748  10663316.14845         0.00041  23862004.50545  23862001.74448
  -2919364.65949  -2274829.55447         0.00041  20279038.73647  20279036.49149
  -2146328.07248  -1672461.96944         0.00041  22980995.73144  22980994.23748
         0.20158         0.81354         0.00051  24494906.89654  24494898.45658
 -16309310.76849 -12708545.36446         0.00041  21456644.53746  21456640.06749
   -682979.44348         0.00041         0.00041         0.00041  25470208.23748
  -8316205.94248  -6480157.42146         0.00041  21302100.80846  21302097.22348
   -316414.79948   -246558.99544         0.00041  20921499.00844  20921498.50848
 97 06 19 19 00 00.0000000  0  8 04 05 06 09 10 17 24 30
  13780432.73148  10738014.10445         0.00041  23880246.70245  23880243.51148
  -2899584.95649  -2259416.81247         0.00041  20282802.53047  20282800.04649
  -2212228.26648  -1723812.73944         0.00041  22968456.24744  22968452.91748
     90269.81348     70340.71844         0.00041  24512084.79244  24512077.39048
 -16362534.45349 -12750018.36746         0.00041  21446516.01946  21446512.01949
   -780116.86648         0.00041         0.00041         0.00041  25451722.43148
  -8252107.65048  -6430210.71346         0.00041  21314297.04646  21314294.26648
   -367375.19248   -286268.41941         0.00041         0.00041  20911797.13448
 97 06 19 19 00 30.0000000  0  8 04 05 06 09 10 17 24 30
  13876246.87848  10812674.43645         0.00041  23898480.65345  23898477.12648
  -2879348.63949  -2243648.27247         0.00041  20286653.56047  20286650.77049
  -2278135.01148  -1775168.63044         0.00041  22955914.28044  22955912.46348
    180441.08048    140603.98144         0.00041  24529242.75544  24529238.34748
 -16415289.94149 -12791126.53846         0.00041  21436476.76746  21436473.41649
   -877207.70748         0.00041         0.00041         0.00041  25433246.95948
  -8187803.18148  -6380103.36246         0.00041  21326534.04446  21326530.71648
   -417907.36848   -325644.11644         0.00041  20902185.20144  20902181.60248
 97 06 19 19 01 00.0000000  0  8 04 05 06 09 10 17 24 30
  13971957.36548  10887254.03245         0.00041  23916694.39845  23916689.41148
  -2858710.06449  -2227566.28747         0.00041  20290580.81047  20290578.02649
  -2344133.43448  -1826595.97544         0.00041  22943353.87644  22943352.26448
    270458.29448    210747.15344         0.00041  24546369.36944  24546366.85148
 -16467634.37649 -12831914.39446         0.00041  21426515.82046  21426512.74049
   -974311.90048         0.00041         0.00041         0.00041  25414768.34348
  -8123363.96648  -6329891.01946         0.00041  21338796.61646  21338793.19448
   -468089.65748   -364747.20544         0.00041  20892633.98344  20892630.99348
 97 06 19 19 01 30.0000000  0  8 04 05 06 09 10 17 24 30
  14067580.84848  10961765.81144         0.00041  23934892.38444  23934885.28748
  -2837646.33949  -2211153.00947         0.00041  20294589.12847  20294586.50449
  -2410229.63448  -1878099.47044         0.00041  22930777.05444  22930772.71348
    360318.71248    280768.19544         0.00041  24563466.70544  24563466.60648
 -16519571.02249 -12872384.48546         0.00041  21416632.67846  21416629.50649
  -1071402.88448         0.00041         0.00041         0.00041  25396291.56048
  -8058804.09948  -6279584.64646         0.00041  21351081.99046  21351077.77548
   -517928.89248   -403582.96044         0.00041  20883148.01844  20883147.41148
 97 06 19 19 02 00.0000000  0  8 04 05 06 09 10 17 24 30
  14163106.50548  11036201.35144         0.00041  23953070.56144  23953064.76848
  -2816175.58849  -2194422.55647         0.00041  20298675.23247  20298672.10249
  -2476434.24048  -1929687.49844         0.00041  22918180.00344  22918176.88748
    449992.42748    350643.71344         0.00041  24580532.15644  24580530.58148
 -16571130.96149 -12912561.05146         0.00041  21406820.99746  21406817.60049
  -1168478.63248         0.00041         0.00041         0.00041  25377820.20448
  -7994149.71148  -6229204.59546         0.00041  21363385.63446  21363381.38548
   -567439.17448   -442162.38744         0.00041  20873730.51644  20873726.92548
 97 06 19 19 02 30.0000000  0  8 04 05 06 09 10 17 24 30
  14258549.94748  11110572.83244         0.00041  23971229.84544  23971226.17948
  -2794250.69449  -2177338.22947         0.00041  20302847.49047  20302844.31249
  -2542719.36648  -1981338.18344         0.00041  22905567.15944  22905562.96248
    539492.31148    420383.79244         0.00041  24597564.77844  24597561.56248
 -16622306.55249 -12952438.12346         0.00041  21397082.44846  21397078.91349
  -1265525.06048         0.00041         0.00041         0.00041  25359353.83848
  -7929390.04448  -6178742.53846         0.00041  21375709.71246  21375705.38348
   -616583.39648   -480456.56845         0.00041  20864378.80445  20864376.77148
 97 06 19 19 03 00.0000000  0  8 04 05 06 09 10 17 24 30
  14354049.28348  11184987.85245         0.00041  23989403.50545  23989399.17348
  -2771706.34349  -2159771.21547         0.00041  20307137.60447  20307134.51949
  -2608929.98848  -2032930.83444         0.00041  22892965.63144  22892962.47148
    628942.20448    490084.91544         0.00041  24614588.85644  24614583.03148
 -16672953.00249 -12991902.87546         0.00041  21387444.74346  21387441.69749
  -1362407.49148  -1061615.44544         0.00041  25340918.48944  25340918.31548
  -7864397.03048  -6128098.62145         0.00041  21388076.28245  21388073.02848
   -665215.43348   -518351.70845         0.00041  20855123.53245  20855123.08948
 97 06 19 19 03 30.0000000  0  8 04 05 06 09 10 17 24 30
  14449387.47848  11259277.31145         0.00041  24007544.54145  24007541.31248
  -2748749.01949  -2141882.40247         0.00041  20311506.28947  20311503.22049
  -2675254.10848  -2084611.95644         0.00041  22880345.72344  22880342.65948
    718119.74848    559573.82144         0.00041  24631558.15444  24631551.91948
 -16723274.22349 -13031114.19946         0.00041  21377869.23546  21377866.09149
  -1459333.55148  -1137142.17544         0.00041  25322477.77344  25322473.18648
  -7799377.18548  -6077433.81045         0.00041  21400449.03045  21400446.24848
   -713528.17448   -555998.02744         0.00041  20845929.06144  20845928.88648
 97 06 19 19 04 00.0000000  0  8 04 05 06 09 10 17 24 30
  14544469.38048  11333367.08245         0.00041  24025638.10945  24025634.94348
  -2725487.47649  -2123756.53947         0.00041  20315932.83647  20315929.67949
  -2741790.92448  -2136458.79844         0.00041  22867686.14444  22867679.56548
    806922.87048    628770.95344         0.00041  24648458.02344  24648450.63948
 -16773359.47249 -13070141.64246         0.00041  21368338.50346  21368335.41449
  -1556417.57548  -1212791.99644         0.00041  25304006.14944  25303999.57748
  -7734409.84048  -6026809.89945         0.00041  21412810.90945  21412809.72648
   -761605.15248   -593460.61744         0.00041  20836778.96144  20836779.77248
 97 06 19 19 04 30.0000000  0  8 04 05 06 09 10 17 24 30
  14639682.22748  11407558.87545         0.00041  24043755.68345  24043755.16848
  -2701542.15749  -2105097.85947         0.00041  20320489.17247  20320485.95849
  -2808155.17048  -2188171.19944         0.00041  22855055.53244  22855049.24648
    895738.36948    697977.75441         0.00041         0.00041  24665352.80548
 -16822817.20249 -13108680.09846         0.00041  21358926.83146  21358923.80149
  -1653292.72248         0.00041         0.00041         0.00041  25285562.86148
  -7669095.27148  -5975915.41045         0.00041  21425241.76945  21425238.29248
   -809056.41348   -630435.62944         0.00041  20827751.26844  20827750.17148
 97 06 19 19 05 00.0000000  0  7 04 05 06 09 10 24 30
  14735005.71548  11481836.89445         0.00041  24061895.57145  24061893.46648
  -2676944.97749  -2085931.24447         0.00041  20325169.67747  20325166.45749
  -2874375.90648  -2239771.77044         0.00041  22842454.02544  22842449.03548
    984552.09248    767183.23841         0.00041         0.00041  24682250.96548
 -16871662.00749 -13146740.96646         0.00041  21349631.25846  21349629.03649
  -7603456.56148  -5924768.37145         0.00041  21437730.63245  21437728.96648
   -855902.37648   -666938.98144         0.00041  20818834.85244  20818833.88548
 97 06 19 19 05 30.0000000  0  7 04 05 06 09 10 24 30
  14830418.86148  11556184.78545         0.00041  24080051.87845  24080051.36448
  -2651742.61149  -2066293.05647         0.00041  20329965.72747  20329962.69349
  -2940482.96248  -2291283.75244         0.00041  22829872.83944  22829871.16948
   1073345.60448         0.00041         0.00041         0.00041  24699151.02448
 -16919922.41149 -13184346.46746         0.00041  21340447.68246  21340444.44349
  -7537517.65148  -5873387.37345         0.00041  21450278.51445  21450276.08648
   -902165.36048   -702988.06944         0.00041  20810033.81244  20810031.15248
 97 06 19 19 06 00.0000000  0  7 04 05 06 09 10 24 30
  14925862.74248  11630556.62745         0.00041  24098215.67745  24098213.82348
  -2626012.75149  -2046243.83347         0.00041  20334862.01547  20334858.96949
  -3006535.13948  -2342752.99844         0.00041  22817304.09544  22817301.06148
   1162068.45448    905507.40744         0.00041  24716041.26744  24716036.34248
 -16967665.00349 -13221548.49146         0.00041  21331363.00746  21331359.05649
  -7471340.74548  -5821820.96544         0.00041  21462872.12244  21462868.93148
   -947913.50048   -738635.93944         0.00041  20801329.62744  20801325.26948
 97 06 19 19 06 30.0000000  0  8 04 05 06 09 10 17 24 30
  15021285.27348  11704911.81445         0.00041  24116375.24545  24116372.74348
  -2599790.66949  -2025811.06247         0.00041  20339851.77247  20339848.56649
  -3072572.29948  -2394210.47944         0.00041  22804740.02644  22804738.37848
   1250684.08748    974558.44344         0.00041  24732903.54744  24732896.55148
 -17014936.20949 -13258383.17746         0.00041  21322368.18846  21322363.75249
        -0.70357        -0.78254         0.00051  25212142.18354  25212137.69157
  -7404983.26648  -5770113.84844         0.00041  21475497.99244  21475495.86948
   -993195.81148   -773920.85844         0.00041  20792711.16344  20792707.88448
 97 06 19 19 07 00.0000000  0  7 04 05 09 10 17 24 30
  15116741.28448  11779293.07345         0.00041  24134538.85745  24134536.41048
  -2573010.54549  -2004943.44447         0.00041  20344947.81247  20344944.58449
   1339262.00148   1043580.03841         0.00041         0.00041  24749749.49748
 -17061658.78049 -13294790.34646         0.00041  21313476.67546  21313473.16549
    -96118.70048    -74897.83844         0.00041  25193853.30844  25193848.55748
  -7338391.39148  -5718224.08344         0.00041  21488170.87044  21488167.74048
  -1037935.50748   -808782.95745         0.00041  20784199.14145  20784195.80148
 97 06 19 19 07 30.0000000  0  8 04 05 06 09 10 17 24 30
  15212137.91348  11853628.04945         0.00041  24152690.88645  24152689.66948
  -2545761.33949  -1983710.29947         0.00041  20350133.27147  20350130.06049
        -0.35858         0.61351         0.00051         0.00051  22779625.25158
   1427704.21648   1112495.97844         0.00041  24766588.30444  24766582.86548
 -17107905.05649 -13330826.38946         0.00041  21304676.00546  21304672.89549
   -192143.69348   -149722.42644         0.00041  25175579.49844  25175575.81548
  -7271649.87148  -5666217.73444         0.00041  21500870.00144  21500868.10948
  -1082212.01848   -843284.17344         0.00041  20775769.70744  20775767.45648
 97 06 19 19 08 00.0000000  0  8 04 05 06 09 10 17 24 30
  15307889.57248  11928239.70545         0.00041  24170912.63145  24170910.29848
  -2517611.06749  -1961775.03847         0.00041  20355490.00947  20355486.84849
    -65592.31348         0.00041         0.00041         0.00041  22767144.93648
   1516420.95848   1181625.79644         0.00041  24783470.61544  24783466.05348
 -17153248.44449 -13366158.89246         0.00041  21296047.86846  21296044.75249
   -287652.19148   -224144.50641         0.00041         0.00041  25157400.59348
  -7204336.41748  -5613765.71744         0.00041  21513680.43344  21513679.20248
  -1125606.55747         0.00041         0.00041         0.00041  20767510.80047
 97 06 19 19 08 30.0000000  0  8 04 05 06 09 10 17 24 30
  15405061.36748  12003957.92144         0.00041  24189405.09044  24189401.36148
  -2487477.64749  -1938294.47147         0.00041  20361224.49747  20361221.50849
   -129728.23848         0.00041         0.00041         0.00041  22754938.70248
   1606469.65048   1251793.50444         0.00041  24800605.98144  24800600.27948
 -17196606.90549 -13399944.69646         0.00041  21287796.87246  21287793.66849
   -381571.10448   -297328.01044         0.00041  25139531.32344  25139528.10748
  -7135386.86648  -5560038.78544         0.00041  21526800.27244  21526798.96048
  -1167038.84347         0.00041         0.00041         0.00041  20759625.21347
 97 06 19 19 09 00.0000000  0  8 04 05 06 09 10 17 24 30
  15504028.57748  12081075.16044         0.00041  24208236.80244  24208235.86548
  -2454989.01149  -1912978.66247         0.00041  20367406.75547  20367403.54749
   -192019.80348         0.00041         0.00041         0.00041  22743085.51348
   1698225.10448   1323291.08344         0.00041  24818069.61944  24818063.56148
 -17237588.27549 -13431878.20946         0.00041  21279998.09546  21279994.75749
   -473535.88648   -368988.82744         0.00041  25122032.01844  25122026.80048
  -7064423.10148  -5504742.35444         0.00041  21540303.93344  21540301.70348
  -1206137.68748   -939849.55441         0.00041         0.00041  20752186.83048
 97 06 19 19 09 30.0000000  0  8 04 05 06 09 10 17 24 30
  15602619.09248  12157898.88244         0.00041  24226997.67544  24226996.60148
  -2422323.28449  -1887524.85547         0.00041  20373623.07447  20373619.86349
   -254627.97748         0.00041         0.00041         0.00041  22731170.62348
   1789503.88348   1394417.29644         0.00041  24835435.20044  24835433.09248
 -17278373.93449 -13463659.21146         0.00041  21272236.48446  21272233.53949
   -565749.51248   -440843.59244         0.00041  25104488.52144  25104479.33748
  -6993619.00448  -5449570.33744         0.00041  21553781.57944  21553775.54148
  -1245098.89748   -970208.93244         0.00041  20744771.52944  20744774.62548
 97 06 19 19 10 00.0000000  0  8 04 05 06 09 10 17 24 30
  15700851.61548  12234443.64144         0.00041  24245692.04444  24245688.74948
  -2389460.34949  -1861917.38047         0.00041  20379876.82347  20379873.67749
   -317526.14447         0.00041         0.00041         0.00041  22719201.33247
   1880323.20448   1465185.50444         0.00041  24852716.14544  24852715.73548
 -17318955.24249 -13495280.97046         0.00041  21264513.65846  21264511.25049
   -658188.82948   -512874.18244         0.00041  25086894.99644  25086888.41948
  -6922964.44248  -5394514.86044         0.00041  21567225.50444  21567221.73748
  -1283915.07848  -1000455.35941         0.00041         0.00041  20737387.71248
 97 06 19 19 10 30.0000000  0  8 04 05 06 09 10 17 24 30
  15798746.96248  12310725.71044         0.00041  24264320.05744  24264316.94748
  -2356371.99749  -1836134.25647         0.00041  20386172.88447  20386170.07849
   -380676.00947         0.00041         0.00041         0.00041  22707187.47647
   1970701.27448   1535609.93844         0.00041  24869914.16944  24869912.99148
 -17359297.89849 -13526716.78146         0.00041  21256837.29046  21256834.37949
   -750822.43748   -585056.10044         0.00041  25069263.60244  25069260.43448
  -6852437.27448  -5339558.63044         0.00041  21580646.32944  21580642.16548
  -1322550.71948         0.00041         0.00041         0.00041  20730036.30148
 97 06 19 19 11 00.0000000  0  6 04 05 09 10 17 24
  15896361.90948  12386789.25541         0.00041         0.00041  24282894.01148
  -2323008.09049  -1810136.41947         0.00041  20392522.12847  20392519.14949
   2060681.25848   1605723.99644         0.00041  24887036.13544  24887036.60048
 -17399356.16549 -13557930.99946         0.00041  21249214.49046  21249210.92249
   -843593.94048   -657345.54741         0.00041         0.00041  25051607.56448
  -6781991.53448  -5284665.86644         0.00041  21594052.08244  21594048.04048
 97 06 19 19 11 30.0000000  0  5 05 09 10 17 24
  -2289683.42449  -1784169.16247         0.00041  20398863.35047  20398860.51749
   2149932.00148   1675269.91744         0.00041  24904023.50644  24904020.17248
 -17439465.20949 -13589184.78946         0.00041  21241583.02146  21241578.36349
   -936796.35848         0.00041         0.00041         0.00041  25033870.48248
  -6711959.18948  -5230095.26844         0.00041  21607378.23444  21607375.58448
 97 06 19 19 12 00.0000000  0  5 05 09 10 17 24
  -2256259.14449  -1758124.28547         0.00041  20405223.73247  20405221.30549
   2238587.61648   1744352.27244         0.00041  24920893.52844  24920890.73348
 -17479486.15349 -13620369.93546         0.00041  21233966.79346  21233962.42249
  -1030287.39448         0.00041         0.00041         0.00041  25016080.18848
  -6642201.36848  -5175738.52844         0.00041  21620652.03644  21620651.32448
 97 06 19 19 12 30.0000000  0  7 04 05 06 09 10 17 24
        -1.11957         0.20551         0.00051         0.00051  24338068.39457
  -2222543.97949  -1731852.73747         0.00041  20411639.59247  20411637.12649
        -0.38358         0.00051         0.00051         0.00051  22658476.80358
   2326855.70148   1813132.49644         0.00041  24937690.38344  24937685.75148
 -17519224.41549 -13651334.80346         0.00041  21226404.44846  21226400.76749
  -1123879.63648         0.00041         0.00041         0.00041  24998270.79948
  -6572525.84848  -5121445.93344         0.00041  21633909.72544  21633909.11048
 97 06 19 19 13 00.0000000  0  7 04 05 06 09 10 17 24
     96035.92447         0.00041         0.00041         0.00041  24356344.31347
  -2188615.04449  -1705414.61747         0.00041  20418096.15647  20418093.44449
    -64776.83648         0.00041         0.00041         0.00041  22646150.49448
   2414687.86048   1881573.07244         0.00041  24954405.99144  24954401.74248
 -17558748.89349 -13682133.08046         0.00041  21218883.11846  21218879.73849
  -1217645.69348         0.00041         0.00041         0.00041  24980426.07448
  -6503008.61048  -5067276.70744         0.00041  21647141.34444  21647137.74948
 97 06 19 19 13 30.0000000  0  8 04 05 06 09 10 17 24 30
    191815.76648    149467.87341         0.00041         0.00041  24374573.24848
  -2154425.24649  -1678773.22847         0.00041  20424602.46947  20424599.54249
   -129799.05748         0.00041         0.00041         0.00041  22633777.34948
   2502150.47948   1949725.64741         0.00041         0.00041  24971044.66948
 -17597998.88249 -13712717.47446         0.00041  21211414.30446  21211411.11249
  -1311544.03648         0.00041         0.00041         0.00041  24962557.64848
  -6433583.40648  -5013179.17044         0.00041  21660351.09544  21660348.23248
        -0.78958         0.00051         0.00051         0.00051  20686479.06058
 97 06 19 19 14 00.0000000  0  8 04 05 06 09 10 17 24 30
    287374.06948    223928.87444         0.00041  24392757.76544  24392757.31548
  -2119932.28749  -1651895.61547         0.00041  20431166.12547  20431163.20149
   -195011.42248         0.00041         0.00041         0.00041  22621367.66948
   2589290.52348   2017626.93044         0.00041  24987631.62944  24987627.12848
 -17636909.47049 -13743037.40846         0.00041  21204009.66746  21204006.46649
  -1405543.80048         0.00041         0.00041         0.00041  24944671.23048
  -6364185.40248  -4959102.83045         0.00041  21673557.06545  21673554.66048
    -37323.46248         0.00041         0.00041         0.00041  20679375.64848
 97 06 19 19 14 30.0000000  0  7 04 05 06 09 10 17 24
    382566.14948    298104.45644         0.00041  24410870.22444  24410871.71148
  -2085269.07349  -1624885.32747         0.00041  20437762.18447  20437759.40749
   -260535.19948         0.00041         0.00041         0.00041  22608898.92048
   2675970.64348   2085169.81444         0.00041  25004130.79644  25004122.60548
 -17675624.39249 -13773204.87446         0.00041  21196642.80446  21196638.99849
  -1499778.02748         0.00041         0.00041         0.00041  24926737.77248
  -6294971.81148  -4905170.19945         0.00041  21686727.89745  21686726.43848
 97 06 19 19 15 00.0000000  0  7 04 05 06 09 10 17 24
    477225.66748    371865.07344         0.00041  24428885.28144  24428884.67048
  -2050583.89149  -1597857.92547         0.00041  20444362.62547  20444359.70349
   -326502.04048         0.00041         0.00041         0.00041  22596346.68348
   2762011.58848   2152214.57444         0.00041  25020499.54544  25020495.13048
 -17714288.25549 -13803332.54146         0.00041  21189285.38146  21189281.74549
  -1594404.02348         0.00041         0.00041         0.00041  24908732.47148
  -6226085.51548  -4851492.59544         0.00041  21699836.56344  21699834.44648
 97 06 19 19 15 30.0000000  0  6 04 05 06 09 10 24
    571206.07448    445096.49844         0.00041  24446770.82344  24446768.49648
  -2016004.68749  -1570913.11347         0.00041  20450942.91947  20450939.91649
   -393036.42848         0.00041         0.00041         0.00041  22583683.63948
   2847262.95548   2218644.05544         0.00041  25036723.77444  25036720.21148
 -17753042.30249 -13833530.48146         0.00041  21181910.93846  21181906.73649
  -6157656.57148  -4798171.35144         0.00041  21712859.14544  21712855.05048
 97 06 19 19 16 00.0000000  0  6 04 05 06 09 10 24
    665128.14148         0.00041         0.00041         0.00041  24464588.00448
  -1981193.29249  -1543787.37147         0.00041  20457567.24247  20457564.16149
   -459799.33148         0.00041         0.00041         0.00041  22570977.08948
   2932046.52148   2284709.00841         0.00041         0.00041  25052851.96848
 -17791558.59449 -13863543.16246         0.00041  21174580.39246  21174576.98849
  -6089370.88748  -4744961.77244         0.00041  21725853.73944  21725848.86548
 97 06 19 19 16 30.0000000  0  6 04 05 06 09 10 24
    759292.53748         0.00041         0.00041         0.00041  24482366.42348
  -1945983.03949  -1516350.83147         0.00041  20464267.71947  20464264.40749
   -526643.56448         0.00041         0.00041         0.00041  22558259.88248
   3016523.42148         0.00041         0.00041         0.00041  25068927.35748
 -17829690.96249 -13893256.67446         0.00041  21167323.94846  21167321.12549
  -6021086.45748  -4691753.20541         0.00041         0.00041  21738843.39548
 97 06 19 19 17 00.0000000  0  5 05 06 09 10 24
  -1909755.44049  -1488121.54947         0.00041  20471161.58547  20471158.25049
   -592949.94648         0.00041         0.00041         0.00041  22545642.32148
   3101320.00048   2416610.17644         0.00041  25085066.88144  25085063.49648
 -17866802.78049 -13922174.96346         0.00041  21160262.47046  21160259.41049
  -5952161.11647  -4638045.13644         0.00041  21751963.13544  21751958.26647
 97 06 19 19 17 30.0000000  0  6 04 05 06 09 10 24
        -0.56558         0.54055         0.00051  24518074.27755  24518071.09158
  -1872970.88449  -1459458.27547         0.00041  20478161.54647  20478158.29549
   -659179.23248   -513645.87041         0.00041         0.00041  22533039.25248
   3185999.26948         0.00041         0.00041         0.00041  25101175.62148
 -17903347.14249 -13950651.07646         0.00041  21153308.17646  21153304.91949
  -5883055.08748  -4584196.28944         0.00041  21765113.47444  21765112.10948
 97 06 19 19 18 00.0000000  0  6 04 05 06 09 10 17
     93348.48248     72739.98245         0.00041  24535837.89245  24535833.61448
  -1836083.64049  -1430714.97947         0.00041  20485180.72147  20485177.36749
   -725793.11448         0.00041         0.00041         0.00041  22520363.67948
   3270113.72248   2548137.54941         0.00041         0.00041  25117183.97948
 -17939760.42249 -13979025.03046         0.00041  21146379.27546  21146375.43349
         0.01058         0.58554         0.00051  24800373.45954  24800368.52158
 97 06 19 19 18 30.0000000  0  6 04 05 06 09 10 17
    185969.23248    144911.94945         0.00041  24553462.64045  24553459.41248
  -1799367.46049  -1402104.97947         0.00041  20492167.56147  20492164.17149
   -793065.69548         0.00041         0.00041         0.00041  22507562.25448
   3353399.86348   2613035.67541         0.00041         0.00041  25133032.30648
 -17976306.08349 -14007502.15146         0.00041  21139425.22446  21139421.34849
    -95192.69548    -74175.49744         0.00041  24782259.71744  24782254.46648
 97 06 19 19 19 00.0000000  0  5 04 05 06 09 10
    278300.12448    216858.03444         0.00041  24571030.35244  24571028.67048
  -1762419.70049  -1373314.54747         0.00041  20499198.69347  20499195.60149
   -860578.89548         0.00041         0.00041         0.00041  22494713.37348
   3436272.64548   2677611.82544         0.00041  25148812.11644  25148805.94948
 -18012556.26649 -14035749.03446         0.00041  21132526.72746  21132523.29049
 97 06 19 19 19 30.0000000  0  4 05 06 09 10
  -1724750.65949  -1343962.07246         0.00041  20506366.36946  20506363.57049
   -927850.30148         0.00041         0.00041         0.00041  22481912.93648
   3519210.84648   2742238.87044         0.00041  25164591.46344  25164589.76048
 -18048016.97649 -14063380.74046         0.00041  21125778.44846  21125775.20149
 97 06 19 19 20 00.0000000  0  5 04 05 06 09 10
        -0.62758        -0.54454         0.00051  24606328.37954  24606326.30458
  -1686088.34749  -1313835.62446         0.00041  20513723.66746  20513720.50149
   -994619.11148         0.00041         0.00041         0.00041  22469207.22548
   3602471.50048   2807117.27941         0.00041         0.00041  25180432.46148
 -18082430.98749 -14090196.83846         0.00041  21119229.61646  21119226.58449
 97 06 19 19 20 30.0000000  0  5 04 05 06 10 24
     93335.84048     72729.09244         0.00041  24624090.53244  24624087.67748
  -1646516.85349  -1283000.72646         0.00041  20521253.49746  20521250.40949
  -1060952.10948         0.00041         0.00041         0.00041  22456584.15648
 -18115891.46149 -14116269.92646         0.00041  21112862.13146  21112859.15249
         0.26158         1.39651         0.00051         0.00051  21843678.55158
 97 06 19 19 21 00.0000000  0  7 04 05 06 10 17 24 30
    187264.10348    145919.88644         0.00041  24641963.57144  24641961.88448
  -1605808.46949  -1251279.93846         0.00041  20529000.41946  20528997.49949
  -1126612.95948         0.00041         0.00041         0.00041  22444088.40348
 -18148168.59049 -14141420.90646         0.00041  21106720.22446  21106717.00549
         0.09758         0.94554         0.00051  24692465.96954  24692460.41658
     70506.64248     54941.46044         0.00041  21857096.18644  21857095.02348
        -0.08058         0.21154         0.00051  20586025.12754  20586021.86558
 97 06 19 19 21 30.0000000  0  7 04 05 06 10 17 24 30
    281319.92748    219210.05844         0.00041  24659861.95144  24659859.15548
  -1564405.36149  -1219017.80146         0.00041  20536878.87446  20536875.88349
  -1192038.34847         0.00041         0.00041         0.00041  22431637.00447
 -18179717.67949 -14166004.60346         0.00041  21100716.89146  21100713.64349
    -92854.33048    -72353.06444         0.00041  24674797.99244  24674792.88948
    141321.31048    110121.71144         0.00041  21870572.15044  21870569.97848
    -30275.97748    -23591.39845         0.00041  20580261.08245  20580260.64648
 97 06 19 19 22 00.0000000  0  7 04 05 06 10 17 24 30
    375539.92948    292628.22044         0.00041  24677790.98744  24677788.93548
  -1522266.34049  -1186182.21846         0.00041  20544897.95446  20544894.74049
  -1257167.93947         0.00041         0.00041         0.00041  22419244.11147
 -18210499.14149 -14189990.13946         0.00041  21094859.37446  21094856.18149
   -185340.09648   -144419.90444         0.00041  24657200.99344  24657192.05848
    212480.06448    165570.07244         0.00041  21884112.83944  21884110.62248
    -59769.23948    -46573.19745         0.00041  20574649.99845  20574648.90348
 97 06 19 19 22 30.0000000  0  7 04 05 06 10 17 24 30
    469891.07148    366148.55441         0.00041         0.00041  24695743.05448
  -1479425.48049  -1152799.75046         0.00041  20553050.52346  20553047.39649
  -1322029.34748         0.00041         0.00041         0.00041  22406903.93648
 -18240520.91049 -14213383.71646         0.00041  21089146.40246  21089143.23449
   -277487.73948   -216223.22944         0.00041  24639665.68544  24639656.25348
    283956.94648    221266.29544         0.00041  21897714.97144  21897711.83348
    -88491.77448    -68954.41845         0.00041  20569185.60845  20569181.89148
 97 06 19 19 23 00.0000000  0  8 04 05 06 09 10 17 24 30
    564283.45748    439700.95541         0.00041         0.00041  24713705.10448
  -1435948.99749  -1118921.98146         0.00041  20561323.95246  20561321.05249
  -1386706.18048         0.00041         0.00041         0.00041  22394593.52948
        -0.65658         0.00051         0.00051         0.00051  25276128.52458
 -18269840.50949 -14236230.14046         0.00041  21083566.95646  21083563.60649
   -369370.99948   -287820.54744         0.00041  24622175.82144  24622171.20548
    355675.73448    277151.05145         0.00041  21911362.20145  21911360.53248
   -116511.20048    -90787.73445         0.00041  20563852.51345  20563850.36748
 97 06 19 19 23 30.0000000  0  8 04 05 06 09 10 17 24 30
    658643.01948         0.00041         0.00041         0.00041  24731659.72048
  -1391920.69949  -1084614.23446         0.00041  20569702.35146  20569699.29449
  -1451295.01148         0.00041         0.00041         0.00041  22382305.18148
     83601.82548         0.00041         0.00041         0.00041  25292037.32648
 -18298538.10349 -14258591.90246         0.00041  21078105.70246  21078102.13949
   -461077.68148   -359280.34544         0.00041  24604726.58844  24604722.19248
    427556.07448    333161.67545         0.00041  21925041.25445  21925038.27248
   -143922.65848   -112147.34645         0.00041  20558636.31245  20558634.37448
 97 06 19 19 24 00.0000000  0  8 04 05 06 09 10 17 24 30
    752962.26648         0.00041         0.00041         0.00041  24749608.91548
  -1347359.60549  -1049891.32046         0.00041  20578181.70246  20578178.76749
  -1515824.80148         0.00041         0.00041         0.00041  22370024.23548
    167041.43148         0.00041         0.00041         0.00041  25307913.99848
 -18326610.44649 -14280466.46746         0.00041  21072762.95746  21072759.69349
   -552624.12248   -430615.15944         0.00041  24587305.12844  24587301.46148
    499590.31548    389292.20045         0.00041  21938749.47445  21938744.83348
   -170758.54548   -133058.47445         0.00041  20553529.28645  20553526.25748
 97 06 19 19 24 30.0000000  0  8 04 05 06 09 10 17 24 30
    847273.60648         0.00041         0.00041         0.00041  24767554.97248
  -1302247.72249  -1014739.21446         0.00041  20586766.48546  20586763.30549
  -1580294.58148         0.00041         0.00041         0.00041  22357754.12448
    250356.86448         0.00041         0.00041         0.00041  25323767.58548
 -18354034.66349 -14301835.98646         0.00041  21067544.94646  21067541.74949
   -643987.09348   -501807.01544         0.00041  24569920.05544  24569915.69248
    571798.54548    445558.30845         0.00041  21952489.94245  21952486.88548
   -196992.57148   -153500.56845         0.00041  20548537.30745  20548534.79848
 97 06 19 19 25 00.0000000  0  7 05 06 09 10 17 24 30
  -1256566.32649   -979143.33146         0.00041  20595459.08246  20595456.06149
  -1644682.77448         0.00041         0.00041         0.00041  22345504.09048
    333569.98547         0.00041         0.00041         0.00041  25339606.13647
 -18380803.87449 -14322695.09146         0.00041  21062451.39546  21062447.86349
   -735133.75448   -572830.36444         0.00041  24552575.40944  24552569.55048
    644199.51348    501974.60245         0.00041  21966266.42745  21966263.82348
   -222610.42548   -173462.49745         0.00041  20543661.32045  20543659.43448
 97 06 19 19 25 30.0000000  0  6 05 06 10 17 24 30
  -1210399.70149   -943169.35646         0.00041  20604244.42846  20604241.36649
  -1709058.71948         0.00041         0.00041         0.00041  22333253.41348
 -18407009.64049 -14343115.14046         0.00041  21057464.80646  21057461.61349
   -826130.13248   -643736.67044         0.00041  24535258.27544  24535252.04248
    716715.30548    558480.40545         0.00041  21980065.10245  21980063.74048
   -247696.09448   -193009.81945         0.00041  20538889.58545  20538886.40748
 97 06 19 19 26 00.0000000  0  6 05 06 10 17 24 30
  -1163797.80849   -906856.21246         0.00041  20613112.66446  20613109.56349
  -1773453.57048         0.00041         0.00041         0.00041  22320998.49148
 -18432708.54349 -14363140.23646         0.00041  21052574.26246  21052571.31649
   -917005.03448         0.00041         0.00041         0.00041  24517958.96348
    789288.72348    615031.10045         0.00041  21993876.18545  21993874.65348
   -272294.84548   -212177.71146         0.00041  20534207.51446  20534204.60648
 97 06 19 19 26 30.0000000  0  7 04 05 06 10 17 24 30
        -0.85758         0.00051         0.00051         0.00051  24839283.03158
  -1116586.81049   -870068.43547         0.00041  20622096.59547  20622093.53349
  -1837687.94248         0.00041         0.00041         0.00041  22308776.31848
 -18457752.69849 -14382655.15946         0.00041  21047808.27546  21047805.23949
  -1007585.78548         0.00041         0.00041         0.00041  24500721.02648
    862091.01448    671760.11345         0.00041  22007730.37945  22007727.83848
   -296229.01948   -230827.72546         0.00041  20529653.51046  20529650.35148
 97 06 19 19 27 00.0000000  0  8 04 05 06 10 17 24 25 30
     94257.99448         0.00041         0.00041         0.00041  24857220.51948
  -1068733.21349   -832779.93747         0.00041  20631203.12447  20631200.03349
  -1901711.30048  -1481851.71741         0.00041         0.00041  22296593.29448
 -18482113.76149 -14401637.80046         0.00041  21043172.14946  21043169.00549
  -1097844.18648   -855461.79241         0.00041         0.00041  24483546.18948
    935154.52748    728692.70245         0.00041  22021634.45545  22021631.57648
        -0.78557         1.17251         0.00051         0.00051  25345204.49757
   -319474.21148   -248940.86146         0.00041  20525230.02646  20525226.86048
 97 06 19 19 27 30.0000000  0  7 04 05 06 10 17 24 30
    188437.84448    146834.22244         0.00041  24875146.45344  24875142.53548
  -1020388.47349   -795108.72947         0.00041  20640402.92547  20640400.14849
  -1965657.09648         0.00041         0.00041         0.00041  22284423.43348
 -18505926.32949 -14420193.03446         0.00041  21038640.99346  21038637.72649
  -1187935.76948         0.00041         0.00041         0.00041  24466403.63748
   1008332.25748    785714.29945         0.00041  22035560.79245  22035556.17648
   -342175.26248   -266629.98746         0.00041  20520909.46846  20520907.60848
 97 06 19 19 28 00.0000000  0  7 04 05 06 10 17 24 30
    282428.69548    220073.86444         0.00041  24893027.30444  24893028.19848
   -971679.64049   -757153.80547         0.00041  20649671.43347  20649668.89849
  -2029645.91747         0.00041         0.00041         0.00041  22272246.74447
 -18529289.58349 -14438398.16646         0.00041  21034194.79346  21034191.73349
  -1277992.19248         0.00041         0.00041         0.00041  24449266.54248
   1081498.76448    842727.14346         0.00041  22049483.21846  22049479.50048
   -364429.33748   -283970.84446         0.00041  20516675.10346  20516672.91448
 97 06 19 19 28 30.0000000  0  7 04 05 06 10 17 24 30
    376359.18048    293266.39241         0.00041         0.00041  24910901.23648
   -922488.61849   -718823.16947         0.00041  20659032.32647  20659029.18649
  -2093563.24748         0.00041         0.00041         0.00041  22260086.38748
 -18552078.47549 -14456155.73546         0.00041  21029858.65046  21029855.53449
  -1367919.11748  -1065909.72844         0.00041  24432161.51644  24432155.39348
   1154780.70148    899829.91945         0.00041  22063428.88945  22063423.67948
   -386112.32049   -300866.70146         0.00041  20512549.10046  20512546.56649
 97 06 19 19 29 00.0000000  0  6 04 05 10 17 24 30
    470318.13748    366481.18144         0.00041  24928785.69344  24928781.27048
   -872727.73449   -680048.46346         0.00041  20668501.60846  20668498.38549
 -18574184.97549 -14473381.57746         0.00041  21025651.94146  21025649.04449
  -1457621.73248  -1135807.75941         0.00041         0.00041  24415085.28748
   1228263.83948    957089.46746         0.00041  22077412.14346  22077407.69848
   -407126.70649   -317241.53246         0.00041  20508550.84646  20508547.66149
 97 06 19 19 29 30.0000000  0  6 04 05 10 17 24 30
    564201.68448    439637.13544         0.00041  24946647.72844  24946646.89248
   -822491.55049   -640903.41446         0.00041  20678061.19646  20678058.04049
 -18595710.96149 -14490155.06946         0.00041  21021555.49546  21021552.41849
  -1547192.26548  -1205602.96144         0.00041  24398044.42744  24398039.49248
   1301847.74048   1014427.56845         0.00041  22091414.43845  22091409.80648
   -427566.46149   -333168.63246         0.00041  20504660.70146  20504657.68149
 97 06 19 19 30 00.0000000  0  6 04 05 10 17 24 30
    658053.33148    512768.45444         0.00041  24964507.61944  24964506.57648
   -771718.56249   -601340.07446         0.00041  20687722.03946  20687719.86249
 -18616614.14949 -14506443.24946         0.00041  21017578.03446  21017575.06549
  -1636581.16048  -1275256.54444         0.00041  24381038.38144  24381029.94248
   1375582.96648   1071883.57946         0.00041  22105445.55846  22105441.24348
   -447390.90849   -348616.26846         0.00041  20500888.39846  20500885.20049
 97 06 19 19 30 30.0000000  0  6 04 05 10 17 24 30
    751875.96348    585876.99144         0.00041  24982365.36544  24982360.50748
   -720378.73749   -561335.04446         0.00041  20697492.45446  20697489.89049
 -18636892.30349 -14522244.39146         0.00041  21013718.86346  21013716.22549
  -1725762.89848  -1344748.79044         0.00041  24364061.51844  24364058.37448
   1449496.26548   1129478.32945         0.00041  22119509.82045  22119506.65148
   -466604.23549   -363587.70346         0.00041  20497231.98346  20497229.27849
 97 06 19 19 31 00.0000000  0  6 04 05 10 17 24 30
    845603.69748    658911.53744         0.00041  25000198.54244  25000196.18248
   -668525.18849   -520929.71346         0.00041  20707360.09946  20707357.02949
 -18656603.42049 -14537603.69146         0.00041  21009967.84946  21009965.12549
  -1814788.07448  -1414118.99944         0.00041  24347124.05144  24347118.08448
   1523516.37448   1187156.32545         0.00041  22133595.04845  22133593.21248
   -485275.35849   -378136.64346         0.00041  20493678.55746  20493676.59249
 97 06 19 19 31 30.0000000  0  6 04 05 10 17 24 30
    939268.44648    731897.05244         0.00041  25018024.89044  25018020.32748
   -616131.60749   -480103.57346         0.00041  20717330.62446  20717327.41149
 -18675720.10149 -14552499.79546         0.00041  21006329.98246  21006327.43449
  -1903635.19448  -1483350.48544         0.00041  24330219.98144  24330211.54148
   1597666.81448   1244935.90545         0.00041  22147705.37345  22147703.01548
   -503381.58349   -392245.40846         0.00041  20490233.33546  20490230.98749
 97 06 19 19 32 00.0000000  0  6 04 05 10 17 24 30
   1032847.57548    804815.79544         0.00041  25035828.61544  25035828.46848
   -563247.13949   -438894.91946         0.00041  20727394.11546  20727390.93449
 -18694270.75449 -14566954.82446         0.00041  21002800.03246  21002797.47749
  -1992336.65248  -1552468.42944         0.00041  24313334.97344  24313329.85048
   1671910.07648   1302787.78545         0.00041  22161833.90545  22161830.67848
   -520949.52649   -405934.74246         0.00041  20486890.21746  20486888.07449
 97 06 19 19 32 30.0000000  0  6 04 05 10 17 24 30
   1126413.45948    877724.26044         0.00041  25053635.48144  25053632.25448
   -509819.35749   -397262.90446         0.00041  20737560.91846  20737557.70149
 -18712191.34849 -14580918.89646         0.00041  20999390.46846  20999387.57249
  -2080816.82548  -1621414.00944         0.00041  24296500.26744  24296493.60748
   1746296.63748   1360751.30545         0.00041  22175987.44245  22175986.18748
   -537899.73349   -419142.71146         0.00041  20483664.56146  20483662.52749
 97 06 19 19 33 00.0000000  0  6 04 05 10 17 24 30
   1219919.43448         0.00041         0.00041         0.00041  25071426.55148
   -455909.45849   -355255.22046         0.00041  20747819.74146  20747816.54049
 -18729527.09449 -14594427.25646         0.00041  20996090.82346  20996088.40849
  -2169124.64748  -1690225.29544         0.00041  24279696.99044  24279691.36648
   1820758.97648   1418773.89246         0.00041  22190158.92546  22190156.97948
   -554278.46949   -431905.36546         0.00041  20480548.09146  20480545.99749
 97 06 19 19 33 30.0000000  0  6 04 05 10 17 24 30
   1313362.55348         0.00041         0.00041         0.00041  25089207.82148
   -401530.79349   -312882.25846         0.00041  20758167.37646  20758164.43449
 -18746270.74549 -14607474.24946         0.00041  20992904.61546  20992902.04149
  -2257246.65048  -1758891.72845         0.00041  24262928.99045  24262920.79948
   1895303.81748   1476860.72946         0.00041  22204344.60846  22204341.54648
   -570073.36549   -444213.09846         0.00041  20477542.32946  20477540.23749
 97 06 19 19 34 00.0000000  0  6 04 05 10 17 24 30
   1406704.65948   1096132.94241         0.00041         0.00041  25106971.81248
   -346701.54749   -270158.20346         0.00041  20768601.12746  20768598.11749
 -18762438.16649 -14620072.22746         0.00041  20989828.18046  20989825.36649
  -2345195.31048  -1827423.09345         0.00041  24246190.66045  24246184.83648
   1969897.66948   1534985.77646         0.00041  22218540.07246  22218536.18148
   -585313.36649   -456088.44346         0.00041  20474642.29146  20474640.23749
 97 06 19 19 34 30.0000000  0  6 04 05 10 17 24 30
   1499956.51747         0.00041         0.00041         0.00041  25124713.83747
   -291386.10549   -227055.28346         0.00041  20779127.38646  20779124.41049
 -18778005.40849 -14632202.52746         0.00041  20986865.88746  20986863.03149
  -2432955.01848  -1895807.23645         0.00041  24229490.05945  24229484.27348
   2044559.20448   1593163.55846         0.00041  22232747.09346  22232743.77848
   -599988.94249   -467523.98746         0.00041  20471850.09146  20471847.48049
 97 06 19 19 35 00.0000000  0  5 05 10 17 24 30
   -235617.26549   -183599.06746         0.00041  20789739.84346  20789736.61749
 -18792993.64849 -14643881.66046         0.00041  20984013.78446  20984010.65249
  -2520566.30848  -1964075.70845         0.00041  24212819.35645  24212811.99048
   2119270.70148   1651380.26746         0.00041  22246964.34946  22246961.11448
   -614131.53849   -478544.20946         0.00041  20469158.32546  20469156.67549
 97 06 19 19 35 30.0000000  0  5 05 10 17 24 30
   -179452.16549   -139834.09046         0.00041  20800427.99746  20800424.55049
 -18807450.78349 -14655146.94046         0.00041  20981262.59346  20981259.75549
  -2608088.11948  -2032274.49445         0.00041  24196161.88045  24196157.33648
   2193983.41948   1709597.93546         0.00041  22261181.57046  22261178.38448
   -627783.46849   -489182.08246         0.00041  20466560.63046  20466558.81749
 97 06 19 19 36 00.0000000  0  5 05 10 17 24 30
   -122829.63949    -95712.65646         0.00041  20811203.24046  20811199.35949
 -18821330.03149 -14665961.92546         0.00041  20978621.63646  20978618.41549
  -2695471.56448  -2100365.38745         0.00041  24179533.85445  24179527.88848
   2268748.21148   1767856.19646         0.00041  22275408.85246  22275405.88148
   -640880.61249   -499387.65946         0.00041  20464068.41146  20464066.26849
 97 06 19 19 36 30.0000000  0  6 04 05 10 17 24 30
        -0.05357         0.00051         0.00051         0.00051  25195445.38257
    -65696.26149    -51193.19146         0.00041  20822075.45746  20822071.91149
 -18834578.87549 -14676285.66646         0.00041  20976100.44646  20976097.26549
  -2782652.43548  -2168298.47045         0.00041  24162945.27545  24162939.40248
   2343654.31348   1826224.56146         0.00041  22289664.08246  22289659.84548
   -653333.98849   -509091.58846         0.00041  20461698.40346  20461696.10749
 97 06 19 19 37 00.0000000  0  6 04 05 10 17 24 30
     92868.87447         0.00041         0.00041         0.00041  25213115.85847
     -7950.94049     -6196.86046         0.00041  20833063.82646  20833060.60349
 -18847084.19549 -14686030.05446         0.00041  20973720.48446  20973717.82849
  -2869514.20548  -2235982.89645         0.00041  24146415.47045  24146409.62948
   2418822.94048   1884797.49946         0.00041  22303966.27446  22303963.07748
   -665013.42449   -518192.44146         0.00041  20459476.09246  20459473.61849
 97 06 19 19 37 30.0000000  0  7 04 05 06 10 17 24 30
    185727.13147         0.00041         0.00041         0.00041  25230786.86147
     50318.41949     39207.82446         0.00041  20844152.01846  20844148.71149
        -0.64958         0.00051         0.00051         0.00051  22043692.17858
 -18858948.21449 -14695274.72446         0.00041  20971463.20746  20971460.25949
  -2956143.80048  -2303486.41845         0.00041  24129930.42645  24129924.48348
   2494151.50148   1943495.06546         0.00041  22318301.27046  22318297.60248
   -676014.66449   -526764.84246         0.00041  20457382.67346  20457380.77849
 97 06 19 19 38 00.0000000  0  7 04 05 06 10 17 24 30
    278408.61348         0.00041         0.00041         0.00041  25248424.64348
    108954.21149     84898.03346         0.00041  20855309.86146  20855306.68349
    -62514.54247         0.00041         0.00041         0.00041  22031796.20347
 -18870337.71049 -14704149.65346         0.00041  20969295.52746  20969292.92749
  -3042708.13748  -2370939.10244         0.00041  24113458.29144  24113451.45748
   2569490.49248   2002200.77146         0.00041  22332638.96246  22332635.32048
   -686505.61449   -534939.62246         0.00041  20455386.07946  20455384.24649
 97 06 19 19 38 30.0000000  0  7 04 05 10 17 24 25 30
    371036.09548         0.00041         0.00041         0.00041  25266050.72348
    168095.17849    130981.88146         0.00041  20866563.66346  20866560.38149
 -18881104.92449 -14712539.68546         0.00041  20967247.20146  20967244.18649
  -3129082.39448  -2438243.68344         0.00041  24097024.88244  24097014.20948
   2644979.35448   2061023.25746         0.00041  22347004.45646  22347000.42648
         0.23258         0.00051         0.00051         0.00051  25252339.66258
   -696366.76449   -542623.63846         0.00041  20453510.20046  20453507.17149
 97 06 19 19 39 00.0000000  0  6 05 10 17 24 25 30
    227633.71449    177375.51946         0.00041  20877893.94046  20877890.70249
 -18891350.34149 -14720523.13046         0.00041  20965297.32746  20965294.08249
  -3215385.84348  -2505493.07144         0.00041  24080598.68244  24080590.24348
   2720479.89248   2119854.83546         0.00041  22361370.97746  22361367.77348
    -15604.20547         0.00041         0.00041         0.00041  25249370.54947
   -705735.68349   -549924.08146         0.00041  20451726.86746  20451723.74549
 97 06 19 19 39 30.0000000  0  7 04 05 10 17 24 25 30
        -0.16658         0.00051         0.00051         0.00051  25301223.29158
    287667.70249    224155.22046         0.00041  20889318.20846  20889314.99449
 -18900976.02749 -14728023.66646         0.00041  20963465.50446  20963462.21349
  -3301513.14948  -2572605.19844         0.00041  24064209.65544  24064200.96748
   2796070.90248   2178756.90846         0.00041  22375754.82046  22375751.47948
    -30756.90147         0.00041         0.00041         0.00041  25246488.74147
   -714524.22949   -556772.29346         0.00041  20450054.17946  20450051.72949
 97 06 19 19 40 00.0000000  0  7 04 05 10 17 24 25 30
     92331.79548         0.00041         0.00041         0.00041  25318793.28548
    348199.80449    271323.04846         0.00041  20900836.96446  20900833.37549
 -18909956.87249 -14735021.73046         0.00041  20961756.53746  20961752.76649
  -3387445.53648  -2639565.40944         0.00041  24047858.65744  24047849.96948
   2871758.75848   2237734.43046         0.00041  22390157.66646  22390154.51748
    -45448.34448         0.00041         0.00041         0.00041  25243692.11348
   -722717.87549   -563156.95446         0.00041  20448495.42746  20448493.36449
 97 06 19 19 40 30.0000000  0  7 04 05 10 17 24 25 30
    184630.76947         0.00041         0.00041         0.00041  25336357.85747
    409248.85549    318893.70146         0.00041  20912454.33246  20912451.10649
 -18918273.68149 -14741502.35746         0.00041  20960173.52246  20960170.54949
  -3473134.75848  -2706336.20744         0.00041  24031552.22144  24031540.80348
   2947547.09048   2296790.26245         0.00041  22404580.19445  22404575.97948
    -59639.59648         0.00041         0.00041         0.00041  25240990.67448
   -730287.11049   -569055.06746         0.00041  20447055.27646  20447052.75649
 97 06 19 19 41 00.0000000  0  7 05 06 10 17 24 25 30
    470793.80649    366850.76846         0.00041  20924165.96546  20924162.80349
        -0.20858         0.59151         0.00051         0.00051  21960737.75458
 -18925954.61249 -14747487.50546         0.00041  20958712.14146  20958709.10049
  -3558569.76648  -2772908.92544         0.00041  24015293.66344  24015283.98348
   3023421.67548   2355913.31545         0.00041  22419018.29445  22419014.44548
    -73319.94948         0.00041         0.00041         0.00041  25238389.06148
   -737231.59249   -574466.35846         0.00041  20445733.37146  20445731.04149
 97 06 19 19 41 30.0000000  0  7 05 06 10 17 24 25 30
    532714.58349    415100.68546         0.00041  20935949.08446  20935946.30349
    -61892.46947    -48227.16641         0.00041         0.00041  21948958.12347
 -18933128.19449 -14753077.30746         0.00041  20957346.91246  20957344.00149
  -3643870.07548  -2839376.63344         0.00041  23999060.57744  23999054.27748
   3099273.28548   2415018.44545         0.00041  22433451.38645  22433447.94248
    -86607.57548         0.00041         0.00041         0.00041  25235860.21948
   -743662.41349   -579477.40046         0.00041  20444509.43846  20444507.72849
 97 06 19 19 42 00.0000000  0  7 05 06 10 17 24 25 30
    595200.12849    463790.67146         0.00041  20947840.00846  20947836.96049
   -123586.79648    -96300.65041         0.00041         0.00041  21937218.87948
 -18939618.04049 -14758134.33246         0.00041  20956112.07346  20956109.00949
  -3728870.98348  -2905611.06244         0.00041  23982881.56144  23982878.52348
   3175295.90448   2474256.83945         0.00041  22447918.40145  22447915.52448
    -99321.77548         0.00041         0.00041         0.00041  25233438.82948
   -749405.03749   -583952.18846         0.00041  20443416.65446  20443414.88349
 97 06 19 19 42 30.0000000  0  7 05 06 10 17 24 25 30
    658165.38949    512854.48046         0.00041  20959821.66646  20959818.54749
   -185208.28648         0.00041         0.00041         0.00041  21925493.28748
 -18945526.59449 -14762738.36546         0.00041  20954987.53546  20954984.40549
  -3813673.32748  -2971690.75344         0.00041  23966747.75844  23966740.82248
   3251404.96748   2533562.57545         0.00041  22462402.62845  22462398.09748
   -111554.57748         0.00041         0.00041         0.00041  25231111.93848
   -754553.07349   -587963.65546         0.00041  20442436.99146  20442434.56749
 97 06 19 19 43 00.0000000  0  7 05 06 10 17 24 25 30
    721560.36949    562253.12446         0.00041  20971885.37446  20971882.19049
   -246815.58648         0.00041         0.00041         0.00041  21913768.30648
 -18950883.76749 -14766912.77546         0.00041  20953967.74946  20953964.51349
  -3898348.01948  -3037671.00341         0.00041         0.00041  23950627.53448
   3327553.85348   2592899.33745         0.00041  22476891.12245  22476889.41348
   -123365.97748         0.00041         0.00041         0.00041  25228864.24848
   -759154.82549   -591549.43446         0.00041  20441562.09746  20441558.94749
 97 06 19 19 43 30.0000000  0  7 05 06 10 17 24 25 30
    785433.99649    612024.75946         0.00041  20984040.15546  20984036.91549
   -308356.50247         0.00041         0.00041         0.00041  21902055.87047
 -18955628.34149 -14770609.83946         0.00041  20953065.12846  20953061.76649
  -3982859.39348  -3103523.91444         0.00041  23934548.77144  23934545.64348
   3403783.36448   2652298.93146         0.00041  22491399.57146  22491396.14148
   -134724.40748         0.00041         0.00041         0.00041  25226702.81048
   -763160.34849   -594670.62746         0.00041  20440799.85846  20440797.11849
 97 06 19 19 44 00.0000000  0  6 05 10 17 24 25 30
    849781.24749    662165.45446         0.00041  20996285.51946  20996281.27149
 -18959741.55949 -14773814.94646         0.00041  20952282.47846  20952279.29549
  -4067187.63548  -3169234.17644         0.00041  23918505.99844  23918499.51148
   3480109.72148   2711773.96446         0.00041  22505922.51046  22505919.44348
   -145600.35148         0.00041         0.00041         0.00041  25224633.07948
   -766543.07649   -597306.53546         0.00041  20440155.61646  20440153.31049
 97 06 19 19 44 30.0000000  0  6 05 10 17 24 25 30
    914390.52749    712510.32046         0.00041  21008579.48446  21008575.97049
 -18963413.46249 -14776676.16646         0.00041  20951583.86946  20951580.70049
  -4151518.84148  -3234946.71845         0.00041  23902457.31145  23902453.59748
   3556331.27948   2771167.35446         0.00041  22520428.78446  22520424.68148
   -156184.23148         0.00041         0.00041         0.00041  25222618.98448
   -769488.87049   -599601.97346         0.00041  20439595.18546  20439592.41349
 97 06 19 19 45 00.0000000  0  6 05 10 17 24 25 30
    979526.58649    763265.65546         0.00041  21020974.29346  21020970.96249
 -18966369.03249 -14778979.20846         0.00041  20951021.56746  20951018.52049
  -4235589.11448  -3300456.00045         0.00041  23886461.50545  23886454.80248
   3632714.39248   2830686.63446         0.00041  22534963.56146  22534959.21848
   -166213.52548         0.00041         0.00041         0.00041  25220710.66848
   -771729.99049   -601348.31646         0.00041  20439168.82846  20439166.56449
 97 06 19 19 45 30.0000000  0  6 05 10 17 24 25 30
   1045151.16049    814401.64746         0.00041  21033462.76046  21033458.97749
 -18968662.59449 -14780766.40446         0.00041  20950585.18746  20950582.39449
  -4319426.07148  -3365783.50744         0.00041  23870504.98544  23870500.47848
   3709219.90548   2890301.28246         0.00041  22549521.58546  22549518.39048
   -175733.01648         0.00041         0.00041         0.00041  25218898.97248
   -773323.97949   -602590.40746         0.00041  20438865.89246  20438863.65349
 97 06 19 19 46 00.0000000  0  6 05 10 17 24 25 30
   1111248.61049    865906.12446         0.00041  21046040.88346  21046036.95249
 -18970317.70149 -14782056.09046         0.00041  20950269.80346  20950267.39049
  -4403047.15948  -3430942.76044         0.00041  23854592.82744  23854587.45848
   3785825.41348   2949993.86146         0.00041  22564099.60846  22564095.76548
   -184762.47348         0.00041         0.00041         0.00041  25217182.07948
   -774299.32649   -603350.43046         0.00041  20438680.08346  20438677.94849
 97 06 19 19 46 30.0000000  0  5 05 10 17 24 30
   1177755.04249    917729.28546         0.00041  21058696.57646  21058692.88049
 -18971420.58149 -14782915.47346         0.00041  20950060.11846  20950057.55449
  -4486528.40548  -3495993.02145         0.00041  23838707.23145  23838701.29548
   3862429.91748   3009685.65245         0.00041  22578676.33845  22578673.75448
   -774749.83849   -603701.48746         0.00041  20438594.29246  20438591.75849
 97 06 19 19 47 00.0000000  0  6 05 10 17 24 25 30
   1244670.75349    969871.37846         0.00041  21071430.28846  21071426.61949
 -18971977.04349 -14783349.05947         0.00041  20949954.39447  20949951.71249
  -4569863.92048  -3560929.67945         0.00041  23822847.40145  23822842.74148
   3939021.66048   3069367.50345         0.00041  22593251.33945  22593248.12648
        -0.73257         0.00051         0.00051         0.00051  25213964.75957
   -774668.21249   -603637.89146         0.00041  20438609.73746  20438607.32349
 97 06 19 19 47 30.0000000  0  7 05 06 10 17 24 25 30
   1312228.84649   1022514.00946         0.00041  21084285.66346  21084282.36649
         0.11658         0.00051         0.00051         0.00051  21808932.25058
 -18971755.45249 -14783176.38146         0.00041  20949996.70746  20949993.64649
  -4652795.21848  -3625551.42845         0.00041  23807067.34945  23807062.58948
   4015835.73648   3129222.59745         0.00041  22607867.74245  22607865.90948
     -7605.65847         0.00041         0.00041         0.00041  25212518.85247
   -773810.04949   -602969.20446         0.00041  20438773.03546  20438771.01349
 97 06 19 19 48 00.0000000  0  6 05 06 10 17 24 30
   1380244.18149   1075512.93346         0.00041  21097228.93446  21097225.86349
    -60581.29448         0.00041         0.00041         0.00041  21797406.14148
 -18970934.26749 -14782536.49246         0.00041  20950152.74246  20950149.67049
  -4735506.14748  -3690001.48845         0.00041  23791327.31345  23791322.81048
   4092693.69348   3189111.91345         0.00041  22622494.69645  22622490.54148
   -772336.46049   -601820.97146         0.00041  20439053.46746  20439051.43349
 97 06 19 19 48 30.0000000  0  5 05 10 17 24 30
   1448565.37549   1128750.17846         0.00041  21110230.03946  21110227.08049
 -18969649.91749 -14781535.69246         0.00041  20950397.32146  20950393.95449
  -4818144.45648  -3754394.97845         0.00041  23775601.41145  23775597.53948
   4169462.04048   3248931.38945         0.00041  22637102.50745  22637099.28048
   -770378.62349   -600295.39746         0.00041  20439425.85046  20439423.41049
 97 06 19 19 49 00.0000000  0  5 05 10 17 24 30
   1517470.10149   1182442.13046         0.00041  21123342.62546  21123339.52449
 -18967613.34149 -14779948.74846         0.00041  20950784.77046  20950781.55849
  -4900440.35148  -3818521.60445         0.00041  23759942.47745  23759937.84148
   4246439.71848   3308913.96445         0.00041  22651751.50145  22651747.50848
   -767651.14749   -598170.10946         0.00041  20439944.72446  20439942.36249
